[[{"header":{"parameterUnit":"m.s-1","parameterCategory":1,"la1":31.0,"la2":29.5877,"lo1":-88.7671,"lo2":-86.6584,"dy":0.0162,"dx":0.0185,"nx":115,"ny":88,"refTime":"2026-04-20T00:00:00:Z","depth":0,"parameterNumber":2,"parameterNumberName":"U-component_of_WINDS"},"data":[0.0,0.0,0.0,0.0,0.0,0.0,0.0,0.0,0.0,0.0,0.0,0.0,0.0,0.0,0.0,0.0,0.0,0.0,0.0,0.0,0.0,0.0,0.0,0.0,0.0,0.0,0.0,0.0,0.0,0.0,0.0,0.0,0.0,0.0,0.0,0.0,0.0,0.0,0.0,0.0,0.0,0.0,0.0,0.0,0.0,0.0,0.0,0.0,0.0,0.0,0.0,0.0,0.0,0.0,0.0,0.0,0.0,0.0,0.0,0.0,0.0,0.0,0.0,0.0,0.0,0.0,0.0,0.0,0.0,0.0,0.0,0.0,0.0,0.0,0.0,0.0,0.0,0.0,0.0,0.0,0.0,0.0,0.0,0.0,0.0,0.0,0.0,0.0,0.0,0.0,0.0,0.0,0.0,0.0,0.0,0.0,0.0,0.0,0.0,0.0,0.0,0.0,0.0,0.0,0.0,0.0,0.0,0.0,0.0,0.0,0.0,0.0,0.0,0.0,0.0,0.0,0.0,0.0,0.0,0.0,0.0,0.0,0.0,0.0,0.0,0.0,0.0,0.0,0.0,0.0,0.0,0.0,0.0,0.0,0.0,0.0,0.0,0.0,0.0,0.0,0.0,0.0,0.0,0.0,0.0,0.0,0.0,0.0,0.0,0.0,0.0,0.0,0.0,0.0,0.0,0.0,0.0,0.0,0.0,0.0,0.0,0.0,0.0,0.0,0.0,0.0,0.0,0.0,0.0,0.0,0.0,0.0,0.0,0.0,0.0,0.0,0.0,0.0,0.0,0.0,0.0,0.0,0.0,0.0,0.0,0.0,0.0,0.0,0.0,0.0,0.0,0.0,0.0,0.0,0.0,0.0,0.0,0.0,0.0,0.0,0.0,0.0,0.0,0.0,0.0,0.0,0.0,0.0,0.0,0.0,0.0,0.0,0.0,0.0,0.0,0.0,0.0,0.0,0.0,0.0,0.0,0.0,0.0,0.0,0.0,0.0,0.0,0.0,0.0,0.0,0.0,0.0,0.0,0.0,0.0,0.0,0.0,0.0,0.0,0.0,0.0,0.0,0.0,0.0,0.0,0.0,0.0,0.0,0.0,0.0,0.0,0.0,0.0,0.0,0.0,0.0,0.0,0.0,0.0,0.0,0.0,0.0,0.0,0.0,0.0,0.0,0.0,0.0,0.0,0.0,0.0,0.0,0.0,0.0,0.0,0.0,0.0,0.0,0.0,0.0,0.0,0.0,0.0,0.0,0.0,0.0,0.0,0.0,0.0,0.0,0.0,0.0,0.0,0.0,0.0,0.0,0.0,0.0,0.0,0.0,0.0,0.0,0.0,0.0,0.0,0.0,0.0,0.0,0.0,0.0,0.0,0.0,0.0,0.0,0.0,0.0,0.0,0.0,0.0,0.0,0.0,0.0,0.0,0.0,0.0,0.0,0.0,0.0,0.0,0.0,0.0,0.0,0.0,0.0,0.0,0.0,0.0,0.0,0.0,0.0,0.0,0.0,0.0,0.0,0.0,0.0,0.0,0.0,0.0,0.0,0.0,0.0,0.0,0.0,0.0,0.0,0.0,0.0,0.0,0.0,0.0,0.0,0.0,0.0,0.0,0.0,0.0,0.0,0.0,0.0,0.0,0.0,0.0,0.0,0.0,0.0,0.0,0.0,0.0,0.0,0.0,0.0,0.0,0.0,0.0,0.0,0.0,0.0,0.0,0.0,0.0,0.0,0.0,0.0,0.0,0.0,0.0,0.0,0.0,0.0,0.0,0.0,0.0,0.0,0.0,0.0,0.0,0.0,0.0,0.0,0.0,0.0,0.0,0.0,0.0,0.0,0.0,0.0,0.0,0.0,0.0,0.0,0.0,0.0,0.0,0.0,0.0,0.0,0.0,0.0,0.0,0.0,0.0,0.0,0.0,0.0,0.0,0.0,0.0,0.0,0.0,0.0,0.0,0.0,0.0,0.0,0.0,0.0,0.0,0.0,0.0,0.0,0.0,0.0,0.0,0.0,0.0,0.0,0.0,0.0,0.0,0.0,0.0,0.0,0.0,0.0,0.0,0.0,0.0,0.0,0.0,0.0,0.0,0.0,0.0,0.0,0.0,0.0,0.0,0.0,0.0,0.0,0.0,0.0,0.0,0.0,0.0,0.0,0.0,0.0,0.0,0.0,0.0,0.0,0.0,0.0,0.0,0.0,0.0,0.0,0.0,0.0,0.0,0.0,0.0,0.0,0.0,0.0,0.0,0.0,0.0,0.0,0.0,0.0,0.0,0.0,0.0,0.0,0.0,0.0,0.0,0.0,0.0,0.0,0.0,0.0,0.0,0.0,0.0,0.0,0.0,0.0,0.0,0.0,0.0,0.0,0.0,0.0,0.0,0.0,0.0,0.0,0.0,0.0,0.0,0.0,0.0,0.0,0.0,0.0,0.0,0.0,0.0,0.0,0.0,0.0,0.0,0.0,0.0,0.0,0.0,0.0,0.0,0.0,0.0,0.0,0.0,0.0,0.0,0.0,0.0,0.0,0.0,0.0,0.0,0.0,0.0,0.0,0.0,0.0,0.0,0.0,0.0,0.0,0.0,0.0,0.0,0.0,0.0,0.0,0.0,0.0,0.0,0.0,0.0,0.0,0.0,0.0,0.0,0.0,0.0,0.0,0.0,0.0,0.0,0.0,0.0,0.0,0.0,0.0,0.0,0.0,0.0,0.0,0.0,0.0,0.0,0.0,0.0,0.0,0.0,0.0,0.0,0.0,0.0,0.0,0.0,0.0,0.0,0.0,0.0,0.0,0.0,0.0,0.0,0.0,0.0,0.0,0.0,0.0,0.0,0.0,0.0,0.0,0.0,0.0,0.0,0.0,0.0,0.0,0.0,0.0,0.0,0.0,0.0,0.0,0.0,0.0,0.0,0.0,0.0,0.0,0.0,0.0,0.0,0.0,0.0,0.0,0.0,0.0,0.0,0.0,0.0,0.0,0.0,0.0,0.0,0.0,0.0,0.0,0.0,0.0,0.0,0.0,0.0,0.0,0.0,0.0,0.0,0.0,0.0,0.0,0.0,0.0,0.0,0.0,0.0,0.0,0.0,0.0,0.0,0.0,0.0,0.0,0.0,0.0,0.0,0.0,0.0,0.0,0.0,0.0,0.0,0.0,0.0,0.0,0.0,0.0,0.0,0.0,0.0,0.0,0.0,0.0,0.0,0.0,0.0,0.0,0.0,0.0,0.0,0.0,0.0,0.0,0.0,0.0,0.0,0.0,0.0,0.0,0.0,0.0,0.0,0.0,0.0,0.0,0.0,0.0,0.0,0.0,0.0,0.0,0.0,0.0,0.0,0.0,0.0,0.0,0.0,0.0,0.0,0.0,0.0,0.0,0.0,0.0,0.0,0.0,0.0,0.0,0.0,0.0,0.0,0.0,0.0,0.0,0.0,0.0,0.0,0.0,0.0,0.0,0.0,0.0,0.0,0.0,0.0,0.0,0.0,0.0,0.0,0.0,0.0,0.0,0.0,0.0,0.0,0.0,0.0,0.0,0.0,0.0,0.0,0.0,0.0,0.0,0.0,0.0,0.0,0.0,0.0,0.0,0.0,0.0,0.0,0.0,0.0,0.0,0.0,0.0,0.0,0.0,0.0,0.0,0.0,0.0,0.0,0.0,0.0,0.0,0.0,0.0,0.0,0.0,0.0,0.0,0.0,0.0,0.0,0.0,0.0,0.0,0.0,0.0,0.0,0.0,0.0,0.0,0.0,0.0,0.0,0.0,0.0,0.0,0.0,0.0,0.0,0.0,0.0,0.0,0.0,0.0,0.0,0.0,0.0,0.0,0.0,0.0,0.0,0.0,0.0,0.0,0.0,0.0,0.0,0.0,0.0,0.0,0.0,0.0,0.0,0.0,0.0,0.0,0.0,0.0,0.0,0.0,0.0,0.0,0.0,0.0,0.0,0.0,0.0,0.0,0.0,0.0,0.0,0.0,0.0,0.0,0.0,0.0,0.0,0.0,0.0,0.0,0.0,0.0,0.0,0.0,0.0,0.0,0.0,0.0,0.0,0.0,0.0,0.0,0.0,0.0,0.0,0.0,0.0,0.0,0.0,0.0,0.0,0.0,0.0,0.0,0.0,0.0,0.0,0.0,0.0,0.0,0.0,0.0,0.0,0.0,0.0,0.0,0.0,0.0,0.0,0.0,0.0,0.0,0.0,0.0,0.0,0.0,0.0,0.0,0.0,0.0,0.0,0.0,0.0,0.0,0.0,0.0,0.0,0.0,-1.8948,0.0,0.0,0.0,0.0,0.0,0.0,0.0,0.0,0.0,0.0,0.0,0.0,0.0,0.0,0.0,0.0,0.0,0.0,0.0,0.0,0.0,0.0,0.0,0.0,0.0,0.0,0.0,0.0,0.0,0.0,0.0,0.0,0.0,0.0,0.0,0.0,0.0,0.0,0.0,0.0,0.0,0.0,0.0,0.0,0.0,0.0,0.0,0.0,0.0,0.0,0.0,0.0,0.0,0.0,0.0,0.0,0.0,0.0,0.0,0.0,0.0,0.0,0.0,0.0,0.0,0.0,0.0,0.0,0.0,0.0,0.0,0.0,0.0,0.0,0.0,0.0,0.0,0.0,0.0,0.0,0.0,0.0,0.0,0.0,0.0,0.0,0.0,0.0,0.0,0.0,0.0,0.0,0.0,0.0,0.0,0.0,0.0,0.0,0.0,0.0,0.0,0.0,0.0,0.0,0.0,0.0,0.0,0.0,0.0,0.0,-1.9279,-1.9279,-1.8948,-1.8728,-1.8647,0.0,0.0,0.0,0.0,0.0,0.0,0.0,0.0,0.0,0.0,0.0,0.0,0.0,0.0,0.0,0.0,0.0,0.0,0.0,0.0,0.0,0.0,0.0,0.0,0.0,0.0,0.0,0.0,0.0,0.0,0.0,0.0,0.0,0.0,0.0,0.0,0.0,0.0,0.0,0.0,0.0,0.0,0.0,0.0,0.0,0.0,0.0,0.0,0.0,0.0,0.0,0.0,0.0,0.0,0.0,0.0,0.0,0.0,0.0,0.0,0.0,0.0,0.0,0.0,0.0,0.0,0.0,0.0,0.0,0.0,0.0,0.0,0.0,0.0,0.0,0.0,0.0,0.0,0.0,0.0,0.0,0.0,0.0,0.0,0.0,0.0,0.0,0.0,0.0,0.0,0.0,0.0,0.0,0.0,0.0,0.0,0.0,0.0,0.0,0.0,0.0,0.0,0.0,0.0,0.0,0.0,0.0,0.0,0.0,0.0,0.0,0.0,-1.9389,-1.9022,-1.8427,0.0,0.0,0.0,0.0,0.0,0.0,0.0,0.0,0.0,0.0,0.0,0.0,0.0,0.0,0.0,0.0,0.0,0.0,0.0,0.0,0.0,0.0,0.0,0.0,0.0,0.0,0.0,0.0,0.0,0.0,0.0,0.0,0.0,0.0,0.0,0.0,0.0,0.0,0.0,0.0,0.0,0.0,0.0,0.0,0.0,0.0,0.0,0.0,0.0,0.0,0.0,0.0,0.0,0.0,0.0,0.0,0.0,0.0,0.0,0.0,0.0,0.0,0.0,0.0,0.0,0.0,0.0,0.0,0.0,0.0,0.0,0.0,0.0,0.0,0.0,0.0,0.0,0.0,0.0,0.0,0.0,0.0,0.0,0.0,0.0,0.0,0.0,0.0,0.0,0.0,0.0,0.0,0.0,0.0,0.0,0.0,0.0,0.0,0.0,0.0,0.0,0.0,0.0,0.0,0.0,0.0,0.0,0.0,0.0,0.0,-1.9638,-2.0364,-1.9675,0.0,-1.9205,0.0,0.0,0.0,0.0,0.0,0.0,0.0,0.0,0.0,0.0,0.0,0.0,0.0,0.0,0.0,0.0,0.0,0.0,0.0,0.0,0.0,0.0,0.0,0.0,0.0,0.0,0.0,0.0,0.0,0.0,0.0,0.0,0.0,0.0,0.0,0.0,0.0,0.0,0.0,0.0,0.0,0.0,0.0,0.0,0.0,0.0,0.0,0.0,0.0,0.0,0.0,0.0,0.0,0.0,0.0,0.0,0.0,0.0,0.0,0.0,0.0,0.0,0.0,0.0,0.0,0.0,0.0,0.0,0.0,0.0,0.0,0.0,0.0,0.0,0.0,0.0,0.0,0.0,0.0,0.0,0.0,0.0,0.0,0.0,0.0,0.0,0.0,0.0,0.0,0.0,0.0,0.0,0.0,0.0,0.0,0.0,0.0,0.0,0.0,0.0,0.0,0.0,0.0,0.0,0.0,0.0,0.0,0.0,0.0,0.0,-2.1437,-2.129,-2.0931,-2.0519,0.0,0.0,0.0,0.0,0.0,0.0,0.0,0.0,0.0,0.0,0.0,0.0,0.0,0.0,0.0,0.0,0.0,0.0,0.0,0.0,0.0,0.0,0.0,0.0,0.0,0.0,0.0,0.0,0.0,0.0,0.0,0.0,0.0,0.0,0.0,0.0,0.0,0.0,0.0,0.0,0.0,0.0,0.0,0.0,0.0,0.0,0.0,0.0,0.0,0.0,0.0,0.0,0.0,0.0,0.0,0.0,0.0,0.0,0.0,0.0,0.0,0.0,0.0,0.0,0.0,0.0,0.0,0.0,0.0,0.0,0.0,0.0,0.0,0.0,0.0,0.0,0.0,0.0,0.0,0.0,0.0,0.0,0.0,0.0,0.0,0.0,0.0,0.0,0.0,0.0,0.0,0.0,0.0,0.0,0.0,0.0,0.0,0.0,0.0,0.0,0.0,0.0,0.0,0.0,0.0,0.0,0.0,0.0,0.0,0.0,-2.1281,-2.1914,-2.1188,-2.1555,-2.118,-1.9887,0.0,0.0,0.0,0.0,0.0,0.0,0.0,0.0,0.0,0.0,0.0,0.0,0.0,0.0,0.0,0.0,0.0,0.0,0.0,0.0,0.0,0.0,0.0,0.0,0.0,0.0,0.0,0.0,0.0,0.0,0.0,0.0,0.0,0.0,0.0,0.0,0.0,0.0,0.0,0.0,0.0,0.0,0.0,0.0,0.0,0.0,0.0,0.0,0.0,0.0,0.0,0.0,0.0,0.0,0.0,0.0,0.0,0.0,0.0,0.0,0.0,0.0,0.0,0.0,0.0,0.0,0.0,0.0,0.0,0.0,0.0,0.0,0.0,0.0,0.0,0.0,0.0,0.0,0.0,0.0,0.0,0.0,0.0,0.0,0.0,0.0,0.0,0.0,0.0,0.0,0.0,0.0,0.0,0.0,0.0,0.0,0.0,0.0,0.0,0.0,0.0,0.0,0.0,0.0,0.0,0.0,0.0,0.0,0.0,-2.0181,-2.0254,-1.9572,-2.0976,-2.0674,0.0,0.0,0.0,0.0,0.0,0.0,0.0,0.0,0.0,0.0,0.0,0.0,0.0,0.0,0.0,0.0,0.0,0.0,0.0,0.0,0.0,0.0,0.0,0.0,0.0,0.0,0.0,0.0,0.0,0.0,0.0,0.0,0.0,0.0,0.0,0.0,0.0,0.0,0.0,0.0,0.0,0.0,0.0,0.0,0.0,0.0,0.0,0.0,0.0,0.0,0.0,0.0,0.0,0.0,0.0,0.0,0.0,0.0,0.0,0.0,0.0,0.0,0.0,0.0,0.0,0.0,0.0,0.0,0.0,0.0,0.0,0.0,0.0,0.0,0.0,0.0,0.0,0.0,0.0,0.0,0.0,0.0,0.0,0.0,0.0,0.0,0.0,0.0,0.0,0.0,0.0,0.0,0.0,0.0,0.0,0.0,0.0,0.0,0.0,0.0,0.0,0.0,0.0,0.0,0.0,0.0,0.0,0.0,0.0,-1.9389,-2.0637,-2.1437,-2.1657,-2.1776,-2.0894,0.0,0.0,0.0,0.0,0.0,0.0,0.0,0.0,0.0,0.0,0.0,0.0,0.0,0.0,0.0,0.0,0.0,0.0,0.0,0.0,0.0,0.0,0.0,0.0,0.0,0.0,0.0,0.0,0.0,0.0,0.0,0.0,0.0,0.0,0.0,0.0,0.0,0.0,0.0,0.0,0.0,0.0,0.0,0.0,0.0,0.0,0.0,0.0,0.0,0.0,0.0,0.0,0.0,0.0,0.0,0.0,0.0,0.0,0.0,0.0,0.0,0.0,0.0,0.0,0.0,0.0,0.0,0.0,0.0,0.0,0.0,0.0,0.0,0.0,0.0,0.0,0.0,0.0,0.0,0.0,0.0,0.0,0.0,0.0,0.0,0.0,0.0,0.0,0.0,0.0,0.0,0.0,0.0,0.0,0.0,0.0,0.0,0.0,0.0,0.0,0.0,0.0,0.0,0.0,0.0,0.0,0.0,0.0,0.0,-2.0556,0.0,-2.2584,0.0,-2.2069,-2.1005,0.0,0.0,0.0,0.0,0.0,0.0,0.0,0.0,0.0,0.0,0.0,0.0,0.0,0.0,0.0,0.0,0.0,0.0,0.0,0.0,0.0,0.0,0.0,0.0,0.0,0.0,0.0,0.0,0.0,0.0,0.0,0.0,0.0,0.0,0.0,0.0,0.0,0.0,0.0,0.0,0.0,0.0,0.0,0.0,0.0,0.0,0.0,0.0,0.0,0.0,0.0,0.0,0.0,0.0,0.0,0.0,0.0,0.0,0.0,0.0,0.0,0.0,0.0,0.0,0.0,0.0,0.0,0.0,0.0,0.0,0.0,0.0,0.0,0.0,0.0,0.0,0.0,0.0,0.0,0.0,0.0,0.0,0.0,0.0,0.0,0.0,0.0,0.0,0.0,0.0,0.0,0.0,0.0,0.0,0.0,0.0,0.0,0.0,0.0,0.0,0.0,0.0,0.0,0.0,0.0,0.0,0.0,0.0,-2.2997,-2.3043,-2.3776,-2.3483,-2.1923,-2.1877,-2.1041,0.0,0.0,0.0,0.0,0.0,0.0,0.0,0.0,0.0,0.0,0.0,0.0,0.0,0.0,0.0,0.0,0.0,0.0,0.0,0.0,0.0,0.0,0.0,0.0,0.0,0.0,0.0,0.0,0.0,0.0,0.0,0.0,0.0,0.0,0.0,0.0,0.0,0.0,0.0,0.0,0.0,0.0,0.0,0.0,0.0,0.0,0.0,0.0,0.0,0.0,0.0,0.0,0.0,0.0,0.0,0.0,0.0,0.0,0.0,0.0,0.0,0.0,0.0,0.0,0.0,0.0,0.0,0.0,0.0,0.0,0.0,0.0,0.0,0.0,0.0,0.0,0.0,0.0,0.0,0.0,0.0,0.0,0.0,0.0,0.0,0.0,0.0,0.0,0.0,0.0,0.0,0.0,0.0,0.0,0.0,0.0,0.0,0.0,0.0,0.0,0.0,0.0,0.0,0.0,0.0,0.0,0.0,0.0,0.0,-2.4553,-2.5283,-2.4965,-2.3405,-2.2794,-2.1442,0.0,0.0,0.0,0.0,0.0,0.0,0.0,0.0,0.0,0.0,0.0,0.0,0.0,0.0,0.0,0.0,0.0,0.0,0.0,0.0,0.0,0.0,0.0,0.0,0.0,0.0,0.0,0.0,0.0,0.0,0.0,0.0,0.0,0.0,0.0,0.0,0.0,0.0,0.0,0.0,0.0,0.0,0.0,0.0,0.0,0.0,0.0,0.0,0.0,0.0,0.0,0.0,0.0,0.0,0.0,0.0,0.0,0.0,0.0,0.0,0.0,0.0,0.0,0.0,0.0,0.0,0.0,0.0,0.0,0.0,0.0,0.0,0.0,0.0,0.0,0.0,0.0,0.0,0.0,0.0,0.0,0.0,0.0,0.0,0.0,0.0,0.0,0.0,0.0,0.0,0.0,0.0,0.0,0.0,0.0,0.0,0.0,0.0,0.0,0.0,0.0,0.0,0.0,0.0,0.0,0.0,0.0,0.0,0.0,-2.9123,-2.91,-2.8179,-2.626,-2.5178,-2.3466,-2.1097,0.0,0.0,0.0,0.0,0.0,0.0,0.0,0.0,0.0,0.0,0.0,0.0,0.0,0.0,0.0,0.0,0.0,0.0,0.0,0.0,0.0,0.0,0.0,0.0,0.0,0.0,0.0,0.0,0.0,0.0,0.0,0.0,0.0,0.0,0.0,0.0,0.0,0.0,0.0,0.0,0.0,0.0,0.0,0.0,0.0,0.0,0.0,0.0,0.0,0.0,0.0,0.0,0.0,0.0,0.0,0.0,0.0,0.0,0.0,0.0,0.0,0.0,0.0,0.0,0.0,0.0,0.0,0.0,0.0,0.0,0.0,0.0,0.0,0.0,0.0,0.0,0.0,0.0,0.0,0.0,0.0,0.0,0.0,0.0,0.0,0.0,0.0,0.0,0.0,0.0,0.0,0.0,0.0,0.0,0.0,0.0,0.0,0.0,0.0,0.0,0.0,0.0,0.0,0.0,0.0,0.0,0.0,0.0,-3.5949,-3.4891,-3.3057,-3.0399,-2.8798,-2.6722,0.0,0.0,0.0,0.0,0.0,0.0,0.0,0.0,0.0,0.0,0.0,0.0,0.0,0.0,0.0,0.0,0.0,0.0,0.0,0.0,0.0,0.0,0.0,0.0,0.0,0.0,0.0,0.0,0.0,0.0,0.0,0.0,0.0,0.0,0.0,0.0,0.0,0.0,0.0,0.0,0.0,0.0,0.0,0.0,0.0,0.0,0.0,0.0,0.0,0.0,0.0,0.0,0.0,0.0,0.0,0.0,0.0,0.0,0.0,0.0,0.0,0.0,0.0,0.0,0.0,0.0,0.0,0.0,0.0,0.0,0.0,0.0,0.0,0.0,0.0,0.0,0.0,0.0,0.0,0.0,0.0,0.0,0.0,0.0,0.0,0.0,0.0,0.0,0.0,0.0,0.0,0.0,0.0,0.0,0.0,0.0,0.0,0.0,0.0,0.0,0.0,0.0,0.0,0.0,0.0,0.0,0.0,0.0,0.0,-3.8355,-4.1506,-4.0274,-3.451,-3.2712,-2.9919,0.0,0.0,0.0,0.0,0.0,0.0,0.0,0.0,0.0,0.0,0.0,0.0,0.0,0.0,0.0,0.0,0.0,0.0,0.0,0.0,0.0,0.0,0.0,0.0,0.0,0.0,0.0,0.0,0.0,0.0,0.0,0.0,0.0,0.0,0.0,0.0,0.0,0.0,0.0,0.0,0.0,0.0,0.0,0.0,0.0,0.0,0.0,0.0,0.0,0.0,0.0,0.0,0.0,0.0,0.0,0.0,0.0,0.0,0.0,0.0,0.0,0.0,0.0,0.0,0.0,0.0,0.0,0.0,0.0,0.0,0.0,0.0,0.0,0.0,0.0,0.0,0.0,0.0,0.0,0.0,0.0,0.0,0.0,0.0,0.0,0.0,0.0,0.0,0.0,0.0,0.0,0.0,0.0,0.0,0.0,0.0,0.0,0.0,0.0,0.0,0.0,0.0,0.0,0.0,0.0,0.0,0.0,0.0,-3.685,-4.0818,-4.6214,-4.625,-4.0456,-3.7123,-3.314,0.0,0.0,0.0,0.0,0.0,0.0,0.0,0.0,0.0,0.0,0.0,0.0,0.0,0.0,0.0,0.0,0.0,0.0,0.0,0.0,0.0,0.0,0.0,0.0,0.0,0.0,0.0,0.0,0.0,0.0,0.0,0.0,0.0,0.0,0.0,0.0,0.0,0.0,0.0,0.0,0.0,0.0,0.0,0.0,0.0,0.0,0.0,0.0,0.0,0.0,0.0,0.0,0.0,0.0,0.0,0.0,0.0,0.0,0.0,0.0,0.0,0.0,0.0,0.0,0.0,0.0,0.0,0.0,0.0,0.0,0.0,0.0,0.0,0.0,0.0,0.0,0.0,0.0,0.0,0.0,0.0,0.0,0.0,0.0,0.0,0.0,0.0,0.0,0.0,0.0,0.0,0.0,0.0,0.0,0.0,0.0,0.0,0.0,0.0,0.0,0.0,0.0,0.0,0.0,0.0,0.0,0.0,0.0,-3.9314,-4.3353,-4.9438,-5.0814,-4.7047,-4.1759,-3.658,0.0,0.0,0.0,0.0,0.0,0.0,0.0,0.0,0.0,0.0,0.0,0.0,0.0,0.0,0.0,0.0,0.0,0.0,0.0,0.0,0.0,0.0,0.0,0.0,0.0,0.0,0.0,0.0,0.0,0.0,0.0,0.0,0.0,0.0,0.0,0.0,0.0,0.0,0.0,0.0,0.0,0.0,0.0,0.0,0.0,0.0,0.0,0.0,0.0,0.0,0.0,0.0,0.0,0.0,0.0,0.0,0.0,0.0,0.0,0.0,0.0,0.0,0.0,0.0,0.0,0.0,0.0,0.0,0.0,0.0,0.0,0.0,0.0,0.0,0.0,0.0,0.0,0.0,0.0,0.0,0.0,0.0,0.0,0.0,0.0,0.0,0.0,0.0,0.0,0.0,0.0,0.0,0.0,0.0,0.0,0.0,0.0,0.0,0.0,0.0,0.0,0.0,0.0,0.0,0.0,0.0,0.0,0.0,-4.2013,-4.6613,-5.1104,-5.2444,-5.0307,-4.6069,-4.0963,0.0,0.0,0.0,0.0,0.0,0.0,0.0,0.0,0.0,0.0,0.0,0.0,0.0,0.0,0.0,0.0,0.0,0.0,0.0,0.0,0.0,0.0,0.0,0.0,0.0,0.0,0.0,0.0,0.0,0.0,0.0,0.0,0.0,0.0,0.0,0.0,0.0,0.0,0.0,0.0,0.0,0.0,0.0,0.0,0.0,0.0,0.0,0.0,-1.7776,0.0,0.0,0.0,0.0,0.0,0.0,0.0,0.0,0.0,0.0,0.0,0.0,0.0,0.0,0.0,0.0,0.0,0.0,0.0,0.0,0.0,0.0,0.0,0.0,0.0,0.0,0.0,0.0,0.0,0.0,0.0,0.0,0.0,0.0,0.0,0.0,0.0,0.0,0.0,0.0,0.0,0.0,0.0,0.0,0.0,0.0,0.0,0.0,0.0,0.0,0.0,0.0,0.0,0.0,0.0,0.0,0.0,0.0,0.0,-4.4729,-4.8749,-5.2733,-5.3856,-5.1864,-4.9401,-4.4765,0.0,0.0,0.0,0.0,0.0,0.0,0.0,0.0,0.0,0.0,0.0,0.0,0.0,0.0,0.0,0.0,0.0,0.0,0.0,0.0,0.0,0.0,0.0,0.0,0.0,0.0,0.0,0.0,0.0,0.0,0.0,0.0,0.0,0.0,0.0,0.0,0.0,0.0,0.0,0.0,0.0,0.0,0.0,0.0,0.0,0.0,0.0,0.0,0.0,0.0,0.0,0.0,0.0,0.0,0.0,0.0,0.0,0.0,0.0,0.0,0.0,0.0,0.0,0.0,0.0,0.0,0.0,0.0,0.0,0.0,0.0,0.0,0.0,0.0,0.0,0.0,0.0,0.0,0.0,0.0,0.0,0.0,0.0,0.0,0.0,0.0,0.0,0.0,0.0,0.0,0.0,0.0,0.0,0.0,0.0,0.0,0.0,0.0,0.0,0.0,0.0,0.0,0.0,0.0,0.0,0.0,0.0,-4.2846,-4.7228,-5.0416,-5.4074,-5.4943,-5.2733,-5.1538,-4.7337,-3.9731,0.0,0.0,0.0,0.0,0.0,0.0,0.0,0.0,0.0,0.0,0.0,0.0,0.0,0.0,0.0,0.0,0.0,0.0,0.0,0.0,0.0,0.0,0.0,0.0,0.0,0.0,0.0,0.0,0.0,0.0,0.0,0.0,0.0,0.0,0.0,0.0,0.0,0.0,-1.4843,-1.7003,0.0,0.0,0.0,0.0,0.0,0.0,0.0,0.0,-1.9969,0.0,0.0,0.0,0.0,0.0,0.0,0.0,0.0,0.0,0.0,0.0,0.0,0.0,0.0,0.0,0.0,0.0,0.0,0.0,0.0,0.0,0.0,0.0,0.0,0.0,0.0,0.0,0.0,0.0,0.0,0.0,0.0,0.0,0.0,0.0,0.0,0.0,0.0,0.0,0.0,0.0,0.0,0.0,0.0,0.0,0.0,0.0,0.0,0.0,0.0,0.0,0.0,0.0,0.0,0.0,0.0,-3.8952,-4.4476,-4.8858,-5.2045,-5.4653,-5.5196,-5.3494,-5.0778,-4.6447,-4.051,0.0,0.0,0.0,0.0,0.0,0.0,0.0,0.0,0.0,0.0,0.0,0.0,0.0,0.0,0.0,0.0,0.0,0.0,0.0,0.0,0.0,0.0,0.0,0.0,0.0,0.0,0.0,0.0,0.0,0.0,0.0,0.0,0.0,0.0,0.0,0.0,0.0,0.0,0.0,-2.0974,-2.2509,0.0,0.0,0.0,0.0,0.0,0.0,0.0,0.0,-2.1124,0.0,0.0,0.0,0.0,0.0,0.0,0.0,0.0,0.0,0.0,0.0,0.0,0.0,0.0,0.0,0.0,0.0,0.0,0.0,0.0,0.0,0.0,0.0,0.0,0.0,0.0,0.0,0.0,0.0,0.0,0.0,0.0,0.0,0.0,0.0,0.0,0.0,0.0,0.0,0.0,0.0,0.0,0.0,0.0,0.0,0.0,0.0,0.0,0.0,0.0,0.0,0.0,0.0,0.0,0.0,-4.1162,-4.7156,-5.1357,-5.3675,-5.5631,-5.5486,-5.3096,-4.9546,-4.5055,0.0,0.0,0.0,0.0,0.0,0.0,0.0,0.0,0.0,0.0,0.0,0.0,0.0,0.0,0.0,0.0,0.0,0.0,0.0,0.0,0.0,0.0,0.0,0.0,0.0,0.0,0.0,0.0,0.0,0.0,0.0,0.0,0.0,0.0,0.0,0.0,0.0,0.0,0.0,0.0,-2.3163,-2.4428,-2.3577,0.0,0.0,0.0,0.0,0.0,0.0,-2.3466,-2.2624,0.0,0.0,0.0,0.0,0.0,0.0,0.0,0.0,0.0,0.0,0.0,0.0,0.0,0.0,0.0,0.0,0.0,0.0,0.0,0.0,0.0,0.0,0.0,0.0,0.0,0.0,0.0,0.0,0.0,0.0,0.0,0.0,0.0,0.0,0.0,0.0,0.0,0.0,0.0,0.0,0.0,0.0,0.0,0.0,0.0,0.0,0.0,0.0,0.0,0.0,0.0,0.0,0.0,0.0,0.0,-4.2865,-4.922,-5.3277,-5.487,-5.6391,-5.5631,-5.2335,-4.8496,-4.3788,0.0,0.0,0.0,0.0,0.0,0.0,0.0,0.0,0.0,0.0,0.0,0.0,0.0,0.0,0.0,0.0,0.0,0.0,0.0,0.0,0.0,0.0,0.0,0.0,0.0,0.0,0.0,0.0,0.0,0.0,0.0,0.0,0.0,0.0,0.0,0.0,0.0,0.0,0.0,0.0,0.0,-2.6269,-2.6115,-2.6346,0.0,0.0,0.0,0.0,-2.55,-2.5313,0.0,0.0,0.0,0.0,0.0,0.0,0.0,0.0,0.0,0.0,0.0,0.0,0.0,0.0,0.0,0.0,0.0,0.0,0.0,0.0,0.0,0.0,0.0,0.0,0.0,0.0,0.0,0.0,0.0,0.0,0.0,0.0,0.0,0.0,0.0,0.0,0.0,0.0,0.0,0.0,0.0,0.0,0.0,0.0,0.0,0.0,0.0,0.0,0.0,0.0,0.0,0.0,0.0,0.0,0.0,0.0,-4.2846,-4.922,-5.3313,-5.487,-5.6391,-5.5341,-5.1538,-4.8242,-4.357,0.0,0.0,0.0,0.0,0.0,0.0,0.0,0.0,0.0,0.0,0.0,0.0,0.0,0.0,0.0,0.0,0.0,0.0,0.0,0.0,0.0,0.0,0.0,0.0,0.0,0.0,0.0,0.0,0.0,0.0,0.0,0.0,0.0,0.0,0.0,0.0,0.0,0.0,0.0,0.0,0.0,-2.9538,-2.878,-2.9967,-3.0429,0.0,0.0,-2.8005,-2.6692,-2.7626,0.0,0.0,0.0,0.0,0.0,0.0,0.0,0.0,0.0,0.0,0.0,0.0,0.0,0.0,0.0,0.0,0.0,0.0,0.0,0.0,0.0,0.0,0.0,0.0,0.0,0.0,0.0,0.0,0.0,0.0,0.0,0.0,0.0,0.0,0.0,0.0,0.0,0.0,0.0,0.0,0.0,0.0,0.0,0.0,0.0,0.0,0.0,0.0,0.0,0.0,0.0,0.0,0.0,0.0,0.0,-3.6544,-4.2865,-4.922,-5.3277,-5.487,-5.6428,-5.5305,-5.1393,-4.7735,-4.3027,0.0,0.0,0.0,0.0,0.0,0.0,0.0,0.0,0.0,0.0,0.0,0.0,0.0,0.0,0.0,0.0,0.0,0.0,0.0,0.0,0.0,0.0,0.0,0.0,0.0,0.0,0.0,0.0,0.0,0.0,0.0,0.0,0.0,0.0,0.0,0.0,0.0,0.0,0.0,0.0,0.0,0.0,-3.0698,-3.2045,0.0,0.0,0.0,-3.0083,-3.0814,0.0,0.0,0.0,0.0,0.0,0.0,0.0,0.0,0.0,0.0,0.0,0.0,0.0,0.0,0.0,0.0,0.0,0.0,0.0,0.0,0.0,0.0,0.0,0.0,0.0,0.0,0.0,0.0,0.0,0.0,0.0,0.0,0.0,0.0,0.0,0.0,0.0,0.0,0.0,0.0,0.0,0.0,0.0,0.0,0.0,0.0,0.0,0.0,0.0,0.0,0.0,0.0,0.0,0.0,0.0,0.0,0.0,-4.2846,-4.922,-5.3277,-5.487,-5.6391,-5.5305,-5.1416,-4.7989,0.0,0.0,0.0,0.0,0.0,0.0,0.0,0.0,0.0,0.0,0.0,0.0,0.0,0.0,0.0,0.0,0.0,0.0,0.0,0.0,0.0,0.0,0.0,0.0,0.0,0.0,0.0,-1.04,0.0,0.0,0.0,0.0,0.0,0.0,0.0,0.0,0.0,0.0,0.0,0.0,0.0,0.0,-3.3089,-3.268,-3.4077,-3.4853,0.0,0.0,-3.25,-3.3975,-3.316,-3.1506,0.0,0.0,0.0,0.0,0.0,0.0,0.0,0.0,0.0,0.0,0.0,0.0,0.0,0.0,0.0,0.0,0.0,0.0,0.0,0.0,0.0,0.0,0.0,0.0,0.0,0.0,0.0,0.0,0.0,0.0,0.0,0.0,0.0,0.0,0.0,0.0,0.0,0.0,0.0,0.0,0.0,0.0,0.0,0.0,0.0,0.0,0.0,0.0,0.0,0.0,0.0,0.0,0.0,0.0,0.0,-4.2865,-4.922,-5.3277,-5.487,-5.6391,-5.5305,-5.143,-4.9582,-4.5345,0.0,0.0,0.0,0.0,0.0,0.0,0.0,0.0,0.0,0.0,0.0,0.0,0.0,0.0,0.0,0.0,0.0,0.0,0.0,0.0,0.0,0.0,0.0,0.0,0.0,0.0,0.0,0.0,0.0,0.0,0.0,0.0,0.0,0.0,0.0,0.0,0.0,0.0,0.0,0.0,0.0,-3.4382,-3.5067,-3.664,-3.743,0.0,0.0,-3.5815,-3.4398,-3.4129,-3.2666,-2.8665,0.0,0.0,0.0,0.0,0.0,0.0,0.0,0.0,0.0,0.0,0.0,0.0,0.0,0.0,0.0,0.0,0.0,0.0,0.0,0.0,0.0,0.0,0.0,0.0,0.0,0.0,0.0,0.0,0.0,0.0,0.0,0.0,0.0,0.0,0.0,0.0,0.0,0.0,0.0,0.0,0.0,0.0,0.0,0.0,0.0,0.0,0.0,0.0,0.0,0.0,0.0,0.0,0.0,-3.6544,-4.2865,-4.922,-5.3277,-5.487,-5.6391,-5.5776,-5.2842,-5.1212,-4.7228,0.0,0.0,0.0,0.0,0.0,0.0,0.0,0.0,0.0,0.0,0.0,0.0,0.0,0.0,0.0,0.0,0.0,0.0,0.0,0.0,0.0,0.0,0.0,0.0,0.0,0.0,0.0,0.0,-1.2838,-1.3526,-1.4096,0.0,0.0,0.0,0.0,0.0,0.0,0.0,0.0,0.0,0.0,-3.5252,-3.6104,-3.8139,0.0,0.0,-3.8315,-3.7892,-3.6738,-3.5661,-3.393,-3.0737,-2.7236,0.0,0.0,0.0,0.0,0.0,0.0,0.0,0.0,0.0,0.0,0.0,0.0,0.0,0.0,0.0,0.0,0.0,0.0,0.0,0.0,0.0,0.0,0.0,0.0,0.0,0.0,0.0,0.0,0.0,0.0,0.0,0.0,0.0,0.0,0.0,0.0,0.0,0.0,0.0,0.0,0.0,0.0,0.0,0.0,0.0,0.0,0.0,0.0,0.0,0.0,0.0,0.0,-3.6761,-4.2846,-4.9474,-5.3494,-5.487,-5.6174,-5.5812,-5.3748,-5.2118,-4.8496,0.0,0.0,0.0,0.0,0.0,0.0,0.0,0.0,0.0,0.0,0.0,0.0,0.0,0.0,0.0,0.0,0.0,0.0,0.0,0.0,0.0,0.0,0.0,0.0,0.0,0.0,0.0,0.0,-1.4252,-1.4825,-1.5436,0.0,0.0,0.0,0.0,0.0,0.0,0.0,0.0,0.0,0.0,-3.5621,-3.7203,-3.9169,-4.0477,-4.0439,-4.02,-3.9662,-3.8546,-3.6769,-3.4731,-3.2429,0.0,0.0,0.0,0.0,0.0,0.0,0.0,0.0,0.0,0.0,0.0,0.0,0.0,0.0,0.0,0.0,0.0,0.0,0.0,0.0,0.0,0.0,0.0,0.0,0.0,0.0,0.0,0.0,0.0,0.0,-2.3622,0.0,0.0,0.0,0.0,0.0,0.0,0.0,0.0,0.0,0.0,0.0,0.0,0.0,0.0,0.0,0.0,0.0,0.0,0.0,0.0,0.0,0.0,-3.7341,-4.2901,-4.9981,-5.4074,-5.487,-5.5631,-5.5305,-5.3748,-5.2118,-4.9003,-4.4077,0.0,0.0,0.0,0.0,0.0,0.0,0.0,0.0,0.0,0.0,0.0,0.0,0.0,0.0,0.0,0.0,0.0,0.0,0.0,0.0,0.0,0.0,0.0,0.0,0.0,0.0,-1.6273,-1.635,-1.6353,0.0,0.0,0.0,0.0,0.0,0.0,0.0,0.0,0.0,0.0,-3.1907,-3.5338,-3.8522,-3.9892,-4.1131,-4.2701,-4.2277,-4.1162,-3.9469,-3.7161,-3.4923,0.0,0.0,0.0,0.0,0.0,0.0,0.0,0.0,0.0,0.0,0.0,0.0,0.0,0.0,0.0,0.0,0.0,0.0,0.0,0.0,0.0,0.0,0.0,0.0,0.0,0.0,0.0,-3.0927,-3.0018,0.0,0.0,0.0,0.0,0.0,0.0,0.0,0.0,0.0,0.0,0.0,-4.0111,-4.0383,0.0,0.0,0.0,0.0,0.0,0.0,0.0,0.0,0.0,0.0,0.0,0.0,-3.8138,-4.3715,-5.0271,-5.382,-5.411,-5.5341,-5.5269,-5.3748,-5.2661,-4.8822,-4.194,0.0,0.0,0.0,0.0,0.0,0.0,0.0,0.0,0.0,0.0,0.0,0.0,0.0,0.0,0.0,0.0,0.0,0.0,0.0,0.0,0.0,0.0,0.0,0.0,0.0,-1.7198,0.0,0.0,0.0,0.0,0.0,0.0,0.0,0.0,0.0,0.0,0.0,-2.6058,-2.8567,-3.2405,-3.5791,-3.7977,-4.0537,-4.2239,0.0,0.0,0.0,0.0,0.0,0.0,0.0,0.0,0.0,0.0,0.0,0.0,0.0,0.0,-3.0891,-2.7241,-2.6549,-2.5938,-2.3984,0.0,0.0,0.0,0.0,0.0,0.0,0.0,0.0,0.0,0.0,0.0,0.0,0.0,0.0,-3.6816,0.0,-3.4114,0.0,0.0,0.0,0.0,0.0,0.0,0.0,0.0,-4.3715,-4.5454,-4.6271,-4.6794,-4.6902,0.0,-4.6939,-4.3679,0.0,0.0,0.0,0.0,0.0,0.0,0.0,0.0,-3.9369,-4.491,-5.0995,-5.411,-5.4146,-5.5088,-5.4979,-5.3711,-5.2118,-4.8134,-4.1542,-3.7558,-3.3502,0.0,0.0,0.0,0.0,0.0,0.0,0.0,0.0,0.0,0.0,0.0,0.0,0.0,0.0,0.0,0.0,0.0,0.0,0.0,0.0,0.0,0.0,0.0,-1.8803,0.0,0.0,0.0,0.0,0.0,0.0,0.0,0.0,0.0,-2.3695,-2.5982,-2.8466,-3.0407,-3.3661,-3.6627,-3.8898,0.0,0.0,0.0,0.0,0.0,0.0,0.0,-3.7661,-3.6553,-3.6399,-3.6315,-3.6045,-3.6469,-3.6661,-3.6091,0.0,0.0,-3.2545,-3.1506,-3.0743,-2.8747,-2.7246,-2.5948,-2.4807,-2.4855,-2.5256,0.0,0.0,0.0,0.0,0.0,0.0,0.0,0.0,-4.357,-4.2774,0.0,-3.955,0.0,0.0,0.0,0.0,0.0,0.0,0.0,0.0,-4.9546,-5.1864,-5.2661,-5.411,-5.4508,-5.3856,-5.4399,-5.2674,-4.8511,-4.0365,0.0,0.0,0.0,0.0,0.0,0.0,-4.1071,-4.654,-5.2118,-5.4907,-5.4834,-5.487,-5.4508,-5.3603,-5.0633,-4.7156,-4.3244,-4.0782,-3.7305,-3.2632,-3.0012,0.0,0.0,0.0,0.0,0.0,0.0,0.0,0.0,0.0,0.0,0.0,0.0,0.0,0.0,0.0,0.0,0.0,0.0,0.0,0.0,-2.0518,0.0,0.0,0.0,0.0,0.0,0.0,0.0,0.0,0.0,0.0,-2.8198,-2.9421,-3.1262,-3.3746,0.0,0.0,0.0,0.0,-4.3701,-4.5316,-4.5594,-4.5017,-4.3355,-4.1708,-4.0631,-4.0593,0.0,0.0,-4.1816,-4.1962,-4.147,-3.9892,-4.0893,-4.0885,-3.7615,-3.6231,-3.4846,-3.2429,-3.1154,-3.0,-2.8588,-2.8767,-2.9371,-5.5812,0.0,0.0,0.0,0.0,-4.7011,-4.8713,-5.0886,-5.009,-4.9293,-4.8387,-4.6033,0.0,0.0,0.0,0.0,0.0,0.0,-4.7192,-5.0524,-5.3349,-5.5088,-5.5848,-5.6319,-5.6138,-5.5377,-5.5558,-5.4218,-5.1393,-4.7808,-4.2973,-3.7031,0.0,0.0,0.0,0.0,-4.3751,-4.8185,-5.3168,-5.516,-5.4074,-5.4617,-5.4218,-5.2878,-5.085,-4.8931,-4.7228,-4.3788,-4.0492,-3.7449,-3.3393,0.0,0.0,0.0,0.0,0.0,0.0,0.0,0.0,0.0,0.0,0.0,0.0,0.0,0.0,0.0,0.0,0.0,0.0,0.0,-2.2266,-2.3449,-2.4006,0.0,0.0,0.0,0.0,0.0,0.0,0.0,0.0,0.0,-3.4694,-3.4197,-3.4273,0.0,0.0,-3.9167,-4.1329,-4.2944,-4.4341,-4.5369,0.0,0.0,0.0,-4.3547,-4.3201,-4.3209,-4.4239,-4.5316,-4.6154,-4.6278,-4.6163,-4.5586,-4.497,-4.4124,-4.3201,-4.0823,-3.8507,-3.6584,-3.5038,-3.3731,-3.2705,-3.2644,-3.3021,-6.3418,-5.7695,-5.5015,-5.3422,-5.277,-5.353,-5.5233,-5.7406,-5.6609,-5.5812,-5.4907,-5.2516,-4.9691,-4.6576,-4.4693,0.0,0.0,0.0,-5.1937,-5.4436,-5.6826,-5.8166,-5.8637,-5.8963,-5.8673,-5.7913,-5.7587,-5.6355,-5.4327,-5.3059,-4.98,-4.4568,0.0,0.0,-4.0564,-4.3082,-4.6323,-5.0307,-5.4074,-5.5414,-5.4218,-5.4037,-5.3349,-5.2045,-5.0778,-4.9582,-4.8402,-4.5164,-4.2411,-4.0383,-3.6363,-3.2488,0.0,0.0,0.0,0.0,0.0,0.0,0.0,0.0,0.0,0.0,0.0,-1.6345,-1.6677,0.0,0.0,0.0,-2.1694,-2.3522,-2.4764,-2.6568,0.0,0.0,0.0,0.0,0.0,0.0,0.0,-3.3318,-3.5954,-3.8209,-3.9508,-3.9431,-3.9164,-3.9002,-4.05,-4.2097,-4.3398,0.0,-4.5936,-4.6426,-4.6857,-4.6817,-4.597,-4.5817,-4.5932,-4.6278,-4.7163,-4.8009,-4.8509,-4.8625,-4.8509,-4.8048,-4.7009,-4.6124,-4.6124,-4.3855,-4.1362,-3.9392,-3.82,-3.7238,-3.6399,-3.6267,-3.6555,-6.9068,-6.7836,-6.2693,-5.9941,-5.9072,-5.976,-6.139,-6.3454,-6.2657,-6.1869,-6.1027,-5.8637,-5.5884,-5.2842,-5.0669,0.0,-5.2045,-5.4363,-5.6174,-5.7659,-5.9905,-6.0919,-6.0919,-6.1616,-6.1543,-6.0665,-5.9905,-5.8709,-5.7152,-5.6283,-5.4798,-5.2552,-4.5997,-4.3353,-4.4693,-4.6214,-4.8858,-5.2625,-5.4943,-5.5703,-5.4907,-5.3277,-5.2045,-5.1321,-5.0474,-4.9257,-4.7735,-4.5454,-4.3498,-4.1886,-3.8898,-3.5437,-3.1632,0.0,0.0,0.0,0.0,0.0,0.0,0.0,0.0,0.0,0.0,0.0,0.0,0.0,0.0,0.0,-2.5564,0.0,-2.6979,-2.9913,0.0,0.0,0.0,-2.9772,-3.0803,-3.37,-3.5946,-3.6901,0.0,0.0,-4.2985,0.0,-4.5048,-4.3596,-4.4669,-4.5875,-4.6689,-4.7471,-4.8116,-4.8144,-4.8933,-4.9192,-4.8346,-4.8231,-4.8471,-4.9125,-4.951,-4.9471,-4.951,-4.951,-4.9163,-4.8548,-4.7615,-4.7,-4.7009,-4.5586,-4.3739,-4.1285,-4.0708,-4.0439,-3.9708,-3.9574,-3.9816,-7.1965,-7.0553,-6.9249,-6.6822,-6.3925,-6.407,-6.5192,-6.6714,-6.5337,-6.4649,-6.4287,-6.1906,-5.9434,-5.6971,-5.6391,-5.6681,-5.7695,-5.8854,-5.9914,-6.0883,-6.1462,-6.1688,-6.1688,-6.1933,-6.1281,-5.9905,-5.9072,-5.8166,-5.7152,-5.5812,-5.487,-5.4218,-5.1973,-5.0416,-4.9655,-5.056,-5.2154,-5.4327,-5.6029,-5.6247,-5.4907,-5.2733,-5.1502,-5.1307,-4.9945,-4.8692,-4.7699,-4.5997,-4.4548,-4.3498,-4.0528,-3.7558,-3.4806,-3.1329,0.0,0.0,0.0,0.0,0.0,0.0,0.0,0.0,0.0,-2.2817,-2.4946,0.0,-2.6039,0.0,-2.9665,-3.1576,-3.201,-3.4034,0.0,0.0,-3.4006,-3.4541,-3.668,-3.82,-3.9661,-4.1151,-4.3138,-4.4704,-4.5545,-4.7111,-4.8269,-4.8449,-4.7723,-4.7543,-4.8406,-4.8679,-4.9067,-4.9729,-5.011,-5.0258,-5.0028,-5.0067,-5.0135,-5.0356,-5.0356,-5.0404,-5.0404,-5.0404,-5.0327,-5.001,-4.8817,-4.7932,-4.7808,-4.6971,-4.5663,-4.3816,-4.2931,-4.2431,-4.22,-4.221,-4.2287,-7.3888,-7.3052,-7.2327,-7.077,-6.8669,-6.7655,-6.7692,-6.8452,-6.7583,-6.6786,-6.6025,-6.3997,-6.2331,-6.11,-6.1064,-6.1317,-6.1752,-6.1824,-6.2114,-6.2512,-6.2186,-6.2041,-6.2041,-6.2041,-6.1326,-6.0122,-5.8601,-5.7623,-5.7116,-5.5631,-5.5051,-5.5377,-5.5305,-5.4798,-5.3965,-5.3675,-5.4182,-5.5377,-5.5884,-5.5776,-5.4907,-5.2878,-5.1488,-5.0764,-4.9546,-4.833,-4.7192,-4.5599,-4.4548,-4.4041,-4.1759,-3.9333,-3.6979,-3.3873,-3.0404,0.0,0.0,0.0,0.0,0.0,0.0,0.0,0.0,0.0,0.0,0.0,-3.0739,-3.1951,-3.4068,-3.5719,-3.6548,-3.8575,-3.969,-3.9346,-3.9202,-3.9699,-4.1065,-4.1991,-4.3023,-4.4284,-4.5621,-4.6729,-4.757,-4.8793,-4.9939,-5.0779,-5.008,-4.9786,-5.0562,-5.0788,-5.0975,-5.1434,-5.1305,-5.0978,-5.0691,-5.0682,-5.0702,-5.0702,-5.0702,-5.0702,-5.0702,-5.0702,-5.0702,-5.0596,-4.9586,-4.8663,-4.8663,-4.8009,-4.7086,-4.6317,-4.5624,-4.5086,-4.4393,-4.4243,-4.4437,-7.5225,-7.4974,-7.3595,-7.2907,-7.2545,-7.048,-6.9605,-6.9497,-6.9424,-6.8452,-6.6858,-6.5482,-6.4794,-6.4685,-6.4613,-6.4541,-6.4504,-6.3599,-6.32,-6.3164,-6.2404,-6.2041,-6.2041,-6.2041,-6.158,-6.0738,-5.8456,-5.7333,-5.7297,-5.5812,-5.5414,-5.6138,-5.6862,-5.7188,-5.7116,-5.5848,-5.5522,-5.6138,-5.5414,-5.5051,-5.5015,-5.3385,-5.1792,-5.0329,-4.9293,-4.7968,-4.6395,-4.491,-4.4077,-4.4041,-4.2574,-4.0727,-3.8589,-3.6329,-3.3432,0.0,-2.9074,0.0,0.0,0.0,0.0,0.0,0.0,0.0,0.0,-3.4074,-3.5173,-3.6727,-3.8393,-3.9698,-4.0497,-4.2827,-4.4024,-4.3395,-4.3996,-4.4493,-4.4503,-4.5277,-4.6042,-4.6768,-4.7608,-4.8449,-4.9328,-5.013,-5.0971,-5.1811,-5.1926,-5.2155,-5.2919,-5.2891,-5.2686,-5.2889,-5.2264,-5.1467,-5.0826,-5.0692,-5.0692,-5.0692,-5.0692,-5.0702,-5.0702,-5.0702,-5.075,-5.0779,-5.0048,-4.9433,-4.9548,-4.8856,-4.824,-4.7971,-4.7971,-4.7586,-4.6326,-4.5967,-4.6493,-7.5696,-7.5083,-7.4757,-7.3921,-7.269,-7.2219,-7.1675,-7.1024,-7.0408,-6.9249,-6.78,-6.7474,-6.6967,-6.6315,-6.5663,-6.5374,-6.5301,-6.3852,-6.32,-6.3192,-6.2367,-6.2041,-6.2041,-6.2041,-6.1543,-6.0738,-5.9035,-5.8166,-5.8166,-5.6573,-5.6174,-5.6935,-5.7116,-5.7188,-5.7188,0.0,0.0,0.0,-5.6174,-5.5776,-5.5703,-5.3639,-5.2045,-5.109,-4.9039,0.0,-4.5599,-4.4621,-4.4077,-4.4041,-4.2592,0.0,0.0,0.0,0.0,0.0,0.0,0.0,0.0,0.0,0.0,0.0,-3.8536,-3.8584,-3.8498,-3.865,-3.9142,-4.0176,-4.1228,-4.2183,-4.3019,-4.4775,-4.5822,-4.5775,-4.65,-4.7018,-4.7101,-4.7837,-4.846,-4.8613,-4.9328,-5.0168,-5.0971,-5.1811,-5.2614,-5.3378,-5.3607,-5.3989,-5.4753,-5.3734,-5.2905,-5.2752,-5.2284,-5.1529,-5.0737,-5.0681,-5.0786,-5.0594,-5.0604,-5.0701,-5.0741,-5.075,-5.0971,-5.1433,-5.0433,-4.9702,-5.0317,-4.974,-4.9009,-4.824,-4.8663,-4.8856,-4.7855,-4.7634,-4.7767,-7.6058,0.0,-7.5264,-7.4362,0.0,-7.2839,-7.2191,-7.1368,-7.1065,-7.0263,-6.914,-6.8343,-6.7583,-6.675,-6.5555,-6.4794,-6.4323,-6.2766,-6.2223,-6.2585,-6.1788,-6.1616,-6.2041,-6.2041,-6.1607,-6.0774,-5.918,-5.842,-5.8311,-5.679,-5.6391,-5.7188,-5.7188,-5.7188,-5.7188,-5.7188,-5.7188,-5.7188,-5.6391,-5.5993,-5.5921,-5.4074,-5.2516,-5.1307,0.0,0.0,0.0,0.0,0.0,0.0,0.0,0.0,0.0,0.0,0.0,-3.7239,-3.689,-3.68,-3.6858,-3.8078,-3.9875,-4.2162,-4.3549,-4.3739,-4.2488,-4.2363,-4.2754,-4.3587,-4.4101,-4.4896,-4.6162,-4.7072,-4.7919,-4.8755,-4.9286,-4.9742,-5.0147,-5.0259,-5.0474,-5.0868,-5.0932,-5.1276,-5.2079,-5.2537,-5.3148,-5.3951,-5.4104,-5.4448,-5.5135,-5.4677,-5.4002,-5.3616,-5.3245,-5.2702,-5.2011,-5.1781,-5.1781,-5.183,-5.1841,-5.168,-5.1346,-5.1279,-5.1318,-5.1318,-5.0894,-5.0818,-5.1125,-5.0894,-5.051,-5.0087,-5.001,-4.9933,-4.9433,-4.9048,-4.8903,-7.6242,-7.6239,-7.5554,-7.4766,-7.3835,-7.3107,-7.2239,-7.1344,0.0,0.0,0.0,-6.8995,-6.7909,-6.6931,-6.5337,-6.4142,-6.3309,-6.1752,-6.139,-6.1978,-6.1498,-6.1534,-6.1978,-6.215,-6.1788,-6.0991,-5.9542,-5.8818,-5.8782,-5.7333,-5.6971,-5.755,-5.7478,-5.7333,-5.7188,-5.7188,-5.7188,-5.7152,-5.6536,-5.621,-5.6174,-5.4689,-5.3204,-5.1756,-5.0017,-4.8424,-4.6975,-4.6142,-4.5743,-4.5743,-4.5707,-4.5417,-4.4765,-4.4172,-4.3266,-4.2068,-4.217,-4.2226,-4.2037,-4.3404,-4.4729,-4.5912,-4.7416,-4.7453,-4.552,-4.5331,-4.571,-4.6544,-4.6822,-4.758,-4.9061,-4.9252,-4.9936,-5.1433,-5.165,-5.1929,-5.2552,-5.2335,-5.2231,-5.2652,-5.2346,-5.2308,-5.2919,-5.3225,-5.3492,-5.418,-5.4409,-5.4562,-5.5212,-5.5313,-5.4982,-5.4302,-5.4034,-5.3843,-5.3234,-5.2927,-5.3042,-5.2933,-5.2971,-5.2811,-5.2134,-5.1923,-5.1625,-5.1164,-5.1395,-5.1692,-5.2,-5.1923,-5.1962,-5.2077,-5.1625,-5.1125,-5.1048,-5.0433,-5.0048,-7.614,-7.6275,-7.5998,-7.5424,-7.4596,-7.367,-7.2551,-7.1344,-7.1431,-7.1096,-7.0372,-7.0154,-6.9213,-6.7764,-6.617,-6.4975,-6.4142,-6.2585,-6.1869,0.0,-6.2585,-6.2549,-6.2014,-6.2693,-6.2621,-6.1797,-6.0919,-6.0484,-6.0375,-5.9542,-5.9144,-5.9144,-5.8565,-5.7876,-5.7261,-5.7188,-5.7188,-5.7188,-5.708,-5.7043,-5.7007,-5.5522,-5.4291,-5.3313,-5.1104,-4.951,-4.8583,-4.7808,-4.7373,-4.7373,-4.7373,-4.7337,-4.7192,-4.7047,-4.6939,-4.6742,-4.6892,-4.7205,-4.7573,-4.8033,-4.8874,-5.0203,-5.1168,-5.041,-4.7378,-4.7036,-4.7416,-4.8262,-4.8983,-4.9779,-5.0727,-5.0854,-5.1223,-5.2202,-5.2422,-5.2526,-5.2768,-5.334,-5.3492,-5.2996,-5.3378,-5.3683,-5.3913,-5.4486,-5.4868,-5.5135,-5.5097,-5.525,-5.5313,-5.539,-5.5046,-5.4407,-5.419,-5.3857,-5.3345,-5.295,-5.3089,-5.2992,-5.3119,-5.3009,-5.2259,-5.2115,-5.2,-5.1741,-5.1395,-5.1587,-5.2626,-5.2385,-5.2346,-5.2808,-5.2818,-5.2702,-5.2626,-5.1972,-5.1318,-7.5936,-7.6005,-7.5936,-7.5364,-7.4433,-7.3247,-7.2446,-7.1889,-7.1553,-7.1255,-7.0951,-7.0589,-6.972,-6.8525,-6.6496,-6.5156,-6.4323,-6.2766,-6.2259,-6.2657,-6.3019,-6.3237,-6.3309,-6.3237,-6.3019,-6.2621,-6.186,-6.1462,-6.139,-6.0665,-6.024,-6.0158,-5.9035,-5.7985,-5.7261,-5.7188,-5.7188,-5.7188,-5.7188,-5.7188,-5.7152,-5.5703,-5.4508,-5.3711,-5.1756,-5.0379,-4.9582,-4.9184,-4.9003,-4.9003,-4.9003,-4.9003,-4.9003,-4.9003,-4.9003,-4.9003,-4.918,-4.9492,-4.9954,-5.0447,-5.102,-5.1764,-5.2163,-5.176,-5.0258,-5.0107,-5.0296,-5.0675,-5.1054,-5.1395,-5.1798,-5.1836,-5.2205,-5.3068,-5.3218,-5.3489,-5.3949,-5.446,-5.4639,-5.4256,-5.4142,-5.4295,-5.4753,-5.4753,-5.4906,-5.525,-5.539,-5.539,-5.539,-5.539,-5.5301,-5.4943,-5.4854,-5.4689,-5.4305,-5.4242,-5.4305,-5.435,-5.4373,-5.4073,-5.3479,-5.328,-5.2895,-5.2154,-5.1895,-5.2356,-5.3164,-5.2933,-5.3049,-5.3626,-5.3472,-5.3241,-5.3087,-5.251,-5.151,-7.5763,-7.5798,-7.5727,-7.5155,-7.4153,-7.3178,-7.2595,-7.2332,-7.1785,-7.1484,-7.1295,-7.0816,-7.016,-6.9316,-6.7293,-6.5881,-6.483,-6.349,-6.3056,-6.3454,-6.3635,-6.3961,-6.4323,-6.3925,-6.3526,-6.3164,-6.2549,-6.2159,-6.1942,-6.1362,-6.0856,-6.0448,-5.9289,-5.8166,-5.7224,-5.7188,-5.7188,-5.7188,-5.7188,-5.7188,-5.7152,-5.5848,-5.4834,-5.4182,-5.2878,-5.1792,-5.1235,-5.1017,-5.0814,-5.0655,-5.0655,-5.0583,-5.0379,-5.0524,-5.0633,-5.0655,-5.0795,-5.1114,-5.1541,-5.2197,-5.2642,-5.2772,-5.2891,-5.2935,-5.2987,-5.2987,-5.2859,-5.2745,-5.2646,-5.276,-5.2935,-5.2783,-5.3025,-5.3859,-5.3912,-5.4186,-5.4936,-5.5273,-5.539,-5.5313,-5.483,-5.4677,-5.5097,-5.483,-5.4753,-5.525,-5.539,-5.539,-5.539,-5.539,-5.539,-5.5403,-5.539,-5.5339,-5.539,-5.5314,-5.5339,-5.5488,-5.5423,-5.501,-5.4523,-5.4413,-5.3769,-5.2423,-5.2385,-5.2818,-5.3087,-5.3164,-5.3587,-5.4395,-5.4318,-5.3818,-5.3587,-5.3126,-5.1779,-7.5657,-7.5763,-7.5621,-7.4977,-7.4119,-7.4222,-7.343,-7.2141,-7.2263,-7.186,-7.1078,-7.1171,-7.0862,-7.0227,-6.9279,-6.7981,-6.6605,-6.5663,-6.4939,-6.4468,-6.5048,-6.5048,-6.4577,-6.5048,-6.4613,-6.3382,-6.3092,-6.2657,-6.2087,-6.1906,-6.1109,-5.9868,-5.9579,-5.8709,-5.7369,-5.7188,-5.7188,-5.7188,-5.7188,-5.7188,-5.7152,-5.6355,-5.5848,-5.5776,-5.4979,-5.4544,-5.4255,-5.3748,-5.3023,-5.2371,-5.2226,-5.19,-5.1357,-5.1864,-5.2263,-5.2249,-5.2327,-5.2601,-5.3128,-5.3756,-5.4084,-5.4274,-5.4443,-5.4564,-5.4602,-5.4617,-5.4352,-5.3783,-5.3556,-5.3859,-5.4503,-5.401,-5.3897,-5.4541,-5.4287,-5.4168,-5.496,-5.5195,-5.5261,-5.539,-5.5237,-5.5326,-5.5326,-5.5237,-5.525,-5.5212,-5.5479,-5.5479,-5.539,-5.5517,-5.5441,-5.5403,-5.5403,-5.5403,-5.5416,-5.5403,-5.539,-5.5427,-5.5401,-5.5155,-5.4737,-5.4436,-5.3909,-5.2885,-5.2192,-5.2626,-5.3049,-5.3241,-5.3818,-5.478,-5.5088,-5.5049,-5.4549,-5.401,-5.2741,-7.537,-7.5442,-7.537,-7.5083,-7.4726,-7.4511,-7.3721,-7.2612,-7.2281,-7.1701,-7.1051,-7.1018,-7.097,-7.0898,-7.0196,-6.9533,-6.885,-6.7619,-6.6858,-6.6496,-6.6424,-6.6134,-6.5844,-6.5627,-6.5229,-6.4541,-6.3635,-6.3019,-6.2693,-6.2259,-6.1208,-5.976,-5.9615,-5.8818,-5.7333,-5.7188,-5.7188,-5.7188,-5.7188,-5.7188,-5.7116,-5.6391,-5.5993,-5.5921,-5.5269,-5.4907,-5.4834,-5.4146,-5.3566,-5.3204,-5.277,-5.2371,-5.2009,-5.2335,-5.248,-5.2539,-5.2627,-5.2879,-5.3322,-5.3757,-5.4127,-5.4282,-5.4549,-5.4761,-5.4845,-5.489,-5.4769,-5.4503,-5.4427,-5.4579,-5.4844,-5.4617,-5.4579,-5.4897,-5.5108,-5.5394,-5.5765,-5.5902,-5.5984,-5.5973,-5.5211,-5.4906,-5.5288,-5.539,-5.5174,-5.4944,-5.5365,-5.5938,-5.5556,-5.5785,-5.5861,-5.5517,-5.539,-5.539,-5.539,-5.539,-5.539,-5.5402,-5.5389,-5.5234,-5.5186,-5.5116,-5.4715,-5.3577,-5.3346,-5.3385,-5.3933,-5.3972,-5.428,-5.4934,-5.4434,-5.3972,-5.3126,-5.2972,-5.201,-7.5225,-7.5225,-7.5225,-7.5225,-7.5153,-7.4798,-7.401,-7.3044,-7.247,-7.1715,-7.0886,-7.0819,-7.0919,-7.1074,-7.0762,-7.0464,-7.0102,-6.9023,-6.8258,-6.7891,-6.7306,-6.6944,-6.672,-6.6148,-6.575,-6.5381,-6.4122,-6.3245,-6.2875,-6.2331,-6.1317,-6.0122,-5.9941,-5.9144,-5.7695,-5.7514,-5.7406,-5.7224,-5.7188,-5.7188,-5.7116,-5.6609,-5.6319,-5.6283,-5.5812,-5.5522,-5.5522,-5.4762,-5.4327,-5.4291,-5.3566,-5.3132,-5.3168,-5.3168,-5.3168,-5.3191,-5.3294,-5.3484,-5.3769,-5.4084,-5.4367,-5.4634,-5.4955,-5.5228,-5.5362,-5.5526,-5.5602,-5.5602,-5.5602,-5.5489,-5.492,-5.492,-5.4996,-5.5261,-5.5928,-5.6299,-5.6572,-5.6735,-5.6678,-5.6401,-5.5565,-5.4855,-5.5262,-5.5352,-5.525,-5.5174,-5.5861,-5.6587,-5.6243,-5.6587,-5.674,-5.6167,-5.5925,-5.5606,-5.5466,-5.539,-5.539,-5.5415,-5.539,-5.5427,-5.5547,-5.552,-5.5274,-5.4145,-5.4408,-5.443,-5.4276,-5.4363,-5.4423,-5.4318,-5.3857,-5.3164,-5.2741,-5.2346,-5.2125,-7.5225,-7.5225,-7.5225,-7.5225,-7.5189,-7.5335,-7.444,-7.2869,-7.2938,-7.2079,-7.0725,-7.0718,-7.0821,-7.0855,-7.0875,-7.0581,-6.9901,-6.9717,-6.8989,-6.7889,-6.7703,-6.7361,-6.6793,-6.6536,-6.6138,-6.5605,-6.4506,-6.3349,-6.2159,-6.2014,-6.158,-6.0747,-6.0675,-5.9905,-5.8492,-5.8275,-5.7949,-5.7261,-5.7188,-5.7188,-5.7188,-5.7152,-5.708,-5.708,-5.708,-5.6971,-5.6935,-5.6283,-5.5848,-5.5884,-5.5088,-5.4725,-5.4725,-5.4725,-5.4689,-5.4725,-5.475,-5.4798,-5.4878,-5.5125,-5.5411,-5.5685,-5.6089,-5.6604,-5.6541,-5.6814,-5.698,-5.7194,-5.7011,-5.6497,-5.5322,-5.5223,-5.5413,-5.6057,-5.6209,-5.6672,-5.7377,-5.7483,-5.7133,-5.6697,-5.6397,-5.5968,-5.5388,-5.5326,-5.581,-5.6167,-5.6549,-5.6855,-5.7428,-5.7695,-5.7734,-5.7491,-5.6916,-5.6202,-5.5568,-5.5364,-5.5377,-5.5352,-5.5313,-5.539,-5.539,-5.5324,-5.4939,-5.4668,-5.4626,-5.4534,-5.4452,-5.4446,-5.443,-5.422,-5.3731,-5.3126,-5.2856,-5.3049,-5.2779,-7.4782,-7.5005,-7.5116,-7.5116,-7.5005,-7.4931,-7.4253,-7.3186,-7.2689,-7.1979,-7.1125,-7.0764,-7.0616,-7.0616,-7.0649,-7.0673,-7.0515,-7.0045,-6.9505,-6.8922,-6.8146,-6.7564,-6.7214,-6.674,-6.6344,-6.5911,-6.4714,-6.3357,-6.2159,-6.2041,-6.158,-6.0955,-6.081,-6.0013,-5.8673,-5.842,-5.8021,-5.7297,-5.7188,-5.7188,-5.7188,-5.7188,-5.7188,-5.7188,-5.7188,-5.7188,-5.7188,-5.6428,-5.5993,-5.6018,-5.5305,-5.4907,-5.4907,-5.4907,-5.4907,-5.4907,-5.4907,-5.4919,-5.5025,-5.5212,-5.5426,-5.5733,-5.6132,-5.6518,-5.6649,-5.6865,-5.7058,-5.7146,-5.7192,-5.6862,-5.6661,-5.6481,-5.6626,-5.6929,-5.746,-5.7854,-5.8151,-5.8311,-5.8205,-5.7931,-5.7505,-5.6878,-5.6363,-5.6532,-5.6801,-5.674,-5.7504,-5.7987,-5.8001,-5.8307,-5.8509,-5.8012,-5.7524,-5.6878,-5.5969,-5.5445,-5.5195,-5.5208,-5.5235,-5.5313,-5.5339,-5.5364,-5.5107,-5.5104,-5.4963,-5.4948,-5.4956,-5.4573,-5.4556,-5.4336,-5.3818,-5.328,-5.3203,-5.3203,-5.2933,-7.4367,-7.4709,-7.5042,-7.5042,-7.4782,-7.4482,-7.3832,-7.3088,-7.2599,-7.1899,-7.1232,-7.0982,-7.0764,-7.0514,-7.0514,-7.0615,-7.0778,-7.0243,-6.9917,-6.9624,-6.8494,-6.7775,-6.742,-6.6726,-6.633,-6.6048,-6.474,-6.3416,-6.2346,-6.204,-6.167,-6.1163,-6.1154,-6.052,-5.9398,-5.918,-5.8709,-5.7804,-5.7587,-5.7478,-5.7261,-5.7188,-5.7188,-5.7188,-5.7188,-5.7188,-5.7188,-5.6645,-5.6391,-5.6319,-5.5884,-5.5667,-5.5667,-5.5631,-5.5631,-5.5631,-5.5667,-5.5655,-5.5716,-5.5813,-5.5978,-5.6218,-5.655,-5.6846,-5.7009,-5.7246,-5.7417,-5.7546,-5.7707,-5.7829,-5.7968,-5.81,-5.8104,-5.7952,-5.8331,-5.8824,-5.9067,-5.9115,-5.8986,-5.8537,-5.7885,-5.7264,-5.689,-5.7239,-5.7396,-5.7201,-5.8306,-5.8687,-5.8687,-5.8916,-5.9221,-5.8597,-5.816,-5.7573,-5.691,-5.6359,-5.5464,-5.528,-5.5369,-5.5401,-5.5479,-5.5479,-5.5466,-5.5477,-5.5476,-5.5511,-5.5301,-5.488,-5.4654,-5.4511,-5.3857,-5.3241,-5.3203,-5.3203,-5.3049,-7.3913,-7.4255,-7.4931,-7.4857,-7.4479,-7.3987,-7.3256,-7.2573,-7.2555,-7.1906,-7.1114,-7.1375,-7.1158,-7.0658,-7.0516,-7.0514,-7.0513,-7.0441,-7.0186,-6.9642,-6.8744,-6.8052,-6.7537,-6.6545,-6.6074,-6.6059,-6.4651,-6.35,-6.2666,-6.2169,-6.1856,-6.1776,-6.1814,-6.1399,-6.0711,-6.052,-5.9905,-5.8637,-5.8275,-5.7949,-5.7297,-5.7188,-5.7188,-5.7188,-5.7261,-5.7297,-5.7261,-5.7188,-5.708,-5.7116,-5.708,-5.7152,-5.7007,-5.7007,-5.708,-5.7007,-5.708,-5.7116,-5.708,-5.7032,-5.7035,-5.7231,-5.7627,-5.7757,-5.784,-5.8138,-5.8425,-5.853,-5.8783,-5.9083,-5.921,-5.942,-5.936,-5.8862,-5.884,-5.9143,-5.9636,-5.9847,-5.9517,-5.861,-5.7893,-5.7288,-5.7196,-5.7413,-5.7737,-5.8186,-5.8581,-5.8846,-5.9203,-5.9468,-5.9772,-5.9512,-5.8812,-5.8038,-5.7725,-5.7351,-5.6257,-5.5412,-5.5517,-5.5621,-5.5845,-5.5898,-5.5746,-5.5708,-5.5503,-5.5502,-5.547,-5.5127,-5.4923,-5.4626,-5.3895,-5.3587,-5.378,-5.3933,-5.3587,-7.3189,-7.3627,-7.4135,-7.4096,-7.3662,-7.3189,-7.2769,-7.2479,-7.2035,-7.1837,-7.1753,-7.1404,-7.1162,-7.1019,-7.0695,-7.0514,-7.0514,-7.0478,-7.0406,-7.0045,-6.8964,-6.8249,-6.7748,-6.6598,-6.5766,-6.5259,-6.4793,-6.3885,-6.2896,-6.2522,-6.2248,-6.1865,-6.1848,-6.1498,-6.0856,-6.0774,-6.0013,-5.8601,-5.842,-5.7985,-5.7261,-5.7188,-5.7188,-5.7261,-5.7732,-5.8021,-5.7985,-5.7478,-5.7188,-5.7224,-5.7188,-5.7188,-5.7188,-5.7188,-5.7188,-5.7188,-5.7188,-5.7188,-5.7188,-5.7224,-5.7311,-5.7424,-5.7619,-5.775,-5.789,-5.8111,-5.8312,-5.8449,-5.8665,-5.8888,-5.912,-5.9345,-5.9523,-5.9528,-5.9522,-5.9528,-5.9777,-5.977,-5.9465,-5.9062,-5.8614,-5.8372,-5.8316,-5.8352,-5.8275,-5.8249,-5.8643,-5.902,-5.8736,-5.9113,-5.9113,-5.8681,-5.8389,-5.8222,-5.7678,-5.7529,-5.7152,-5.6417,-5.6305,-5.6215,-5.6331,-5.6311,-5.612,-5.5845,-5.5645,-5.5477,-5.5446,-5.5362,-5.5209,-5.5203,-5.4934,-5.4857,-5.4895,-5.4703,-5.4395,-7.2305,-7.2651,-7.3189,-7.3148,-7.2769,-7.227,-7.2047,-7.1892,-7.1533,-7.1496,-7.1666,-7.1728,-7.1438,-7.1196,-7.0983,-7.0764,-7.0514,-7.0514,-7.0514,-7.0336,-6.933,-6.8544,-6.7978,-6.6578,-6.5712,-6.5211,-6.4889,-6.4276,-6.3436,-6.3173,-6.2723,-6.2163,-6.2104,-6.18,-6.119,-6.1045,-6.0395,-5.9311,-5.9184,-5.8849,-5.8223,-5.8068,-5.8094,-5.8166,-5.8601,-5.8818,-5.8818,-5.8347,-5.8094,-5.8094,-5.8094,-5.8094,-5.8094,-5.813,-5.8094,-5.8094,-5.8094,-5.813,-5.8094,-5.8166,-5.8119,-5.8221,-5.8296,-5.8371,-5.847,-5.8543,-5.8688,-5.8841,-5.9116,-5.9322,-5.9552,-5.9801,-6.0058,-6.0247,-5.9862,-5.9723,-5.9668,-5.949,-5.9253,-5.897,-5.8793,-5.873,-5.8689,-5.873,-5.8661,-5.8407,-5.8689,-5.8726,-5.8184,-5.8259,-5.8072,-5.7978,-5.7937,-5.7705,-5.732,-5.7496,-5.7937,-5.7565,-5.7246,-5.7062,-5.7021,-5.6876,-5.6686,-5.612,-5.5822,-5.5479,-5.5411,-5.5554,-5.5467,-5.5643,-5.5846,-5.5549,-5.5357,-5.5434,-5.5203,-7.1266,-7.1542,-7.2159,-7.2202,-7.1839,-7.1433,-7.112,-7.0973,-7.1041,-7.1036,-7.1139,-7.1902,-7.1833,-7.1078,-7.1197,-7.0983,-7.0552,-7.041,-7.041,-7.0266,-6.9658,-6.8944,-6.7802,-6.6621,-6.5943,-6.5657,-6.5054,-6.4662,-6.4336,-6.3959,-6.3334,-6.254,-6.2514,-6.2314,-6.1651,-6.1587,-6.1112,-6.0348,-6.0394,-6.0016,-5.9321,-5.9391,-5.947,-5.947,-5.9579,-5.9687,-5.9651,-5.9687,-5.9651,-5.9615,-5.9398,-5.9361,-5.9542,-5.9579,-5.9434,-5.9398,-5.9542,-5.947,-5.9542,-5.9325,-5.9361,-5.9387,-5.9387,-5.9615,-5.9414,-5.9393,-5.9444,-5.9597,-5.9932,-6.021,-6.0374,-6.0589,-6.0766,-6.0794,-6.0162,-5.9665,-5.9422,-5.9344,-5.9275,-5.8937,-5.8662,-5.8422,-5.8312,-5.8341,-5.8375,-5.837,-5.845,-5.819,-5.7749,-5.7563,-5.7452,-5.7373,-5.7311,-5.7397,-5.7137,-5.7751,-5.8145,-5.8161,-5.794,-5.7855,-5.7711,-5.751,-5.7203,-5.6606,-5.6215,-5.5785,-5.577,-5.6134,-5.628,-5.6406,-5.6275,-5.5885,-5.5818,-5.5972,-5.5818,-7.0837,-7.1109,-7.1399,-7.1399,-7.1154,-7.0837,-7.0654,-7.0608,-7.0654,-7.0929,-7.1333,-7.1587,-7.1474,-7.0962,-7.075,-7.0411,-6.999,-6.9991,-7.0167,-7.0236,-7.0232,-6.9015,-6.7588,-6.691,-6.6375,-6.5843,-6.5522,-6.5161,-6.4662,-6.4443,-6.375,-6.2546,-6.2612,-6.2269,-6.1702,-6.1595,-6.1155,-6.048,-6.0436,-6.0123,-5.9592,-5.9501,-5.9509,-5.9651,-6.0168,-6.0448,-6.0557,-6.11,-6.0711,-5.9687,-5.9615,-5.9615,-5.9724,-5.9724,-5.976,-5.976,-5.9687,-5.9651,-5.9651,-5.9687,-5.9651,-5.9615,-5.9796,-5.9615,-5.9615,-5.9615,-5.9667,-5.9797,-5.9965,-6.0187,-6.0298,-6.0504,-6.0599,-6.0558,-6.053,-6.0476,-6.0439,-6.0342,-6.0159,-5.9859,-5.9171,-5.848,-5.7969,-5.775,-5.7661,-5.7551,-5.7729,-5.7898,-5.7457,-5.7051,-5.7057,-5.6624,-5.6522,-5.6846,-5.7236,-5.7906,-5.8323,-5.8496,-5.8512,-5.8575,-5.8425,-5.8261,-5.784,-5.7286,-5.7156,-5.6856,-5.7149,-5.7529,-5.745,-5.7117,-5.7251,-5.7093,-5.6769,-5.6703,-5.628,-7.0283,-7.0456,-7.0561,-7.0561,-7.0456,-7.0236,-7.019,-7.019,-7.019,-7.0469,-7.0963,-7.1256,-7.0908,-7.0325,-7.0288,-6.9802,-6.9155,-6.9417,-6.9742,-6.992,-7.0096,-6.9277,-6.7925,-6.7178,-6.6503,-6.6076,-6.5785,-6.549,-6.5165,-6.5126,-6.4407,-6.3571,-6.3035,-6.2523,-6.1931,-6.153,-6.1207,-6.0777,-6.0734,-6.0567,-6.0256,-6.0303,-6.0358,-6.0512,-6.0964,-6.1236,-6.1362,-6.1725,-6.1507,-6.081,-6.0629,-6.0602,-6.0602,-6.0593,-6.0629,-6.0602,-6.0629,-6.0629,-6.0629,-6.0602,-6.0629,-6.0629,-6.0629,-6.0629,-6.0665,-6.0629,-6.0656,-6.0772,-6.0778,-6.0893,-6.0944,-6.1047,-6.1073,-6.1171,-6.1312,-6.1248,-6.0845,-6.0545,-6.0394,-6.003,-5.9346,-5.8578,-5.7933,-5.7642,-5.7547,-5.7653,-5.7807,-5.7707,-5.7446,-5.7056,-5.6799,-5.6616,-5.6565,-5.7065,-5.7551,-5.8127,-5.8275,-5.8471,-5.8519,-5.8719,-5.878,-5.867,-5.8333,-5.7952,-5.7977,-5.8029,-5.817,-5.8209,-5.7914,-5.7798,-5.8127,-5.8123,-5.7662,-5.7351,-5.689,-6.9798,-6.9798,-6.9798,-6.9798,-6.9846,-6.9798,-6.9846,-6.9798,-6.9846,-6.9988,-7.033,-7.0849,-7.0429,-6.9271,-6.9749,-6.9394,-6.8284,-6.8787,-6.927,-6.9525,-6.9635,-6.9176,-6.8363,-6.7305,-6.6562,-6.6206,-6.5736,-6.5682,-6.5633,-6.5732,-6.534,-6.4479,-6.3801,-6.3086,-6.2295,-6.1623,-6.1236,-6.1081,-6.1098,-6.1149,-6.1099,-6.1186,-6.1271,-6.1356,-6.1504,-6.1732,-6.1814,-6.1978,-6.1933,-6.2005,-6.2041,-6.1833,-6.1897,-6.1942,-6.1906,-6.1833,-6.1752,-6.1824,-6.1906,-6.1761,-6.1869,-6.1824,-6.186,-6.2041,-6.1824,-6.1752,-6.1752,-6.1716,-6.2005,-6.1815,-6.1779,-6.1888,-6.1661,-6.1507,-6.1661,-6.122,-6.0626,-6.0347,-6.0332,-6.0158,-5.9412,-5.8951,-5.8526,-5.8224,-5.8007,-5.8567,-5.8604,-5.847,-5.8213,-5.787,-5.7624,-5.7377,-5.74,-5.7496,-5.7946,-5.8419,-5.8326,-5.8327,-5.8275,-5.8406,-5.8632,-5.8595,-5.8535,-5.845,-5.8661,-5.8649,-5.8543,-5.8446,-5.836,-5.8527,-5.8911,-5.863,-5.8221,-5.7963,-5.7592,-6.9798,-6.9798,-6.9798,-6.9798,-6.9798,-6.9798,-6.9798,-6.9798,-6.9798,-6.9941,-7.0223,-7.0515,-6.9917,-6.8827,-6.904,-6.8641,-6.7713,-6.8128,-6.8705,-6.9305,-6.9045,-6.8711,-6.8214,-6.7531,-6.6881,-6.6181,-6.6001,-6.5916,-6.5853,-6.5736,-6.5411,-6.4666,-6.4314,-6.3663,-6.2485,-6.2169,-6.17,-6.1236,-6.1224,-6.1319,-6.1371,-6.14,-6.1516,-6.1595,-6.17,-6.1784,-6.184,-6.1923,-6.1978,-6.2041,-6.2041,-6.2041,-6.2041,-6.2041,-6.2041,-6.2041,-6.2041,-6.2041,-6.2041,-6.2041,-6.2041,-6.2041,-6.2041,-6.2041,-6.2041,-6.2041,-6.2041,-6.2041,-6.2041,-6.2041,-6.1942,-6.1426,-6.1208,-6.1073,-6.0629,-6.0148,-6.0036,-6.0824,-6.1234,-6.1243,-6.0673,-6.0076,-5.9486,-5.9232,-5.9201,-5.951,-5.9513,-5.9429,-5.9139,-5.8738,-5.8335,-5.8004,-5.7881,-5.7977,-5.8584,-5.8814,-5.8492,-5.8244,-5.8156,-5.8201,-5.8402,-5.8598,-5.8577,-5.8947,-5.9446,-5.9289,-5.8958,-5.9359,-5.9393,-5.955,-5.9578,-5.9248,-5.8932,-5.8654,-5.8336,-6.9798,-6.9798,-6.9798,-6.9798,-6.9798,-6.9798,-6.9798,-6.9798,-6.9798,-6.9893,-6.9988,-7.0129,-6.9436,-6.8226,-6.8272,-6.7722,-6.7007,-6.7325,-6.8009,-6.8443,-6.825,-6.7856,-6.7495,-6.7319,-6.6734,-6.6192,-6.5898,-6.5896,-6.5947,-6.572,-6.5332,-6.487,-6.455,-6.4017,-6.3195,-6.2866,-6.2567,-6.2342,-6.2164,-6.2081,-6.1819,-6.1748,-6.1586,-6.1516,-6.1615,-6.1736,-6.182,-6.1959,-6.2014,-6.2041,-6.2041,-6.2041,-6.2041,-6.2041,-6.2041,-6.2041,-6.2041,-6.2041,-6.2041,-6.2041,-6.2041,-6.2041,-6.2041,-6.2041,-6.2041,-6.2041,-6.2041,-6.2041,-6.2041,-6.2005,-6.1942,-6.1254,-6.0883,-6.0665,-6.0122,-5.9651,-5.976,-6.0385,-6.1064,-6.1136,-6.0593,-6.0339,-6.0086,-6.0013,-6.0092,-6.0223,-5.9812,-5.9754,-6.0001,-5.9565,-5.8957,-5.8591,-5.8359,-5.8516,-5.9161,-5.9208,-5.8694,-5.8373,-5.8065,-5.8133,-5.8275,-5.8498,-5.8673,-5.9027,-5.9341,-5.9516,-5.9387,-5.9836,-6.0,-5.9863,-5.9726,-5.9718,-5.9481,-5.8963,-5.8706,-6.9798,-6.9798,-6.9798,-6.9798,-6.9798,-6.9798,-6.9798,-6.9798,-6.9798,-6.9798,-6.9798,-6.9798,-6.9097,-6.7877,-6.7658,-6.6965,-6.6343,-6.6652,-6.7407,-6.7696,-6.7454,-6.7086,-6.6753,-6.6609,-6.6581,-6.6666,-6.6072,-6.5966,-6.5966,-6.5677,-6.5255,-6.5006,-6.4478,-6.4018,-6.3836,-6.3609,-6.3231,-6.3168,-6.3127,-6.2842,-6.2337,-6.2194,-6.1932,-6.1442,-6.1501,-6.168,-6.1792,-6.1895,-6.2041,-6.2041,-6.2041,-6.2041,-6.2041,-6.2041,-6.2041,-6.2041,-6.2041,-6.2041,-6.2041,-6.2041,-6.2041,-6.2041,-6.2041,-6.2041,-6.2041,-6.2041,-6.2041,-6.2041,-6.2041,-6.2041,-6.1969,-6.1281,-6.0883,-6.0665,-6.0086,-5.9687,-5.9615,-5.9615,-6.0122,-6.0665,-6.0665,-6.0484,-6.0629,-6.0701,-6.0781,-6.0798,-6.0389,-6.0186,-6.0471,-6.034,-5.9734,-5.9407,-5.9249,-5.9115,-5.9711,-5.9905,-5.9355,-5.8951,-5.8437,-5.847,-5.8612,-5.9028,-5.927,-5.8821,-5.9007,-5.9197,-5.9417,-5.9575,-5.9677,-5.9765,-5.9744,-5.9576,-5.9382,-5.9149,-5.9033,-6.9798,-6.9798,-6.9798,-6.9798,-6.9798,-6.9798,-6.9798,-6.9798,-6.9798,-6.9798,-6.9798,-6.9765,-6.9003,-6.7864,-6.7566,-6.6977,-6.6276,-6.6397,-6.6694,-6.6912,-6.6736,-6.644,-6.6235,-6.6182,-6.621,-6.6196,-6.6016,-6.599,-6.5897,-6.5584,-6.5163,-6.4741,-6.4427,-6.4077,-6.3722,-6.3639,-6.3618,-6.3582,-6.3503,-6.3177,-6.2607,-6.2317,-6.2062,-6.1438,-6.1601,-6.1702,-6.1744,-6.1904,-6.2041,-6.2041,-6.2041,-6.2041,-6.2041,-6.2041,-6.2041,-6.2041,-6.2041,-6.2041,-6.2041,-6.2041,-6.2041,-6.2041,-6.2041,-6.2041,-6.2041,-6.2041,-6.2041,-6.2041,-6.2041,-6.2005,-6.1978,-6.1281,-6.0883,-6.0629,-6.0158,-5.9615,-5.9615,-5.9651,-5.9941,-6.0629,-6.0665,-6.081,-6.11,-6.1317,-6.138,-6.1444,-6.1289,-6.1144,-6.1306,-6.1032,-6.0441,-6.0289,-6.0234,-6.0164,-6.0261,-6.0322,-6.0126,-5.9832,-5.9465,-5.9391,-5.9585,-5.9953,-5.9955,-5.9233,-5.8867,-5.8957,-5.9118,-5.9253,-5.9308,-5.9382,-5.94,-5.94,-5.923,-5.9022,-5.9238,-6.9798,-6.9798,-6.9798,-6.9798,-6.9798,-6.9798,-6.9798,-6.9798,-6.9798,-6.9798,-6.9798,-6.9732,-6.9003,-6.7897,-6.7566,-6.692,-6.6079,-6.5867,-6.5999,-6.6009,-6.5999,-6.5878,-6.5746,-6.5746,-6.5746,-6.5778,-6.5883,-6.6159,-6.6185,-6.5426,-6.494,-6.463,-6.4247,-6.3795,-6.3623,-6.3799,-6.3966,-6.3948,-6.3975,-6.3621,-6.291,-6.2718,-6.2346,-6.2281,-6.2057,-6.2083,-6.2127,-6.1901,-6.1959,-6.1978,-6.2041,-6.2041,-6.2041,-6.2041,-6.2041,-6.2041,-6.2041,-6.2041,-6.2041,-6.2041,-6.2041,-6.2041,-6.2041,-6.2041,-6.2041,-6.2041,-6.2041,-6.2041,-6.2041,-6.2041,-6.2005,-6.1254,-6.0856,-6.0665,-6.0158,-5.976,-5.9651,-5.9651,-6.0158,-6.0738,-6.0774,-6.11,-6.1716,-6.1897,-6.1969,-6.2041,-6.2041,-6.2041,-6.2041,-6.1308,-6.06,-6.0482,-6.0343,-6.0408,-6.0481,-6.0725,-6.086,-6.0639,-6.0382,-6.0272,-6.0346,-6.0603,-6.0026,-5.9232,-5.8984,-5.9174,-5.8693,-5.8808,-5.8868,-5.8984,-5.8967,-5.8967,-5.8967,-5.9006,-5.9159,-6.9798,-6.9798,-6.9798,-6.9798,-6.9798,-6.9798,-6.9798,-6.9798,-6.9798,-6.9798,-6.9798,-6.9732,-6.897,-6.7844,-6.7135,-6.6452,-6.5425,-6.547,-6.547,-6.5481,-6.5514,-6.5425,-6.5425,-6.5425,-6.547,-6.5526,-6.5713,-6.6078,-6.612,-6.546,-6.4778,-6.4195,-6.3717,-6.3374,-6.3311,-6.3432,-6.4004,-6.4323,-6.4428,-6.4008,-6.3411,-6.3009,-6.2878,-6.303,-6.2729,-6.2498,-6.2478,-6.2097,-6.1912,-6.1923,-6.1978,-6.2041,-6.2041,-6.2041,-6.2041,-6.2041,-6.2041,-6.2041,-6.2041,-6.2041,-6.2041,-6.2041,-6.2041,-6.2041,-6.2041,-6.2041,-6.2041,-6.2041,-6.2041,-6.2041,-6.1933,-6.1435,-6.1145,-6.1027,-6.0629,-6.0158,-6.0267,-6.0412,-6.0638,-6.0964,-6.0991,-6.1317,-6.1897,-6.2041,-6.2041,-6.2041,-6.2041,-6.2041,-6.1897,-6.0955,-6.0382,-6.0289,-6.0247,-6.0359,-6.0604,-6.1092,-6.1337,-6.1447,-6.1153,-6.0933,-6.1006,-6.1117,-6.0443,-5.9976,-5.994,-5.9992,-5.9183,-5.8428,-5.8577,-5.8661,-5.8582,-5.8582,-5.8661,-5.8681,-5.8747,-6.9798,-6.9798,-6.9798,-6.9798,-6.9798,-6.9798,-6.9798,-6.9798,-6.9798,-6.9798,-6.9798,-6.9732,-6.9003,-6.7645,-6.6254,-6.5657,-6.5459,-6.5425,-6.5425,-6.5425,-6.5425,-6.5425,-6.5425,-6.5425,-6.5425,-6.5425,-6.5647,-6.5703,-6.5722,-6.535,-6.4613,-6.382,-6.3441,-6.295,-6.2756,-6.2817,-6.3052,-6.3464,-6.3574,-6.33,-6.2821,-6.2575,-6.2666,-6.2743,-6.2724,-6.2696,-6.2719,-6.2379,-6.2045,-6.1993,-6.2031,-6.2014,-6.2041,-6.2041,-6.2041,-6.2041,-6.2041,-6.2041,-6.2041,-6.2041,-6.2041,-6.2041,-6.2041,-6.2041,-6.2041,-6.2041,-6.2041,-6.2041,-6.2041,-6.2041,-6.2041,-6.1897,-6.186,-6.1788,-6.1534,-6.1462,-6.1534,-6.1064,-6.1326,-6.1435,-6.1534,-6.1679,-6.2041,-6.2041,-6.2041,-6.2041,-6.2041,-6.2041,-6.1788,-6.0946,-6.0175,-6.0092,-6.0539,-6.0725,-6.0799,-6.1288,-6.1643,-6.201,-6.1741,-6.1484,-6.1741,-6.1814,-6.1741,-6.1398,-6.119,-6.0443,-5.9394,-5.8733,-5.8526,-5.8511,-5.8659,-5.8585,-5.84,-5.8422,-5.8369,-6.9401,-6.9798,-6.9798,-6.9798,-6.9798,-6.9798,-6.9798,-6.9798,-6.9798,-6.9798,-6.9798,-6.9798,-6.897,-6.7546,-6.6088,-6.5425,-6.5425,-6.5425,-6.5425,-6.5425,-6.5425,-6.5425,-6.5425,-6.5425,-6.5425,-6.5425,-6.5481,-6.5504,-6.5397,-6.521,-6.4732,-6.4236,-6.3381,-6.2885,-6.2461,-6.2324,-6.2469,-6.2672,-6.2787,-6.2802,-6.2795,-6.292,-6.3171,-6.3584,-6.3406,-6.3436,-6.3433,-6.3179,-6.2983,-6.299,-6.2851,-6.261,-6.2521,-6.2295,-6.2041,-6.2041,-6.2041,-6.2041,-6.2041,-6.2041,-6.2041,-6.2041,-6.2041,-6.2041,-6.2041,-6.2041,-6.2041,-6.2041,-6.2041,-6.2041,-6.2041,-6.2041,-6.2041,-6.2041,-6.2041,-6.2041,-6.2041,-6.2041,-6.1897,-6.2005,-6.2041,-6.2041,-6.2041,-6.2041,-6.2041,-6.2041,-6.2041,-6.2041,-6.1779,-6.1253,-6.0518,-5.987,-6.0573,-6.1249,-6.1263,-6.1483,-6.1838,-6.2083,-6.1789,-6.1753,-6.2401,-6.2585,-6.234,-6.1998,-6.152,-6.0651,-5.9595,-5.9324,-5.932,-5.9099,-5.8833,-5.862,-5.8385,-5.8179,-5.8164,-6.9003,-6.9533,-6.9732,-6.9798,-6.9798,-6.9798,-6.9798,-6.9798,-6.9798,-6.9798,-6.9666,-6.9401,-6.8572,-6.7512,-6.6187,-6.5425,-6.5425,-6.5425,-6.5425,-6.5425,-6.5425,-6.5425,-6.5425,-6.5425,-6.5425,-6.5425,-6.5425,-6.5404,-6.536,-6.5203,-6.5044,-6.4862,-6.3884,-6.3041,-6.2623,-6.2271,-6.2139,-6.1957,-6.1997,-6.2122,-6.2407,-6.2867,-6.3356,-6.3762,-6.4004,-6.4079,-6.4262,-6.3929,-6.3771,-6.371,-6.3271,-6.296,-6.2936,-6.2412,-6.205,-6.2041,-6.2041,-6.2041,-6.2041,-6.2041,-6.2041,-6.2041,-6.2041,-6.2041,-6.2041,-6.2041,-6.2041,-6.2041,-6.2041,-6.2041,-6.2041,-6.2041,-6.2041,-6.2041,-6.2041,-6.2041,-6.2041,-6.2041,-6.2041,-6.2041,-6.2041,-6.2041,-6.2041,-6.2041,-6.2041,-6.2041,-6.2041,-6.2041,-6.1779,-6.147,-6.1171,-6.058,-6.0965,-6.1573,-6.1332,-6.1517,-6.1922,-6.2033,-6.174,-6.1752,-6.2167,-6.2522,-6.251,-6.2132,-6.1826,-6.163,-6.1091,-6.0627,-6.0162,-5.9488,-5.8947,-5.8644,-5.8387,-5.818,-5.8093,-6.8705,-6.8837,-6.9467,-6.9765,-6.9798,-6.9798,-6.9798,-6.9798,-6.9798,-6.9798,-6.9633,-6.8506,-6.7831,-6.7235,-6.622,-6.5425,-6.5425,-6.5425,-6.5425,-6.5425,-6.5425,-6.5425,-6.5425,-6.5425,-6.5425,-6.5425,-6.5425,-6.5425,-6.5392,-6.5337,-6.4951,-6.4453,-6.4208,-6.3401,-6.2771,-6.2399,-6.1833,-6.1509,-6.1375,-6.1458,-6.1716,-6.2156,-6.2668,-6.3028,-6.3344,-6.3578,-6.3882,-6.393,-6.3979,-6.407,-6.3566,-6.3315,-6.33,-6.2699,-6.2393,-6.2385,-6.2349,-6.2385,-6.2376,-6.2186,-6.2041,-6.2041,-6.2041,-6.2041,-6.2041,-6.2041,-6.2041,-6.2041,-6.2041,-6.2041,-6.2041,-6.2041,-6.2041,-6.2041,-6.2041,-6.2041,-6.2041,-6.2041,-6.2041,-6.2041,-6.2041,-6.2041,-6.2041,-6.2041,-6.2041,-6.2041,-6.2041,-6.2041,-6.2041,-6.1815,-6.1851,-6.1661,-6.1805,-6.1802,-6.1246,-6.1324,-6.1587,-6.1638,-6.1455,-6.1405,-6.1598,-6.1942,-6.2544,-6.2533,-6.2327,-6.2425,-6.2413,-6.1643,-6.0762,-5.9698,-5.9148,-5.9281,-5.9024,-5.8767,-5.8547,-6.7612,-6.8076,-6.8341,-6.897,-6.9798,-6.9798,-6.9798,-6.9798,-6.9798,-6.9798,-6.9699,-6.8341,-6.7566,-6.7168,-6.6154,-6.5425,-6.5425,-6.5425,-6.5425,-6.5425,-6.5425,-6.5425,-6.5425,-6.5425,-6.5425,-6.5425,-6.5425,-6.5425,-6.5425,-6.5425,-6.5326,-6.4995,-6.463,-6.4167,-6.3547,-6.2652,-6.1848,-6.1351,-6.1119,-6.1244,-6.1424,-6.1716,-6.2195,-6.2676,-6.3543,-6.3973,-6.4384,-6.4799,-6.4974,-6.4911,-6.4387,-6.4154,-6.3991,-6.343,-6.3156,-6.314,-6.314,-6.3197,-6.31,-6.2657,-6.2041,-6.2041,-6.2041,-6.2078,-6.2186,-6.205,-6.2041,-6.2041,-6.2114,-6.2223,-6.205,-6.2041,-6.2041,-6.2041,-6.2114,-6.2186,-6.2259,-6.2367,-6.2367,-6.2512,-6.2223,-6.2041,-6.2041,-6.2041,-6.2041,-6.2041,-6.2041,-6.2041,-6.2041,-6.2041,-6.2041,-6.2005,-6.2114,-6.2023,-6.1468,-6.1319,-6.124,-6.1167,-6.1131,-6.1287,-6.1433,-6.2088,-6.2592,-6.2654,-6.2679,-6.2657,-6.2523,-6.2193,-6.1496,-6.0639,-6.0382,-6.0419,-6.0015,-5.9355,-5.9208,-6.6771,-6.7268,-6.7466,-6.8208,-6.9103,-6.9136,-6.9268,-6.9467,-6.9434,-6.9633,-6.9666,-6.8307,-6.7566,-6.7168,-6.6121,-6.5425,-6.5425,-6.5425,-6.5425,-6.5425,-6.5425,-6.5425,-6.5425,-6.5425,-6.5425,-6.5425,-6.5425,-6.5425,-6.5425,-6.5425,-6.5359,-6.5227,-6.4962,-6.463,-6.4034,-6.3173,-6.2146,-6.1583,-6.1459,-6.1293,-6.1401,-6.1424,-6.175,-6.2358,-6.3245,-6.4006,-6.4531,-6.5068,-6.5657,-6.5533,-6.5197,-6.49,-6.4674,-6.4441,-6.4033,-6.4014,-6.4101,-6.4195,-6.3956,-6.3498,-6.273,-6.2947,-6.2911,-6.2838,-6.2693,-6.2693,-6.2947,-6.2875,-6.2802,-6.2693,-6.2693,-6.2911,-6.2983,-6.3128,-6.3092,-6.3164,-6.3128,-6.3164,-6.3056,-6.3056,-6.2838,-6.2802,-6.2295,-6.2295,-6.2041,-6.2041,-6.2041,-6.2041,-6.2041,-6.2041,-6.2041,-6.2005,-6.206,-6.1933,-6.1742,-6.1396,-6.1022,-6.0622,-6.0695,-6.1194,-6.1537,-6.2131,-6.25,-6.2449,-6.2526,-6.2679,-6.262,-6.2425,-6.2083,-6.163,-6.13,-6.086,-6.0493,-5.9905,-6.0052,-6.6473,-6.6573,-6.7235,-6.7533,-6.7632,-6.7665,-6.8109,-6.8705,-6.8804,-6.9169,-6.9566,-6.8274,-6.7566,-6.7235,-6.6055,-6.5459,-6.5425,-6.5425,-6.5425,-6.5425,-6.5425,-6.5425,-6.5425,-6.5425,-6.5425,-6.5425,-6.5425,-6.5425,-6.5425,-6.5425,-6.5425,-6.5425,-6.5227,-6.4962,-6.4365,-6.3637,-6.2917,-6.2288,-6.2188,-6.1857,-6.1558,-6.1501,-6.1791,-6.2199,-6.3106,-6.3887,-6.4217,-6.508,-6.551,-6.5501,-6.5094,-6.4836,-6.4791,-6.4373,-6.4136,-6.416,-6.42,-6.4216,-6.4166,-6.4274,-6.4222,-6.4033,-6.378,-6.3889,-6.4142,-6.4178,-6.4033,-6.3744,-6.3961,-6.407,-6.4215,-6.4215,-6.407,-6.3997,-6.3925,-6.3889,-6.3816,-6.378,-6.3671,-6.3599,-6.3889,-6.3997,-6.3164,-6.2585,-6.215,-6.2041,-6.2041,-6.2041,-6.2041,-6.2041,-6.2041,-6.2005,-6.2033,-6.1888,-6.1697,-6.1235,-6.0801,-6.0366,-6.0465,-6.1171,-6.1524,-6.1921,-6.2192,-6.2238,-6.2423,-6.2654,-6.2679,-6.2668,-6.2352,-6.2034,-6.1337,-6.086,-6.0603,-6.0639,-6.0896,-6.579,-6.579,-6.601,-6.6154,-6.6242,-6.7202,-6.7777,-6.8042,-6.8473,-6.9103,-6.9368,-6.8241,-6.7566,-6.7102,-6.6187,-6.5425,-6.5425,-6.5425,-6.5425,-6.5425,-6.5425,-6.5425,-6.5425,-6.5425,-6.5425,-6.5425,-6.5425,-6.5425,-6.5425,-6.5425,-6.5425,-6.5425,-6.5359,-6.5028,-6.4531,-6.4078,-6.368,-6.3083,-6.2917,-6.2818,-6.2543,-6.252,-6.2456,-6.2479,-6.3305,-6.3755,-6.3818,-6.4672,-6.5013,-6.508,-6.4652,-6.4718,-6.485,-6.4586,-6.4813,-6.5037,-6.5223,-6.5412,-6.5538,-6.5616,-6.5258,-6.4845,-6.4541,-6.4577,-6.4432,-6.4396,-6.4396,-6.4468,-6.4613,-6.4577,-6.4359,-6.4359,-6.4287,-6.4287,-6.4251,-6.4251,-6.4215,-6.4215,-6.4178,-6.4142,-6.4323,-6.4106,-6.349,-6.3056,-6.2657,-6.2331,-6.2331,-6.2114,-6.2014,-6.2041,-6.2041,-6.2041,-6.2005,-6.1897,-6.1652,-6.1435,-6.139,-6.1208,-6.1245,-6.1634,-6.1915,-6.1933,-6.2023,-6.2185,-6.2397,-6.2603,-6.2629,-6.2654,-6.2682,-6.2328,-6.1789,-6.1606,-6.1704,-6.1851,-6.2144,-6.5425,-6.5425,-6.5425,-6.5425,-6.5558,-6.6452,-6.6982,-6.738,-6.8241,-6.897,-6.9036,-6.8142,-6.7566,-6.7135,-6.6187,-6.5425,-6.5425,-6.5425,-6.5425,-6.5425,-6.5425,-6.5425,-6.5425,-6.5425,-6.5425,-6.5425,-6.5425,-6.5425,-6.5425,-6.5425,-6.5425,-6.5425,-6.5392,-6.5194,-6.4862,-6.4664,-6.4365,-6.3835,-6.3603,-6.3514,-6.3315,-6.3192,-6.3145,-6.3174,-6.3491,-6.3674,-6.3755,-6.396,-6.4253,-6.4253,-6.4253,-6.4358,-6.4567,-6.4876,-6.511,-6.5442,-6.5863,-6.5981,-6.6161,-6.6253,-6.5796,-6.5402,-6.52,-6.5229,-6.5229,-6.541,-6.5374,-6.5337,-6.5156,-6.5192,-6.5192,-6.512,-6.5084,-6.512,-6.512,-6.5156,-6.5192,-6.5229,-6.5229,-6.5156,-6.4939,-6.4541,-6.3997,-6.3563,-6.32,-6.2911,-6.2657,-6.2404,-6.2087,-6.2014,-6.2041,-6.2041,-6.2041,-6.1942,-6.1906,-6.1897,-6.1897,-6.2005,-6.2005,-6.1978,-6.2005,-6.1987,-6.2078,-6.2132,-6.2291,-6.2423,-6.25,-6.2541,-6.2556,-6.2606,-6.2485,-6.251,-6.278,-6.2805,-6.2805,-6.5425,-6.5425,-6.5425,-6.5425,-6.5425,-6.5558,-6.5922,-6.6606,-6.7976,-6.8606,-6.8672,-6.791,-6.7499,-6.7268,-6.6088,-6.5459,-6.5425,-6.5425,-6.5425,-6.5425,-6.5425,-6.5425,-6.5425,-6.5425,-6.5425,-6.5425,-6.5425,-6.5425,-6.5425,-6.5425,-6.5425,-6.5425,-6.5425,-6.5326,-6.526,-6.516,-6.4862,-6.4498,-6.4365,-6.4167,-6.3902,-6.368,-6.3743,-6.3718,-6.3639,-6.3571,-6.3524,-6.3501,-6.342,-6.339,-6.339,-6.3572,-6.3826,-6.4288,-6.4601,-6.5043,-6.5636,-6.5958,-6.6177,-6.6243,-6.63,-6.6019,-6.6378,-6.6618,-6.6605,-6.6351,-6.6279,-6.6315,-6.6279,-6.646,-6.6569,-6.6533,-6.646,-6.646,-6.646,-6.6496,-6.6533,-6.6533,-6.6496,-6.6424,-6.6243,-6.5808,-6.512,-6.4577,-6.3852,-6.3563,-6.3237,-6.273,-6.244,-6.205,-6.2014,-6.2041,-6.2041,-6.2041,-6.2041,-6.2041,-6.2041,-6.2041,-6.2041,-6.2005,-6.2005,-6.2005,-6.2033,-6.2087,-6.2132,-6.2238,-6.2397,-6.2475,-6.2475,-6.2552,-6.2629,-6.2705,-6.2755,-6.278,-6.2805,-6.5425,-6.5425,-6.5425,-6.5425,-6.5425,-6.5425,-6.5823,-6.6552,-6.7016,-6.7645,-6.8606,-6.738,-6.7102,-6.7446,-6.6088,-6.5558,-6.5425,-6.5425,-6.5425,-6.5425,-6.5425,-6.5425,-6.5425,-6.5425,-6.5425,-6.5425,-6.5425,-6.5425,-6.5425,-6.5425,-6.5425,-6.5425,-6.5425,-6.5425,-6.5425,-6.5425,-6.5227,-6.5094,-6.5028,-6.4829,-6.473,-6.4597,-6.4563,-6.4324,-6.3911,-6.374,-6.3343,-6.291,-6.2731,-6.2629,-6.2629,-6.2783,-6.3162,-6.3606,-6.404,-6.5078,-6.5442,-6.5704,-6.5931,-6.6021,-6.6115,-6.6238,-6.6421,-6.6668,-6.6727,-6.6822,-6.6822,-6.6822,-6.6822,-6.6822,-6.6822,-6.6822,-6.6822,-6.6822,-6.6822,-6.6822,-6.6822,-6.6822,-6.6822,-6.675,-6.6605,-6.6279,-6.5663,-6.5192,-6.4504,-6.4215,-6.3852,-6.3418,-6.2802,-6.2404,-6.2014,-6.2041,-6.2041,-6.2041,-6.2041,-6.2041,-6.2041,-6.2041,-6.2041,-6.2041,-6.2005,-6.2005,-6.2041,-6.2033,-6.2114,-6.2212,-6.237,-6.237,-6.2381,-6.25,-6.2603,-6.2679,-6.2755,-6.278,-6.278,-6.4763,-6.4995,-6.4995,-6.5127,-6.5392,-6.5425,-6.569,-6.6088,-6.6386,-6.7082,-6.7645,-6.6916,-6.6784,-6.6916,-6.5989,-6.5425,-6.5425,-6.5425,-6.5425,-6.5425,-6.5425,-6.5425,-6.5425,-6.5425,-6.5425,-6.5425,-6.5425,-6.5425,-6.5425,-6.5425,-6.5425,-6.5425,-6.5425,-6.5425,-6.5425,-6.5425,-6.5425,-6.5392,-6.5392,-6.5425,-6.5425,-6.5425,-6.5216,-6.4906,-6.4391,-6.3818,-6.3208,-6.2635,-6.2166,-6.1897,-6.183,-6.1957,-6.243,-6.2897,-6.3788,-6.4704,-6.5145,-6.5477,-6.5736,-6.5863,-6.5958,-6.6052,-6.6172,-6.6391,-6.6638,-6.6727,-6.6793,-6.6822,-6.6822,-6.6822,-6.6822,-6.6822,-6.6822,-6.6822,-6.6822,-6.6822,-6.6822,-6.6822,-6.6786,-6.675,-6.6569,-6.6315,-6.5917,-6.5482,-6.5337,-6.5337,-6.5084,-6.4577,-6.3708,-6.2766,-6.2295,-6.2041,-6.2041,-6.2041,-6.2041,-6.2041,-6.2041,-6.2041,-6.2041,-6.2041,-6.2041,-6.2041,-6.2041,-6.2005,-6.206,-6.2168,-6.2248,-6.2248,-6.2248,-6.2407,-6.25,-6.2552,-6.2629,-6.2755,-6.278,-6.3746,-6.4299,-6.4299,-6.4763,-6.5359,-6.5425,-6.5425,-6.5492,-6.6043,-6.6485,-6.6585,-6.6452,-6.6374,-6.6485,-6.5757,-6.5425,-6.5425,-6.5425,-6.5425,-6.5425,-6.5425,-6.5425,-6.5425,-6.5425,-6.5425,-6.5425,-6.5425,-6.5425,-6.5425,-6.5425,-6.5425,-6.5425,-6.5425,-6.5425,-6.5425,-6.5425,-6.5425,-6.5425,-6.5425,-6.5425,-6.5425,-6.5425,-6.5392,-6.526,-6.4708,-6.4088,-6.3391,-6.2652,-6.1881,-6.1459,-6.1202,-6.1293,-6.1958,-6.243,-6.3459,-6.4252,-6.4776,-6.5145,-6.551,-6.5704,-6.5832,-6.5927,-6.5985,-6.6207,-6.6391,-6.6638,-6.6697,-6.6793,-6.6822,-6.6822,-6.6822,-6.6822,-6.6822,-6.6822,-6.6822,-6.6822,-6.6822,-6.6822,-6.6786,-6.675,-6.6714,-6.6496,-6.646,-6.6098,-6.6025,-6.6279,-6.5953,-6.5374,-6.4649,-6.3454,-6.2838,-6.2295,-6.2041,-6.2041,-6.2041,-6.2041,-6.2041,-6.2041,-6.2041,-6.2041,-6.2041,-6.2041,-6.2041,-6.2005,-6.2033,-6.2005,-6.206,-6.2087,-6.2141,-6.2248,-6.2318,-6.237,-6.25,-6.2654,-6.2755,-6.3372,-6.3603,-6.4133,-6.4763,-6.5359,-6.5425,-6.5392,-6.5425,-6.5591,-6.6022,-6.6308,-6.6022,-6.5989,-6.6287,-6.5724,-6.5425,-6.5425,-6.5425,-6.5425,-6.5425,-6.5425,-6.5425,-6.5425,-6.5425,-6.5425,-6.5425,-6.5425,-6.5425,-6.5425,-6.5425,-6.5425,-6.5425,-6.5425,-6.5425,-6.5425,-6.5425,-6.5425,-6.5425,-6.5425,-6.5425,-6.5425,-6.5425,-6.5392,-6.5227,-6.4763,-6.4399,-6.3703,-6.2917,-6.2387,-6.1923,-6.1351,-6.1659,-6.2431,-6.2618,-6.3349,-6.4265,-6.4531,-6.4846,-6.5178,-6.5477,-6.564,-6.5867,-6.5927,-6.6021,-6.6207,-6.6421,-6.6608,-6.6697,-6.6793,-6.6793,-6.6793,-6.6793,-6.6793,-6.6793,-6.6793,-6.6793,-6.6793,-6.6822,-6.6822,-6.6822,-6.6822,-6.6822,-6.6822,-6.6822,-6.6822,-6.6496,-6.5953,-6.5446,-6.5084,-6.4215,-6.3635,-6.3056,-6.2195,-6.205,-6.2041,-6.2041,-6.2041,-6.2041,-6.2041,-6.2041,-6.2041,-6.2041,-6.2041,-6.2041,-6.2005,-6.2041,-6.2041,-6.2041,-6.206,-6.2141,-6.2185,-6.2238,-6.2397,-6.2578,-6.2679,-6.251,-6.2917,-6.357,-6.41,-6.4498,-6.4796,-6.4962,-6.4995,-6.5293,-6.5624,-6.5955,-6.5657,-6.5657,-6.6022,-6.5558,-6.5425,-6.5425,-6.5425,-6.5425,-6.5425,-6.5425,-6.5425,-6.5425,-6.5425,-6.5425,-6.5425,-6.5425,-6.5425,-6.5425,-6.5425,-6.5425,-6.5425,-6.5425,-6.5425,-6.5425,-6.5425,-6.5425,-6.5425,-6.5425,-6.5425,-6.5425,-6.5425,-6.5425,-6.5227,-6.5061,-6.4697,-6.4233,-6.3514,-6.315,-6.2785,-6.2345,-6.2396,-6.2882,-6.3064,-6.3362,-6.3815,-6.4146,-6.4424,-6.4845,-6.518,-6.5483,-6.5782,-6.5903,-6.5998,-6.6052,-6.6269,-6.633,-6.6457,-6.6518,-6.6518,-6.6518,-6.6518,-6.6518,-6.6518,-6.6608,-6.6668,-6.6727,-6.6822,-6.6822,-6.6822,-6.6822,-6.6822,-6.6822,-6.6822,-6.6822,-6.6786,-6.6207,-6.6098,-6.5627,-6.4975,-6.4396,-6.378,-6.2983,-6.2231,-6.2041,-6.2041,-6.2041,-6.2041,-6.2078,-6.2041,-6.2041,-6.2041,-6.2041,-6.2041,-6.2041,-6.2041,-6.2041,-6.2041,-6.2005,-6.206,-6.2114,-6.2168,-6.2318,-6.2449,-6.2526,-6.155,-6.2288,-6.2917,-6.3249,-6.3405,-6.41,-6.4399,-6.4531,-6.5094,-6.5425,-6.5459,-6.5459,-6.5425,-6.5425,-6.5425,-6.5425,-6.5425,-6.5425,-6.5425,-6.5425,-6.5425,-6.5425,-6.5425,-6.5425,-6.5425,-6.5425,-6.5425,-6.5425,-6.5425,-6.5425,-6.5425,-6.5425,-6.5425,-6.5425,-6.5425,-6.5425,-6.5425,-6.5425,-6.5425,-6.5425,-6.5425,-6.5425,-6.5425,-6.5425,-6.5359,-6.5094,-6.4697,-6.4299,-6.3968,-6.357,-6.3206,-6.3282,-6.3335,-6.3457,-6.3466,-6.3728,-6.3869,-6.422,-6.4601,-6.4986,-6.5465,-6.5901,-6.5957,-6.6086,-6.6249,-6.6343,-6.6437,-6.6464,-6.6495,-6.6372,-6.6372,-6.6336,-6.6336,-6.6366,-6.6421,-6.6542,-6.6668,-6.6793,-6.6793,-6.6793,-6.6822,-6.6822,-6.6822,-6.6822,-6.6822,-6.6822,-6.6822,-6.6822,-6.6569,-6.5772,-6.5048,-6.4468,-6.378,-6.3056,-6.2549,-6.2259,-6.2331,-6.2259,-6.2331,-6.215,-6.2041,-6.2041,-6.2041,-6.2041,-6.2041,-6.2041,-6.2041,-6.2041,-6.2005,-6.2005,-6.2033,-6.2114,-6.2185,-6.2318,-6.2354,-6.1516,-6.2221,-6.2354,-6.2752,-6.3305,-6.4034,-6.4365,-6.4498,-6.5094,-6.5425,-6.5425,-6.5425,-6.5425,-6.5425,-6.5425,-6.5425,-6.5425,-6.5425,-6.5425,-6.5425,-6.5425,-6.5425,-6.5425,-6.5425,-6.5425,-6.5425,-6.5425,-6.5425,-6.5425,-6.5425,-6.5425,-6.5425,-6.5425,-6.5425,-6.5425,-6.5425,-6.5425,-6.5425,-6.5425,-6.5425,-6.5425,-6.5425,-6.5425,-6.5425,-6.5392,-6.5326,-6.5094,-6.4664,-6.4442,-6.4111,-6.3736,-6.3802,-6.3922,-6.3942,-6.3842,-6.3802,-6.3924,-6.4157,-6.4534,-6.5015,-6.5584,-6.6769,-6.6938,-6.7209,-6.7341,-6.7472,-6.7465,-6.7354,-6.7167,-6.6567,-6.6454,-6.631,-6.6274,-6.6336,-6.6361,-6.6452,-6.6512,-6.6668,-6.6727,-6.6727,-6.6757,-6.6757,-6.6822,-6.6822,-6.6822,-6.6822,-6.6822,-6.6822,-6.675,-6.6207,-6.5663,-6.5192,-6.4577,-6.4287,-6.3925,-6.3019,-6.2838,-6.273,-6.2476,-6.2186,-6.2041,-6.2041,-6.2041,-6.2041,-6.2041,-6.2041,-6.2041,-6.2041,-6.2005,-6.2005,-6.2005,-6.2033,-6.2141,-6.2158,-6.2222]},{"header":{"parameterUnit":"m.s-1","parameterCategory":1,"la1":31.0,"la2":29.5877,"lo1":-88.7671,"lo2":-86.6584,"dy":0.0162,"dx":0.0185,"nx":115,"ny":88,"refTime":"2026-04-20T00:00:00:Z","depth":0,"parameterNumber":3,"parameterNumberName":"V-component_of_WINDS"},"data":[0.0,0.0,0.0,0.0,0.0,0.0,0.0,0.0,0.0,0.0,0.0,0.0,0.0,0.0,0.0,0.0,0.0,0.0,0.0,0.0,0.0,0.0,0.0,0.0,0.0,0.0,0.0,0.0,0.0,0.0,0.0,0.0,0.0,0.0,0.0,0.0,0.0,0.0,0.0,0.0,0.0,0.0,0.0,0.0,0.0,0.0,0.0,0.0,0.0,0.0,0.0,0.0,0.0,0.0,0.0,0.0,0.0,0.0,0.0,0.0,0.0,0.0,0.0,0.0,0.0,0.0,0.0,0.0,0.0,0.0,0.0,0.0,0.0,0.0,0.0,0.0,0.0,0.0,0.0,0.0,0.0,0.0,0.0,0.0,0.0,0.0,0.0,0.0,0.0,0.0,0.0,0.0,0.0,0.0,0.0,0.0,0.0,0.0,0.0,0.0,0.0,0.0,0.0,0.0,0.0,0.0,0.0,0.0,0.0,0.0,0.0,0.0,0.0,0.0,0.0,0.0,0.0,0.0,0.0,0.0,0.0,0.0,0.0,0.0,0.0,0.0,0.0,0.0,0.0,0.0,0.0,0.0,0.0,0.0,0.0,0.0,0.0,0.0,0.0,0.0,0.0,0.0,0.0,0.0,0.0,0.0,0.0,0.0,0.0,0.0,0.0,0.0,0.0,0.0,0.0,0.0,0.0,0.0,0.0,0.0,0.0,0.0,0.0,0.0,0.0,0.0,0.0,0.0,0.0,0.0,0.0,0.0,0.0,0.0,0.0,0.0,0.0,0.0,0.0,0.0,0.0,0.0,0.0,0.0,0.0,0.0,0.0,0.0,0.0,0.0,0.0,0.0,0.0,0.0,0.0,0.0,0.0,0.0,0.0,0.0,0.0,0.0,0.0,0.0,0.0,0.0,0.0,0.0,0.0,0.0,0.0,0.0,0.0,0.0,0.0,0.0,0.0,0.0,0.0,0.0,0.0,0.0,0.0,0.0,0.0,0.0,0.0,0.0,0.0,0.0,0.0,0.0,0.0,0.0,0.0,0.0,0.0,0.0,0.0,0.0,0.0,0.0,0.0,0.0,0.0,0.0,0.0,0.0,0.0,0.0,0.0,0.0,0.0,0.0,0.0,0.0,0.0,0.0,0.0,0.0,0.0,0.0,0.0,0.0,0.0,0.0,0.0,0.0,0.0,0.0,0.0,0.0,0.0,0.0,0.0,0.0,0.0,0.0,0.0,0.0,0.0,0.0,0.0,0.0,0.0,0.0,0.0,0.0,0.0,0.0,0.0,0.0,0.0,0.0,0.0,0.0,0.0,0.0,0.0,0.0,0.0,0.0,0.0,0.0,0.0,0.0,0.0,0.0,0.0,0.0,0.0,0.0,0.0,0.0,0.0,0.0,0.0,0.0,0.0,0.0,0.0,0.0,0.0,0.0,0.0,0.0,0.0,0.0,0.0,0.0,0.0,0.0,0.0,0.0,0.0,0.0,0.0,0.0,0.0,0.0,0.0,0.0,0.0,0.0,0.0,0.0,0.0,0.0,0.0,0.0,0.0,0.0,0.0,0.0,0.0,0.0,0.0,0.0,0.0,0.0,0.0,0.0,0.0,0.0,0.0,0.0,0.0,0.0,0.0,0.0,0.0,0.0,0.0,0.0,0.0,0.0,0.0,0.0,0.0,0.0,0.0,0.0,0.0,0.0,0.0,0.0,0.0,0.0,0.0,0.0,0.0,0.0,0.0,0.0,0.0,0.0,0.0,0.0,0.0,0.0,0.0,0.0,0.0,0.0,0.0,0.0,0.0,0.0,0.0,0.0,0.0,0.0,0.0,0.0,0.0,0.0,0.0,0.0,0.0,0.0,0.0,0.0,0.0,0.0,0.0,0.0,0.0,0.0,0.0,0.0,0.0,0.0,0.0,0.0,0.0,0.0,0.0,0.0,0.0,0.0,0.0,0.0,0.0,0.0,0.0,0.0,0.0,0.0,0.0,0.0,0.0,0.0,0.0,0.0,0.0,0.0,0.0,0.0,0.0,0.0,0.0,0.0,0.0,0.0,0.0,0.0,0.0,0.0,0.0,0.0,0.0,0.0,0.0,0.0,0.0,0.0,0.0,0.0,0.0,0.0,0.0,0.0,0.0,0.0,0.0,0.0,0.0,0.0,0.0,0.0,0.0,0.0,0.0,0.0,0.0,0.0,0.0,0.0,0.0,0.0,0.0,0.0,0.0,0.0,0.0,0.0,0.0,0.0,0.0,0.0,0.0,0.0,0.0,0.0,0.0,0.0,0.0,0.0,0.0,0.0,0.0,0.0,0.0,0.0,0.0,0.0,0.0,0.0,0.0,0.0,0.0,0.0,0.0,0.0,0.0,0.0,0.0,0.0,0.0,0.0,0.0,0.0,0.0,0.0,0.0,0.0,0.0,0.0,0.0,0.0,0.0,0.0,0.0,0.0,0.0,0.0,0.0,0.0,0.0,0.0,0.0,0.0,0.0,0.0,0.0,0.0,0.0,0.0,0.0,0.0,0.0,0.0,0.0,0.0,0.0,0.0,0.0,0.0,0.0,0.0,0.0,0.0,0.0,0.0,0.0,0.0,0.0,0.0,0.0,0.0,0.0,0.0,0.0,0.0,0.0,0.0,0.0,0.0,0.0,0.0,0.0,0.0,0.0,0.0,0.0,0.0,0.0,0.0,0.0,0.0,0.0,0.0,0.0,0.0,0.0,0.0,0.0,0.0,0.0,0.0,0.0,0.0,0.0,0.0,0.0,0.0,0.0,0.0,0.0,0.0,0.0,0.0,0.0,0.0,0.0,0.0,0.0,0.0,0.0,0.0,0.0,0.0,0.0,0.0,0.0,0.0,0.0,0.0,0.0,0.0,0.0,0.0,0.0,0.0,0.0,0.0,0.0,0.0,0.0,0.0,0.0,0.0,0.0,0.0,0.0,0.0,0.0,0.0,0.0,0.0,0.0,0.0,0.0,0.0,0.0,0.0,0.0,0.0,0.0,0.0,0.0,0.0,0.0,0.0,0.0,0.0,0.0,0.0,0.0,0.0,0.0,0.0,0.0,0.0,0.0,0.0,0.0,0.0,0.0,0.0,0.0,0.0,0.0,0.0,0.0,0.0,0.0,0.0,0.0,0.0,0.0,0.0,0.0,0.0,0.0,0.0,0.0,0.0,0.0,0.0,0.0,0.0,0.0,0.0,0.0,0.0,0.0,0.0,0.0,0.0,0.0,0.0,0.0,0.0,0.0,0.0,0.0,0.0,0.0,0.0,0.0,0.0,0.0,0.0,0.0,0.0,0.0,0.0,0.0,0.0,0.0,0.0,0.0,0.0,0.0,0.0,0.0,0.0,0.0,0.0,0.0,0.0,0.0,0.0,0.0,0.0,0.0,0.0,0.0,0.0,0.0,0.0,0.0,0.0,0.0,0.0,0.0,0.0,0.0,0.0,0.0,0.0,0.0,0.0,0.0,0.0,0.0,0.0,0.0,0.0,0.0,0.0,0.0,0.0,0.0,0.0,0.0,0.0,0.0,0.0,0.0,0.0,0.0,0.0,0.0,0.0,0.0,0.0,0.0,0.0,0.0,0.0,0.0,0.0,0.0,0.0,0.0,0.0,0.0,0.0,0.0,0.0,0.0,0.0,0.0,0.0,0.0,0.0,0.0,0.0,0.0,0.0,0.0,0.0,0.0,0.0,0.0,0.0,0.0,0.0,0.0,0.0,0.0,0.0,0.0,0.0,0.0,0.0,0.0,0.0,0.0,0.0,0.0,0.0,0.0,0.0,0.0,0.0,0.0,0.0,0.0,0.0,0.0,0.0,0.0,0.0,0.0,0.0,0.0,0.0,0.0,0.0,0.0,0.0,0.0,0.0,0.0,0.0,0.0,0.0,0.0,0.0,0.0,0.0,0.0,0.0,0.0,0.0,0.0,0.0,0.0,0.0,0.0,0.0,0.0,0.0,0.0,0.0,0.0,0.0,0.0,0.0,0.0,0.0,0.0,0.0,0.0,0.0,0.0,0.0,0.0,0.0,0.0,0.0,0.0,0.0,0.0,0.0,0.0,0.0,0.0,0.0,0.0,0.0,0.0,0.0,0.0,0.0,0.0,0.0,0.0,0.0,0.0,0.0,0.0,0.0,0.0,0.0,0.0,0.0,0.0,0.0,0.0,0.0,0.0,0.0,0.0,0.0,0.0,0.0,0.0,0.0,0.0,0.0,0.0,0.0,0.0,0.0,0.0,0.0,0.0,0.0,0.0,0.0,0.0,0.0,0.6873,0.0,0.0,0.0,0.0,0.0,0.0,0.0,0.0,0.0,0.0,0.0,0.0,0.0,0.0,0.0,0.0,0.0,0.0,0.0,0.0,0.0,0.0,0.0,0.0,0.0,0.0,0.0,0.0,0.0,0.0,0.0,0.0,0.0,0.0,0.0,0.0,0.0,0.0,0.0,0.0,0.0,0.0,0.0,0.0,0.0,0.0,0.0,0.0,0.0,0.0,0.0,0.0,0.0,0.0,0.0,0.0,0.0,0.0,0.0,0.0,0.0,0.0,0.0,0.0,0.0,0.0,0.0,0.0,0.0,0.0,0.0,0.0,0.0,0.0,0.0,0.0,0.0,0.0,0.0,0.0,0.0,0.0,0.0,0.0,0.0,0.0,0.0,0.0,0.0,0.0,0.0,0.0,0.0,0.0,0.0,0.0,0.0,0.0,0.0,0.0,0.0,0.0,0.0,0.0,0.0,0.0,0.0,0.0,0.0,0.0,0.6993,0.6993,0.6873,0.6793,0.6787,0.0,0.0,0.0,0.0,0.0,0.0,0.0,0.0,0.0,0.0,0.0,0.0,0.0,0.0,0.0,0.0,0.0,0.0,0.0,0.0,0.0,0.0,0.0,0.0,0.0,0.0,0.0,0.0,0.0,0.0,0.0,0.0,0.0,0.0,0.0,0.0,0.0,0.0,0.0,0.0,0.0,0.0,0.0,0.0,0.0,0.0,0.0,0.0,0.0,0.0,0.0,0.0,0.0,0.0,0.0,0.0,0.0,0.0,0.0,0.0,0.0,0.0,0.0,0.0,0.0,0.0,0.0,0.0,0.0,0.0,0.0,0.0,0.0,0.0,0.0,0.0,0.0,0.0,0.0,0.0,0.0,0.0,0.0,0.0,0.0,0.0,0.0,0.0,0.0,0.0,0.0,0.0,0.0,0.0,0.0,0.0,0.0,0.0,0.0,0.0,0.0,0.0,0.0,0.0,0.0,0.0,0.0,0.0,0.0,0.0,0.0,0.0,0.7033,0.69,0.6707,0.0,0.0,0.0,0.0,0.0,0.0,0.0,0.0,0.0,0.0,0.0,0.0,0.0,0.0,0.0,0.0,0.0,0.0,0.0,0.0,0.0,0.0,0.0,0.0,0.0,0.0,0.0,0.0,0.0,0.0,0.0,0.0,0.0,0.0,0.0,0.0,0.0,0.0,0.0,0.0,0.0,0.0,0.0,0.0,0.0,0.0,0.0,0.0,0.0,0.0,0.0,0.0,0.0,0.0,0.0,0.0,0.0,0.0,0.0,0.0,0.0,0.0,0.0,0.0,0.0,0.0,0.0,0.0,0.0,0.0,0.0,0.0,0.0,0.0,0.0,0.0,0.0,0.0,0.0,0.0,0.0,0.0,0.0,0.0,0.0,0.0,0.0,0.0,0.0,0.0,0.0,0.0,0.0,0.0,0.0,0.0,0.0,0.0,0.0,0.0,0.0,0.0,0.0,0.0,0.0,0.0,0.0,0.0,0.0,0.0,0.7148,0.7437,0.7161,0.0,0.6966,0.0,0.0,0.0,0.0,0.0,0.0,0.0,0.0,0.0,0.0,0.0,0.0,0.0,0.0,0.0,0.0,0.0,0.0,0.0,0.0,0.0,0.0,0.0,0.0,0.0,0.0,0.0,0.0,0.0,0.0,0.0,0.0,0.0,0.0,0.0,0.0,0.0,0.0,0.0,0.0,0.0,0.0,0.0,0.0,0.0,0.0,0.0,0.0,0.0,0.0,0.0,0.0,0.0,0.0,0.0,0.0,0.0,0.0,0.0,0.0,0.0,0.0,0.0,0.0,0.0,0.0,0.0,0.0,0.0,0.0,0.0,0.0,0.0,0.0,0.0,0.0,0.0,0.0,0.0,0.0,0.0,0.0,0.0,0.0,0.0,0.0,0.0,0.0,0.0,0.0,0.0,0.0,0.0,0.0,0.0,0.0,0.0,0.0,0.0,0.0,0.0,0.0,0.0,0.0,0.0,0.0,0.0,0.0,0.0,0.0,0.7802,0.7749,0.7592,0.7468,0.0,0.0,0.0,0.0,0.0,0.0,0.0,0.0,0.0,0.0,0.0,0.0,0.0,0.0,0.0,0.0,0.0,0.0,0.0,0.0,0.0,0.0,0.0,0.0,0.0,0.0,0.0,0.0,0.0,0.0,0.0,0.0,0.0,0.0,0.0,0.0,0.0,0.0,0.0,0.0,0.0,0.0,0.0,0.0,0.0,0.0,0.0,0.0,0.0,0.0,0.0,0.0,0.0,0.0,0.0,0.0,0.0,0.0,0.0,0.0,0.0,0.0,0.0,0.0,0.0,0.0,0.0,0.0,0.0,0.0,0.0,0.0,0.0,0.0,0.0,0.0,0.0,0.0,0.0,0.0,0.0,0.0,0.0,0.0,0.0,0.0,0.0,0.0,0.0,0.0,0.0,0.0,0.0,0.0,0.0,0.0,0.0,0.0,0.0,0.0,0.0,0.0,0.0,0.0,0.0,0.0,0.0,0.0,0.0,0.0,0.7772,0.7976,0.7686,0.7819,0.7709,0.7263,0.0,0.0,0.0,0.0,0.0,0.0,0.0,0.0,0.0,0.0,0.0,0.0,0.0,0.0,0.0,0.0,0.0,0.0,0.0,0.0,0.0,0.0,0.0,0.0,0.0,0.0,0.0,0.0,0.0,0.0,0.0,0.0,0.0,0.0,0.0,0.0,0.0,0.0,0.0,0.0,0.0,0.0,0.0,0.0,0.0,0.0,0.0,0.0,0.0,0.0,0.0,0.0,0.0,0.0,0.0,0.0,0.0,0.0,0.0,0.0,0.0,0.0,0.0,0.0,0.0,0.0,0.0,0.0,0.0,0.0,0.0,0.0,0.0,0.0,0.0,0.0,0.0,0.0,0.0,0.0,0.0,0.0,0.0,0.0,0.0,0.0,0.0,0.0,0.0,0.0,0.0,0.0,0.0,0.0,0.0,0.0,0.0,0.0,0.0,0.0,0.0,0.0,0.0,0.0,0.0,0.0,0.0,0.0,0.0,0.737,0.7397,0.71,0.7583,0.7499,0.0,0.0,0.0,0.0,0.0,0.0,0.0,0.0,0.0,0.0,0.0,0.0,0.0,0.0,0.0,0.0,0.0,0.0,0.0,0.0,0.0,0.0,0.0,0.0,0.0,0.0,0.0,0.0,0.0,0.0,0.0,0.0,0.0,0.0,0.0,0.0,0.0,0.0,0.0,0.0,0.0,0.0,0.0,0.0,0.0,0.0,0.0,0.0,0.0,0.0,0.0,0.0,0.0,0.0,0.0,0.0,0.0,0.0,0.0,0.0,0.0,0.0,0.0,0.0,0.0,0.0,0.0,0.0,0.0,0.0,0.0,0.0,0.0,0.0,0.0,0.0,0.0,0.0,0.0,0.0,0.0,0.0,0.0,0.0,0.0,0.0,0.0,0.0,0.0,0.0,0.0,0.0,0.0,0.0,0.0,0.0,0.0,0.0,0.0,0.0,0.0,0.0,0.0,0.0,0.0,0.0,0.0,0.0,0.0,0.7033,0.7486,0.7802,0.7882,0.7899,0.7579,0.0,0.0,0.0,0.0,0.0,0.0,0.0,0.0,0.0,0.0,0.0,0.0,0.0,0.0,0.0,0.0,0.0,0.0,0.0,0.0,0.0,0.0,0.0,0.0,0.0,0.0,0.0,0.0,0.0,0.0,0.0,0.0,0.0,0.0,0.0,0.0,0.0,0.0,0.0,0.0,0.0,0.0,0.0,0.0,0.0,0.0,0.0,0.0,0.0,0.0,0.0,0.0,0.0,0.0,0.0,0.0,0.0,0.0,0.0,0.0,0.0,0.0,0.0,0.0,0.0,0.0,0.0,0.0,0.0,0.0,0.0,0.0,0.0,0.0,0.0,0.0,0.0,0.0,0.0,0.0,0.0,0.0,0.0,0.0,0.0,0.0,0.0,0.0,0.0,0.0,0.0,0.0,0.0,0.0,0.0,0.0,0.0,0.0,0.0,0.0,0.0,0.0,0.0,0.0,0.0,0.0,0.0,0.0,0.0,0.7482,0.0,0.8192,0.0,0.8005,0.7619,0.0,0.0,0.0,0.0,0.0,0.0,0.0,0.0,0.0,0.0,0.0,0.0,0.0,0.0,0.0,0.0,0.0,0.0,0.0,0.0,0.0,0.0,0.0,0.0,0.0,0.0,0.0,0.0,0.0,0.0,0.0,0.0,0.0,0.0,0.0,0.0,0.0,0.0,0.0,0.0,0.0,0.0,0.0,0.0,0.0,0.0,0.0,0.0,0.0,0.0,0.0,0.0,0.0,0.0,0.0,0.0,0.0,0.0,0.0,0.0,0.0,0.0,0.0,0.0,0.0,0.0,0.0,0.0,0.0,0.0,0.0,0.0,0.0,0.0,0.0,0.0,0.0,0.0,0.0,0.0,0.0,0.0,0.0,0.0,0.0,0.0,0.0,0.0,0.0,0.0,0.0,0.0,0.0,0.0,0.0,0.0,0.0,0.0,0.0,0.0,0.0,0.0,0.0,0.0,0.0,0.0,0.0,0.0,0.8427,0.8415,0.8683,0.8576,0.7952,0.7963,0.7632,0.0,0.0,0.0,0.0,0.0,0.0,0.0,0.0,0.0,0.0,0.0,0.0,0.0,0.0,0.0,0.0,0.0,0.0,0.0,0.0,0.0,0.0,0.0,0.0,0.0,0.0,0.0,0.0,0.0,0.0,0.0,0.0,0.0,0.0,0.0,0.0,0.0,0.0,0.0,0.0,0.0,0.0,0.0,0.0,0.0,0.0,0.0,0.0,0.0,0.0,0.0,0.0,0.0,0.0,0.0,0.0,0.0,0.0,0.0,0.0,0.0,0.0,0.0,0.0,0.0,0.0,0.0,0.0,0.0,0.0,0.0,0.0,0.0,0.0,0.0,0.0,0.0,0.0,0.0,0.0,0.0,0.0,0.0,0.0,0.0,0.0,0.0,0.0,0.0,0.0,0.0,0.0,0.0,0.0,0.0,0.0,0.0,0.0,0.0,0.0,0.0,0.0,0.0,0.0,0.0,0.0,0.0,0.0,0.0,0.9394,0.9674,0.9521,0.8897,0.8636,0.8124,0.0,0.0,0.0,0.0,0.0,0.0,0.0,0.0,0.0,0.0,0.0,0.0,0.0,0.0,0.0,0.0,0.0,0.0,0.0,0.0,0.0,0.0,0.0,0.0,0.0,0.0,0.0,0.0,0.0,0.0,0.0,0.0,0.0,0.0,0.0,0.0,0.0,0.0,0.0,0.0,0.0,0.0,0.0,0.0,0.0,0.0,0.0,0.0,0.0,0.0,0.0,0.0,0.0,0.0,0.0,0.0,0.0,0.0,0.0,0.0,0.0,0.0,0.0,0.0,0.0,0.0,0.0,0.0,0.0,0.0,0.0,0.0,0.0,0.0,0.0,0.0,0.0,0.0,0.0,0.0,0.0,0.0,0.0,0.0,0.0,0.0,0.0,0.0,0.0,0.0,0.0,0.0,0.0,0.0,0.0,0.0,0.0,0.0,0.0,0.0,0.0,0.0,0.0,0.0,0.0,0.0,0.0,0.0,0.0,1.1545,1.139,1.0958,1.0179,0.9728,0.9066,0.8151,0.0,0.0,0.0,0.0,0.0,0.0,0.0,0.0,0.0,0.0,0.0,0.0,0.0,0.0,0.0,0.0,0.0,0.0,0.0,0.0,0.0,0.0,0.0,0.0,0.0,0.0,0.0,0.0,0.0,0.0,0.0,0.0,0.0,0.0,0.0,0.0,0.0,0.0,0.0,0.0,0.0,0.0,0.0,0.0,0.0,0.0,0.0,0.0,0.0,0.0,0.0,0.0,0.0,0.0,0.0,0.0,0.0,0.0,0.0,0.0,0.0,0.0,0.0,0.0,0.0,0.0,0.0,0.0,0.0,0.0,0.0,0.0,0.0,0.0,0.0,0.0,0.0,0.0,0.0,0.0,0.0,0.0,0.0,0.0,0.0,0.0,0.0,0.0,0.0,0.0,0.0,0.0,0.0,0.0,0.0,0.0,0.0,0.0,0.0,0.0,0.0,0.0,0.0,0.0,0.0,0.0,0.0,0.0,1.457,1.3744,1.2855,1.1822,1.1199,1.0392,0.0,0.0,0.0,0.0,0.0,0.0,0.0,0.0,0.0,0.0,0.0,0.0,0.0,0.0,0.0,0.0,0.0,0.0,0.0,0.0,0.0,0.0,0.0,0.0,0.0,0.0,0.0,0.0,0.0,0.0,0.0,0.0,0.0,0.0,0.0,0.0,0.0,0.0,0.0,0.0,0.0,0.0,0.0,0.0,0.0,0.0,0.0,0.0,0.0,0.0,0.0,0.0,0.0,0.0,0.0,0.0,0.0,0.0,0.0,0.0,0.0,0.0,0.0,0.0,0.0,0.0,0.0,0.0,0.0,0.0,0.0,0.0,0.0,0.0,0.0,0.0,0.0,0.0,0.0,0.0,0.0,0.0,0.0,0.0,0.0,0.0,0.0,0.0,0.0,0.0,0.0,0.0,0.0,0.0,0.0,0.0,0.0,0.0,0.0,0.0,0.0,0.0,0.0,0.0,0.0,0.0,0.0,0.0,0.0,1.5496,1.6664,1.6169,1.3855,1.3092,1.1974,0.0,0.0,0.0,0.0,0.0,0.0,0.0,0.0,0.0,0.0,0.0,0.0,0.0,0.0,0.0,0.0,0.0,0.0,0.0,0.0,0.0,0.0,0.0,0.0,0.0,0.0,0.0,0.0,0.0,0.0,0.0,0.0,0.0,0.0,0.0,0.0,0.0,0.0,0.0,0.0,0.0,0.0,0.0,0.0,0.0,0.0,0.0,0.0,0.0,0.0,0.0,0.0,0.0,0.0,0.0,0.0,0.0,0.0,0.0,0.0,0.0,0.0,0.0,0.0,0.0,0.0,0.0,0.0,0.0,0.0,0.0,0.0,0.0,0.0,0.0,0.0,0.0,0.0,0.0,0.0,0.0,0.0,0.0,0.0,0.0,0.0,0.0,0.0,0.0,0.0,0.0,0.0,0.0,0.0,0.0,0.0,0.0,0.0,0.0,0.0,0.0,0.0,0.0,0.0,0.0,0.0,0.0,0.0,1.4842,1.6491,1.8672,1.8686,1.6345,1.4999,1.3389,0.0,0.0,0.0,0.0,0.0,0.0,0.0,0.0,0.0,0.0,0.0,0.0,0.0,0.0,0.0,0.0,0.0,0.0,0.0,0.0,0.0,0.0,0.0,0.0,0.0,0.0,0.0,0.0,0.0,0.0,0.0,0.0,0.0,0.0,0.0,0.0,0.0,0.0,0.0,0.0,0.0,0.0,0.0,0.0,0.0,0.0,0.0,0.0,0.0,0.0,0.0,0.0,0.0,0.0,0.0,0.0,0.0,0.0,0.0,0.0,0.0,0.0,0.0,0.0,0.0,0.0,0.0,0.0,0.0,0.0,0.0,0.0,0.0,0.0,0.0,0.0,0.0,0.0,0.0,0.0,0.0,0.0,0.0,0.0,0.0,0.0,0.0,0.0,0.0,0.0,0.0,0.0,0.0,0.0,0.0,0.0,0.0,0.0,0.0,0.0,0.0,0.0,0.0,0.0,0.0,0.0,0.0,0.0,1.5834,1.7516,1.9974,2.053,1.9008,1.6872,1.4779,0.0,0.0,0.0,0.0,0.0,0.0,0.0,0.0,0.0,0.0,0.0,0.0,0.0,0.0,0.0,0.0,0.0,0.0,0.0,0.0,0.0,0.0,0.0,0.0,0.0,0.0,0.0,0.0,0.0,0.0,0.0,0.0,0.0,0.0,0.0,0.0,0.0,0.0,0.0,0.0,0.0,0.0,0.0,0.0,0.0,0.0,0.0,0.0,0.0,0.0,0.0,0.0,0.0,0.0,0.0,0.0,0.0,0.0,0.0,0.0,0.0,0.0,0.0,0.0,0.0,0.0,0.0,0.0,0.0,0.0,0.0,0.0,0.0,0.0,0.0,0.0,0.0,0.0,0.0,0.0,0.0,0.0,0.0,0.0,0.0,0.0,0.0,0.0,0.0,0.0,0.0,0.0,0.0,0.0,0.0,0.0,0.0,0.0,0.0,0.0,0.0,0.0,0.0,0.0,0.0,0.0,0.0,0.0,1.6974,1.8833,2.0647,2.1189,2.0325,1.8613,1.655,0.0,0.0,0.0,0.0,0.0,0.0,0.0,0.0,0.0,0.0,0.0,0.0,0.0,0.0,0.0,0.0,0.0,0.0,0.0,0.0,0.0,0.0,0.0,0.0,0.0,0.0,0.0,0.0,0.0,0.0,0.0,0.0,0.0,0.0,0.0,0.0,0.0,0.0,0.0,0.0,0.0,0.0,0.0,0.0,0.0,0.0,0.0,0.0,0.3114,0.0,0.0,0.0,0.0,0.0,0.0,0.0,0.0,0.0,0.0,0.0,0.0,0.0,0.0,0.0,0.0,0.0,0.0,0.0,0.0,0.0,0.0,0.0,0.0,0.0,0.0,0.0,0.0,0.0,0.0,0.0,0.0,0.0,0.0,0.0,0.0,0.0,0.0,0.0,0.0,0.0,0.0,0.0,0.0,0.0,0.0,0.0,0.0,0.0,0.0,0.0,0.0,0.0,0.0,0.0,0.0,0.0,0.0,0.0,1.8072,1.9696,2.1306,2.1759,2.0955,1.9959,1.8086,0.0,0.0,0.0,0.0,0.0,0.0,0.0,0.0,0.0,0.0,0.0,0.0,0.0,0.0,0.0,0.0,0.0,0.0,0.0,0.0,0.0,0.0,0.0,0.0,0.0,0.0,0.0,0.0,0.0,0.0,0.0,0.0,0.0,0.0,0.0,0.0,0.0,0.0,0.0,0.0,0.0,0.0,0.0,0.0,0.0,0.0,0.0,0.0,0.0,0.0,0.0,0.0,0.0,0.0,0.0,0.0,0.0,0.0,0.0,0.0,0.0,0.0,0.0,0.0,0.0,0.0,0.0,0.0,0.0,0.0,0.0,0.0,0.0,0.0,0.0,0.0,0.0,0.0,0.0,0.0,0.0,0.0,0.0,0.0,0.0,0.0,0.0,0.0,0.0,0.0,0.0,0.0,0.0,0.0,0.0,0.0,0.0,0.0,0.0,0.0,0.0,0.0,0.0,0.0,0.0,0.0,0.0,1.7311,1.9081,2.0369,2.1847,2.2198,2.1306,2.0823,1.9125,1.6052,0.0,0.0,0.0,0.0,0.0,0.0,0.0,0.0,0.0,0.0,0.0,0.0,0.0,0.0,0.0,0.0,0.0,0.0,0.0,0.0,0.0,0.0,0.0,0.0,0.0,0.0,0.0,0.0,0.0,0.0,0.0,0.0,0.0,0.0,0.0,0.0,0.0,0.0,0.2651,0.2998,0.0,0.0,0.0,0.0,0.0,0.0,0.0,0.0,0.3499,0.0,0.0,0.0,0.0,0.0,0.0,0.0,0.0,0.0,0.0,0.0,0.0,0.0,0.0,0.0,0.0,0.0,0.0,0.0,0.0,0.0,0.0,0.0,0.0,0.0,0.0,0.0,0.0,0.0,0.0,0.0,0.0,0.0,0.0,0.0,0.0,0.0,0.0,0.0,0.0,0.0,0.0,0.0,0.0,0.0,0.0,0.0,0.0,0.0,0.0,0.0,0.0,0.0,0.0,0.0,0.0,1.5688,1.7969,1.974,2.1028,2.2081,2.2301,2.1613,2.0516,1.8825,1.6419,0.0,0.0,0.0,0.0,0.0,0.0,0.0,0.0,0.0,0.0,0.0,0.0,0.0,0.0,0.0,0.0,0.0,0.0,0.0,0.0,0.0,0.0,0.0,0.0,0.0,0.0,0.0,0.0,0.0,0.0,0.0,0.0,0.0,0.0,0.0,0.0,0.0,0.0,0.0,0.3651,0.3944,0.0,0.0,0.0,0.0,0.0,0.0,0.0,0.0,0.3701,0.0,0.0,0.0,0.0,0.0,0.0,0.0,0.0,0.0,0.0,0.0,0.0,0.0,0.0,0.0,0.0,0.0,0.0,0.0,0.0,0.0,0.0,0.0,0.0,0.0,0.0,0.0,0.0,0.0,0.0,0.0,0.0,0.0,0.0,0.0,0.0,0.0,0.0,0.0,0.0,0.0,0.0,0.0,0.0,0.0,0.0,0.0,0.0,0.0,0.0,0.0,0.0,0.0,0.0,0.0,1.6578,1.9052,2.075,2.1686,2.2476,2.2418,2.1452,2.0018,1.8203,0.0,0.0,0.0,0.0,0.0,0.0,0.0,0.0,0.0,0.0,0.0,0.0,0.0,0.0,0.0,0.0,0.0,0.0,0.0,0.0,0.0,0.0,0.0,0.0,0.0,0.0,0.0,0.0,0.0,0.0,0.0,0.0,0.0,0.0,0.0,0.0,0.0,0.0,0.0,0.0,0.4058,0.4307,0.4184,0.0,0.0,0.0,0.0,0.0,0.0,0.4138,0.3964,0.0,0.0,0.0,0.0,0.0,0.0,0.0,0.0,0.0,0.0,0.0,0.0,0.0,0.0,0.0,0.0,0.0,0.0,0.0,0.0,0.0,0.0,0.0,0.0,0.0,0.0,0.0,0.0,0.0,0.0,0.0,0.0,0.0,0.0,0.0,0.0,0.0,0.0,0.0,0.0,0.0,0.0,0.0,0.0,0.0,0.0,0.0,0.0,0.0,0.0,0.0,0.0,0.0,0.0,0.0,1.7264,1.9886,2.1525,2.2169,2.2784,2.2476,2.1145,1.9594,1.7691,0.0,0.0,0.0,0.0,0.0,0.0,0.0,0.0,0.0,0.0,0.0,0.0,0.0,0.0,0.0,0.0,0.0,0.0,0.0,0.0,0.0,0.0,0.0,0.0,0.0,0.0,0.0,0.0,0.0,0.0,0.0,0.0,0.0,0.0,0.0,0.0,0.0,0.0,0.0,0.0,0.0,0.4662,0.4634,0.4675,0.0,0.0,0.0,0.0,0.4525,0.4463,0.0,0.0,0.0,0.0,0.0,0.0,0.0,0.0,0.0,0.0,0.0,0.0,0.0,0.0,0.0,0.0,0.0,0.0,0.0,0.0,0.0,0.0,0.0,0.0,0.0,0.0,0.0,0.0,0.0,0.0,0.0,0.0,0.0,0.0,0.0,0.0,0.0,0.0,0.0,0.0,0.0,0.0,0.0,0.0,0.0,0.0,0.0,0.0,0.0,0.0,0.0,0.0,0.0,0.0,0.0,0.0,1.7311,1.9886,2.154,2.2169,2.2784,2.2359,2.0823,1.9491,1.7604,0.0,0.0,0.0,0.0,0.0,0.0,0.0,0.0,0.0,0.0,0.0,0.0,0.0,0.0,0.0,0.0,0.0,0.0,0.0,0.0,0.0,0.0,0.0,0.0,0.0,0.0,0.0,0.0,0.0,0.0,0.0,0.0,0.0,0.0,0.0,0.0,0.0,0.0,0.0,0.0,0.0,0.5242,0.5042,0.5284,0.5365,0.0,0.0,0.4938,0.4737,0.484,0.0,0.0,0.0,0.0,0.0,0.0,0.0,0.0,0.0,0.0,0.0,0.0,0.0,0.0,0.0,0.0,0.0,0.0,0.0,0.0,0.0,0.0,0.0,0.0,0.0,0.0,0.0,0.0,0.0,0.0,0.0,0.0,0.0,0.0,0.0,0.0,0.0,0.0,0.0,0.0,0.0,0.0,0.0,0.0,0.0,0.0,0.0,0.0,0.0,0.0,0.0,0.0,0.0,0.0,0.0,1.4765,1.7264,1.9886,2.1525,2.2169,2.2798,2.2345,2.0764,1.9286,1.7384,0.0,0.0,0.0,0.0,0.0,0.0,0.0,0.0,0.0,0.0,0.0,0.0,0.0,0.0,0.0,0.0,0.0,0.0,0.0,0.0,0.0,0.0,0.0,0.0,0.0,0.0,0.0,0.0,0.0,0.0,0.0,0.0,0.0,0.0,0.0,0.0,0.0,0.0,0.0,0.0,0.0,0.0,0.5413,0.565,0.0,0.0,0.0,0.5304,0.5433,0.0,0.0,0.0,0.0,0.0,0.0,0.0,0.0,0.0,0.0,0.0,0.0,0.0,0.0,0.0,0.0,0.0,0.0,0.0,0.0,0.0,0.0,0.0,0.0,0.0,0.0,0.0,0.0,0.0,0.0,0.0,0.0,0.0,0.0,0.0,0.0,0.0,0.0,0.0,0.0,0.0,0.0,0.0,0.0,0.0,0.0,0.0,0.0,0.0,0.0,0.0,0.0,0.0,0.0,0.0,0.0,0.0,1.7311,1.9886,2.1525,2.2169,2.2784,2.2345,2.0708,1.9389,0.0,0.0,0.0,0.0,0.0,0.0,0.0,0.0,0.0,0.0,0.0,0.0,0.0,0.0,0.0,0.0,0.0,0.0,0.0,0.0,0.0,0.0,0.0,0.0,0.0,0.0,0.0,0.2175,0.0,0.0,0.0,0.0,0.0,0.0,0.0,0.0,0.0,0.0,0.0,0.0,0.0,0.0,0.6021,0.5873,0.6047,0.6146,0.0,0.0,0.5767,0.5952,0.5847,0.5555,0.0,0.0,0.0,0.0,0.0,0.0,0.0,0.0,0.0,0.0,0.0,0.0,0.0,0.0,0.0,0.0,0.0,0.0,0.0,0.0,0.0,0.0,0.0,0.0,0.0,0.0,0.0,0.0,0.0,0.0,0.0,0.0,0.0,0.0,0.0,0.0,0.0,0.0,0.0,0.0,0.0,0.0,0.0,0.0,0.0,0.0,0.0,0.0,0.0,0.0,0.0,0.0,0.0,0.0,0.0,1.7264,1.9886,2.1525,2.2169,2.2784,2.2345,2.0779,2.0033,1.8321,0.0,0.0,0.0,0.0,0.0,0.0,0.0,0.0,0.0,0.0,0.0,0.0,0.0,0.0,0.0,0.0,0.0,0.0,0.0,0.0,0.0,0.0,0.0,0.0,0.0,0.0,0.0,0.0,0.0,0.0,0.0,0.0,0.0,0.0,0.0,0.0,0.0,0.0,0.0,0.0,0.0,0.6334,0.6499,0.6584,0.66,0.0,0.0,0.6315,0.6027,0.5979,0.5723,0.5022,0.0,0.0,0.0,0.0,0.0,0.0,0.0,0.0,0.0,0.0,0.0,0.0,0.0,0.0,0.0,0.0,0.0,0.0,0.0,0.0,0.0,0.0,0.0,0.0,0.0,0.0,0.0,0.0,0.0,0.0,0.0,0.0,0.0,0.0,0.0,0.0,0.0,0.0,0.0,0.0,0.0,0.0,0.0,0.0,0.0,0.0,0.0,0.0,0.0,0.0,0.0,0.0,0.0,1.4765,1.7264,1.9886,2.1525,2.2169,2.2784,2.2535,2.135,2.0691,1.9081,0.0,0.0,0.0,0.0,0.0,0.0,0.0,0.0,0.0,0.0,0.0,0.0,0.0,0.0,0.0,0.0,0.0,0.0,0.0,0.0,0.0,0.0,0.0,0.0,0.0,0.0,0.0,0.0,0.2729,0.2875,0.3012,0.0,0.0,0.0,0.0,0.0,0.0,0.0,0.0,0.0,0.0,0.6573,0.6691,0.6854,0.0,0.0,0.6756,0.6681,0.6478,0.6288,0.5983,0.542,0.4802,0.0,0.0,0.0,0.0,0.0,0.0,0.0,0.0,0.0,0.0,0.0,0.0,0.0,0.0,0.0,0.0,0.0,0.0,0.0,0.0,0.0,0.0,0.0,0.0,0.0,0.0,0.0,0.0,0.0,0.0,0.0,0.0,0.0,0.0,0.0,0.0,0.0,0.0,0.0,0.0,0.0,0.0,0.0,0.0,0.0,0.0,0.0,0.0,0.0,0.0,0.0,0.0,1.4853,1.7311,1.9989,2.1613,2.2169,2.2696,2.255,2.1715,2.1057,1.9594,0.0,0.0,0.0,0.0,0.0,0.0,0.0,0.0,0.0,0.0,0.0,0.0,0.0,0.0,0.0,0.0,0.0,0.0,0.0,0.0,0.0,0.0,0.0,0.0,0.0,0.0,0.0,0.0,0.3029,0.3151,0.3281,0.0,0.0,0.0,0.0,0.0,0.0,0.0,0.0,0.0,0.0,0.6723,0.6979,0.7083,0.7092,0.7085,0.7088,0.6993,0.6797,0.6525,0.6163,0.5718,0.0,0.0,0.0,0.0,0.0,0.0,0.0,0.0,0.0,0.0,0.0,0.0,0.0,0.0,0.0,0.0,0.0,0.0,0.0,0.0,0.0,0.0,0.0,0.0,0.0,0.0,0.0,0.0,0.0,0.0,1.0425,0.0,0.0,0.0,0.0,0.0,0.0,0.0,0.0,0.0,0.0,0.0,0.0,0.0,0.0,0.0,0.0,0.0,0.0,0.0,0.0,0.0,0.0,1.5087,1.7279,2.0194,2.1847,2.2169,2.2476,2.2345,2.1715,2.1057,1.9798,1.7808,0.0,0.0,0.0,0.0,0.0,0.0,0.0,0.0,0.0,0.0,0.0,0.0,0.0,0.0,0.0,0.0,0.0,0.0,0.0,0.0,0.0,0.0,0.0,0.0,0.0,0.0,0.3478,0.3494,0.3476,0.0,0.0,0.0,0.0,0.0,0.0,0.0,0.0,0.0,0.0,0.6383,0.6749,0.7357,0.7259,0.7206,0.7529,0.7455,0.7258,0.6959,0.6552,0.6197,0.0,0.0,0.0,0.0,0.0,0.0,0.0,0.0,0.0,0.0,0.0,0.0,0.0,0.0,0.0,0.0,0.0,0.0,0.0,0.0,0.0,0.0,0.0,0.0,0.0,0.0,0.0,1.3608,1.3443,0.0,0.0,0.0,0.0,0.0,0.0,0.0,0.0,0.0,0.0,0.0,1.6155,1.6316,0.0,0.0,0.0,0.0,0.0,0.0,0.0,0.0,0.0,0.0,0.0,0.0,1.5409,1.7662,2.0311,2.1745,2.1862,2.2359,2.233,2.1715,2.1276,1.9725,1.6945,0.0,0.0,0.0,0.0,0.0,0.0,0.0,0.0,0.0,0.0,0.0,0.0,0.0,0.0,0.0,0.0,0.0,0.0,0.0,0.0,0.0,0.0,0.0,0.0,0.0,0.3636,0.0,0.0,0.0,0.0,0.0,0.0,0.0,0.0,0.0,0.0,0.0,0.5539,0.6137,0.6482,0.6876,0.7296,0.7422,0.7448,0.0,0.0,0.0,0.0,0.0,0.0,0.0,0.0,0.0,0.0,0.0,0.0,0.0,0.0,0.5447,0.4773,0.4651,0.4515,0.4121,0.0,0.0,0.0,0.0,0.0,0.0,0.0,0.0,0.0,0.0,0.0,0.0,0.0,0.0,1.5438,0.0,1.4305,0.0,0.0,0.0,0.0,0.0,0.0,0.0,0.0,1.7662,1.8364,1.8636,1.8906,1.895,0.0,1.8964,1.7647,0.0,0.0,0.0,0.0,0.0,0.0,0.0,0.0,1.5906,1.8145,2.0603,2.1862,2.1876,2.2257,2.2213,2.1701,2.1057,1.9447,1.6784,1.5174,1.3536,0.0,0.0,0.0,0.0,0.0,0.0,0.0,0.0,0.0,0.0,0.0,0.0,0.0,0.0,0.0,0.0,0.0,0.0,0.0,0.0,0.0,0.0,0.0,0.3975,0.0,0.0,0.0,0.0,0.0,0.0,0.0,0.0,0.0,0.501,0.5523,0.6051,0.6498,0.6772,0.7078,0.7473,0.0,0.0,0.0,0.0,0.0,0.0,0.0,0.6641,0.6404,0.6377,0.6403,0.6356,0.643,0.6464,0.6323,0.0,0.0,0.5739,0.5555,0.5386,0.5004,0.4743,0.4459,0.4179,0.3881,0.3578,0.0,0.0,0.0,0.0,0.0,0.0,0.0,0.0,1.7604,1.7282,0.0,1.5979,0.0,0.0,0.0,0.0,0.0,0.0,0.0,0.0,2.0018,2.0955,2.1276,2.1862,2.2023,2.1759,2.1979,2.1349,1.9661,1.636,0.0,0.0,0.0,0.0,0.0,0.0,1.6594,1.8803,2.1057,2.2184,2.2154,2.2169,2.2023,2.1657,2.0457,1.9052,1.7472,1.6477,1.5072,1.3184,1.2164,0.0,0.0,0.0,0.0,0.0,0.0,0.0,0.0,0.0,0.0,0.0,0.0,0.0,0.0,0.0,0.0,0.0,0.0,0.0,0.0,0.4361,0.0,0.0,0.0,0.0,0.0,0.0,0.0,0.0,0.0,0.0,0.5994,0.6254,0.6609,0.7135,0.0,0.0,0.0,0.0,0.7706,0.7991,0.7988,0.7887,0.7645,0.7307,0.7119,0.7112,0.0,0.0,0.7373,0.7446,0.7312,0.7034,0.721,0.7255,0.6675,0.6429,0.6184,0.5718,0.5528,0.5324,0.5009,0.4653,0.4324,2.255,0.0,0.0,0.0,0.0,1.8994,1.9681,2.0559,2.0237,1.9916,1.955,1.8599,0.0,0.0,0.0,0.0,0.0,0.0,1.9067,2.0413,2.1554,2.2257,2.2564,2.2754,2.2681,2.2374,2.2447,2.1906,2.0764,1.9316,1.7308,1.4915,0.0,0.0,0.0,0.0,1.7677,1.9529,2.1481,2.2286,2.1847,2.2067,2.1906,2.1364,2.0545,1.9769,1.9081,1.7691,1.636,1.5131,1.3492,0.0,0.0,0.0,0.0,0.0,0.0,0.0,0.0,0.0,0.0,0.0,0.0,0.0,0.0,0.0,0.0,0.0,0.0,0.0,0.4962,0.5038,0.5048,0.0,0.0,0.0,0.0,0.0,0.0,0.0,0.0,0.0,0.7374,0.7269,0.7285,0.0,0.0,0.7924,0.8268,0.8153,0.8118,0.8358,0.0,0.0,0.0,0.7678,0.7617,0.757,0.7801,0.7991,0.819,0.816,0.814,0.8038,0.7929,0.778,0.7617,0.7152,0.679,0.6451,0.6218,0.5986,0.573,0.539,0.5009,2.5622,2.331,2.2228,2.1584,2.132,2.1628,2.2315,2.3193,2.2871,2.255,2.2184,2.1218,2.0077,1.8818,1.8057,0.0,0.0,0.0,2.0984,2.1993,2.2959,2.3501,2.3691,2.3823,2.3706,2.3398,2.3267,2.2769,2.195,2.1437,2.012,1.795,0.0,0.0,1.6389,1.7352,1.8716,2.0325,2.1847,2.2389,2.1906,2.1832,2.1554,2.1028,2.0516,2.0033,1.9617,1.8247,1.7135,1.6316,1.4692,1.3126,0.0,0.0,0.0,0.0,0.0,0.0,0.0,0.0,0.0,0.0,0.0,0.4037,0.4158,0.0,0.0,0.0,0.5183,0.543,0.5604,0.5769,0.0,0.0,0.0,0.0,0.0,0.0,0.0,0.7082,0.7642,0.8122,0.8398,0.8381,0.8325,0.8335,0.8424,0.8612,0.8879,0.0,0.8514,0.8657,0.8473,0.8255,0.8106,0.8079,0.8099,0.816,0.8316,0.8465,0.8554,0.8574,0.8554,0.8472,0.8289,0.8133,0.8133,0.7733,0.7247,0.6946,0.6736,0.6566,0.6377,0.5988,0.5667,2.7905,2.7408,2.533,2.4218,2.3866,2.4145,2.4803,2.5637,2.5315,2.5075,2.4657,2.3691,2.2579,2.135,2.0472,0.0,2.1028,2.1964,2.2696,2.3296,2.4203,2.4613,2.4613,2.4973,2.4943,2.451,2.4203,2.372,2.3091,2.274,2.214,2.1233,1.8584,1.7516,1.8057,1.8672,1.974,2.1262,2.2198,2.2506,2.2184,2.1525,2.1028,2.0735,2.0329,1.9901,1.9286,1.8364,1.7574,1.6976,1.5716,1.4272,1.274,0.0,0.0,0.0,0.0,0.0,0.0,0.0,0.0,0.0,0.0,0.0,0.0,0.0,0.0,0.0,0.5961,0.0,0.626,0.6563,0.0,0.0,0.0,0.6294,0.6512,0.7163,0.7682,0.7886,0.0,0.0,0.9137,0.0,0.9575,0.9267,0.9291,0.9438,0.9552,0.9227,0.8972,0.9032,0.8849,0.8729,0.8579,0.8559,0.8547,0.8662,0.873,0.8723,0.873,0.873,0.8669,0.856,0.8449,0.834,0.8289,0.8038,0.7712,0.7233,0.7132,0.7085,0.6957,0.6578,0.6306,2.9076,2.8505,2.7978,2.6998,2.5827,2.5886,2.6339,2.6954,2.6398,2.612,2.5974,2.509,2.4013,2.3018,2.2784,2.2901,2.331,2.3779,2.4283,2.4598,2.4832,2.5002,2.5002,2.5022,2.4759,2.4203,2.3866,2.3501,2.3091,2.255,2.2169,2.1906,2.0998,2.0369,2.0062,2.0428,2.1072,2.195,2.2637,2.2725,2.2184,2.1306,2.0808,2.0664,2.0179,1.9735,1.9272,1.8584,1.7999,1.7574,1.6374,1.5174,1.4062,1.2341,0.0,0.0,0.0,0.0,0.0,0.0,0.0,0.0,0.0,0.5689,0.6191,0.0,0.6492,0.0,0.6951,0.7181,0.739,0.7467,0.0,0.0,0.7228,0.7342,0.7797,0.8163,0.843,0.8747,0.9169,0.9502,0.9681,1.0014,1.0205,1.0298,1.0144,1.0051,1.0124,0.9959,0.9816,0.9892,0.957,0.9201,0.9159,0.8941,0.8784,0.8879,0.8879,0.8831,0.8831,0.8831,0.8817,0.8818,0.8608,0.8452,0.8484,0.8282,0.8052,0.7726,0.757,0.7482,0.7441,0.7158,0.6934,2.9947,2.9515,2.9222,2.8593,2.7744,2.7335,2.7349,2.7656,2.7305,2.6983,2.6676,2.5857,2.5183,2.4686,2.4671,2.4774,2.4949,2.4979,2.5096,2.5257,2.5125,2.5066,2.5066,2.5066,2.4855,2.4291,2.3676,2.3281,2.3076,2.2476,2.2242,2.2374,2.2345,2.214,2.1803,2.1686,2.1891,2.2374,2.2579,2.2535,2.2184,2.1364,2.0737,2.0446,2.0018,1.9588,1.9067,1.8423,1.7999,1.7794,1.6872,1.5891,1.494,1.3343,1.1481,0.0,0.0,0.0,0.0,0.0,0.0,0.0,0.0,0.0,0.0,0.0,0.7664,0.7966,0.8022,0.8164,0.8396,0.8464,0.8482,0.8408,0.8333,0.8438,0.8775,0.8926,0.9145,0.9413,0.9697,0.9933,1.0111,1.0371,1.0615,1.0794,1.0702,1.0582,1.069,1.0564,1.0429,1.0523,0.9973,0.9391,0.9224,0.9051,0.894,0.894,0.894,0.894,0.894,0.894,0.894,0.8865,0.8743,0.8581,0.8581,0.8465,0.8303,0.8167,0.8045,0.795,0.7828,0.7553,0.7337,3.0393,3.0387,2.9734,2.9456,2.931,2.8476,2.8034,2.799,2.7961,2.7656,2.7013,2.6457,2.6179,2.6135,2.6105,2.6076,2.6061,2.5696,2.5535,2.552,2.5213,2.5066,2.5066,2.5066,2.4958,2.454,2.3618,2.3164,2.3149,2.255,2.2389,2.2681,2.2974,2.3106,2.3076,2.2564,2.2432,2.2681,2.2389,2.2242,2.2228,2.1569,2.0925,2.027,1.9916,1.9441,1.8745,1.8145,1.7808,1.7794,1.7255,1.6507,1.5542,1.4356,1.275,0.0,0.9869,0.0,0.0,0.0,0.0,0.0,0.0,0.0,0.0,0.8496,0.877,0.9157,0.9085,0.9165,0.935,0.9495,0.9508,0.9273,0.9452,0.9559,0.951,0.9624,0.9786,0.9941,1.0119,1.0298,1.0485,1.0655,1.0834,1.1013,1.1037,1.1086,1.1248,1.1001,1.0839,1.082,1.0159,0.9539,0.9134,0.8995,0.8995,0.8995,0.8995,0.894,0.894,0.894,0.8892,0.8954,0.8825,0.8716,0.8737,0.8615,0.8506,0.8459,0.8459,0.8391,0.8116,0.7899,0.7832,3.0583,3.0431,3.0299,2.9866,2.9369,2.9178,2.8959,2.8695,2.8447,2.7978,2.7393,2.7261,2.7056,2.6793,2.653,2.6413,2.6383,2.5798,2.5535,2.5451,2.5198,2.5066,2.5066,2.5066,2.4943,2.454,2.3852,2.3501,2.3501,2.2857,2.2696,2.3003,2.3076,2.3106,2.3106,0.0,0.0,0.0,2.2696,2.2535,2.2506,2.1672,2.1028,2.0577,1.9813,0.0,1.8423,1.8028,1.7808,1.7794,1.7208,0.0,0.0,0.0,0.0,0.0,0.0,0.0,0.0,0.0,0.0,0.0,0.9653,0.962,0.9643,0.9681,0.9805,1.0017,0.9993,1.003,1.0229,1.044,1.0421,1.0096,1.0256,1.0262,1.0065,1.0168,1.0245,1.0278,1.0485,1.0664,1.0834,1.1013,1.1183,1.1346,1.1395,1.1476,1.1638,1.136,1.1125,1.1093,1.0459,0.9841,0.9404,0.9279,0.9355,0.932,0.9265,0.9168,0.8947,0.8892,0.8988,0.9069,0.8893,0.8764,0.8872,0.8771,0.8642,0.8506,0.8581,0.8615,0.8438,0.8346,0.8262,3.0729,0.0,3.0504,3.0233,0.0,2.9521,2.935,2.9197,2.8802,2.8388,2.7934,2.7613,2.7305,2.6969,2.6486,2.6179,2.5988,2.5359,2.514,2.5286,2.4964,2.4973,2.5066,2.5066,2.4891,2.4554,2.391,2.3603,2.3559,2.2945,2.2784,2.3106,2.3106,2.3106,2.3106,2.3106,2.3106,2.3106,2.2784,2.2623,2.2593,2.1847,2.1218,2.0664,0.0,0.0,0.0,0.0,0.0,0.0,0.0,0.0,0.0,0.0,0.0,1.4388,1.3655,1.2626,1.1312,1.1189,1.1011,1.061,1.0858,1.0905,1.0594,1.0611,1.066,1.0868,1.0741,1.0779,1.1029,1.1084,1.1063,1.1088,1.1039,1.0971,1.0945,1.0798,1.0729,1.0754,1.0826,1.0899,1.107,1.1167,1.1297,1.1468,1.15,1.1573,1.1719,1.1622,1.1417,1.0969,1.0833,1.0364,0.9816,0.9772,0.9772,0.9723,0.9667,0.9462,0.9111,0.9042,0.9049,0.9049,0.8974,0.896,0.9015,0.8974,0.8906,0.8832,0.8818,0.8804,0.8716,0.8648,0.8568,3.09,3.0803,3.0622,3.0588,3.0489,3.0002,2.9646,2.9461,0.0,0.0,0.0,2.7876,2.7437,2.7042,2.6398,2.5915,2.5579,2.4949,2.4803,2.5119,2.4847,2.4862,2.5119,2.511,2.4964,2.4642,2.4057,2.3764,2.3749,2.3164,2.3018,2.3252,2.3223,2.3164,2.3106,2.3106,2.3106,2.3091,2.2842,2.271,2.2696,2.2096,2.1496,2.0911,2.0208,1.9564,1.8979,1.8642,1.8482,1.8482,1.8467,1.835,1.8086,1.7679,1.7207,1.6518,1.5819,1.4746,1.3204,1.3012,1.251,1.1554,1.1822,1.1831,1.135,1.1302,1.1397,1.1605,1.1457,1.1478,1.1835,1.1711,1.1701,1.1992,1.1746,1.1572,1.1651,1.1363,1.1102,1.1191,1.1126,1.1118,1.1248,1.1313,1.137,1.1516,1.1565,1.1598,1.1736,1.182,1.1499,1.0925,1.0871,1.0832,1.0287,1.0228,1.025,0.999,0.9997,0.9788,0.9369,0.9214,0.9103,0.9022,0.9062,0.9173,0.9228,0.9214,0.9221,0.9241,0.9103,0.9015,0.9001,0.8893,0.8825,3.115,3.0817,3.1188,3.1145,3.0899,3.0987,3.0423,2.9461,2.9042,2.8725,2.8432,2.8344,2.7964,2.7378,2.6735,2.6252,2.5915,2.5286,2.5075,0.0,2.5286,2.5271,2.5134,2.533,2.5301,2.5046,2.4613,2.4437,2.4393,2.4057,2.3896,2.3896,2.3662,2.3384,2.3135,2.3106,2.3106,2.3106,2.3062,2.3047,2.3032,2.2432,2.1935,2.154,2.0647,2.0003,1.9691,1.9316,1.914,1.914,1.914,1.9125,1.9067,1.9008,1.8964,1.8826,1.8235,1.7181,1.5515,1.4972,1.4072,1.275,1.2758,1.2569,1.1813,1.1728,1.1822,1.1977,1.2156,1.2354,1.2589,1.2562,1.2534,1.2472,1.2223,1.1946,1.1759,1.152,1.137,1.1265,1.1346,1.1411,1.1459,1.1581,1.1663,1.1719,1.1711,1.1744,1.182,1.1837,1.1575,1.1193,1.1087,1.0957,1.0732,1.0713,1.062,1.0301,1.0265,1.0004,0.9332,0.9248,0.9228,0.9123,0.9062,0.9096,0.9279,0.9296,0.9289,0.9371,0.9313,0.9293,0.9279,0.9164,0.9049,3.1745,3.1579,3.1745,3.1796,3.1691,3.1186,3.0472,2.9777,2.9364,2.906,2.8666,2.852,2.8169,2.7686,2.6866,2.6325,2.5988,2.5359,2.5154,2.5315,2.5461,2.5549,2.5579,2.5549,2.5461,2.5301,2.4993,2.4832,2.4803,2.451,2.4415,2.4305,2.3852,2.3427,2.3135,2.3106,2.3106,2.3106,2.3106,2.3106,2.3091,2.2506,2.2023,2.1701,2.0911,2.0355,2.0033,1.9872,1.9798,1.9798,1.9798,1.9798,1.9798,1.9798,1.9798,1.9798,1.9249,1.832,1.6896,1.5363,1.4089,1.3267,1.3127,1.2965,1.2531,1.2493,1.254,1.2635,1.2729,1.2814,1.2975,1.2984,1.2956,1.3047,1.2592,1.2288,1.2207,1.1887,1.1614,1.1533,1.1508,1.1541,1.1638,1.1638,1.1671,1.1744,1.1837,1.1837,1.1837,1.1837,1.1692,1.1303,1.1347,1.1375,1.111,1.1221,1.111,1.0688,1.0569,1.0266,0.961,0.9395,0.9327,0.9255,0.915,0.9232,0.9374,0.9334,0.9354,0.9456,0.9429,0.9388,0.9361,0.9259,0.9083,3.2257,3.2174,3.2339,3.2386,3.2339,3.1345,3.0721,3.0239,2.9826,2.9427,2.9168,2.8791,2.8435,2.7917,2.7188,2.6617,2.6193,2.5652,2.5476,2.5637,2.571,2.5842,2.5988,2.5827,2.5666,2.552,2.5271,2.5193,2.5105,2.487,2.4665,2.4423,2.3954,2.3501,2.312,2.3106,2.3106,2.3106,2.3106,2.3106,2.3091,2.2564,2.2154,2.1891,2.1364,2.0925,2.0635,2.0548,2.053,2.0402,2.0402,2.0373,2.0355,2.0413,2.0457,2.0402,1.9945,1.9111,1.781,1.5647,1.4229,1.3894,1.3433,1.3259,1.3211,1.3211,1.324,1.3212,1.3126,1.3154,1.3259,1.3222,1.3221,1.3429,1.2881,1.2572,1.262,1.2191,1.1837,1.182,1.1654,1.1622,1.1711,1.1654,1.1638,1.1744,1.1837,1.1837,1.1837,1.1837,1.1647,1.1587,1.1647,1.17,1.1458,1.1631,1.1511,1.0974,1.0899,1.0568,0.9982,0.9717,0.9541,0.9303,0.9296,0.9313,0.9361,0.9374,0.9449,0.9591,0.9578,0.949,0.9449,0.9367,0.913,3.2505,3.2257,3.2587,3.2796,3.2806,3.1984,3.1453,3.1088,3.0302,2.9949,2.9897,2.9571,2.899,2.8373,2.7903,2.7466,2.691,2.653,2.6237,2.6047,2.6281,2.6281,2.6091,2.6281,2.6105,2.5608,2.5491,2.5315,2.5163,2.509,2.4767,2.4188,2.4071,2.372,2.3179,2.3106,2.3106,2.3106,2.3106,2.3106,2.3091,2.2769,2.2564,2.2535,2.2213,2.2037,2.192,2.1715,2.1423,2.1159,2.1101,2.0969,2.075,2.0955,2.1115,2.1044,2.0744,1.9929,1.8358,1.6563,1.5317,1.4924,1.4143,1.3668,1.3677,1.3618,1.3551,1.341,1.3353,1.3429,1.3589,1.3466,1.3438,1.3599,1.3159,1.2817,1.2689,1.2363,1.2062,1.1837,1.1804,1.176,1.176,1.1804,1.1744,1.1736,1.1792,1.1792,1.1837,1.1801,1.1784,1.1776,1.1776,1.1776,1.1716,1.1776,1.1647,1.1277,1.1209,1.0846,1.033,1.0028,0.987,0.9384,0.9262,0.9279,0.9354,0.9388,0.949,0.9659,0.9713,0.9707,0.9618,0.9523,0.93,3.3164,3.2999,3.3164,3.3233,3.3172,3.2398,3.1864,3.1573,3.0961,3.0528,3.0159,3.0237,2.9851,2.9005,2.845,2.8005,2.7817,2.732,2.7013,2.6866,2.6837,2.672,2.6603,2.6515,2.6354,2.6076,2.571,2.5461,2.533,2.5154,2.473,2.4145,2.4086,2.3764,2.3164,2.3106,2.3106,2.3106,2.3106,2.3106,2.3076,2.2784,2.2623,2.2593,2.233,2.2184,2.2154,2.1876,2.1642,2.1496,2.132,2.1159,2.1013,2.1145,2.1203,2.1161,2.073,1.9968,1.8752,1.7467,1.6419,1.5758,1.4808,1.4162,1.3992,1.3813,1.3655,1.3589,1.357,1.3608,1.3674,1.3618,1.3608,1.3624,1.3421,1.3235,1.3195,1.2778,1.2411,1.2281,1.1924,1.1671,1.1752,1.1837,1.1727,1.1679,1.1768,1.189,1.1809,1.1857,1.1874,1.1801,1.1837,1.1837,1.1837,1.1837,1.1647,1.1398,1.1269,1.1049,1.0477,1.0215,1.0017,0.9507,0.9466,0.9473,0.951,0.9517,0.9571,0.9686,0.9598,0.9517,0.9367,0.934,0.9171,3.3492,3.3492,3.3492,3.3492,3.346,3.2717,3.2277,3.195,3.1605,3.109,3.0547,3.0701,3.0469,2.9804,2.913,2.8828,2.868,2.8326,2.7925,2.7689,2.7364,2.7217,2.7041,2.6894,2.6732,2.6499,2.607,2.5633,2.5403,2.5183,2.4774,2.4291,2.4218,2.3896,2.331,2.3237,2.3193,2.312,2.3106,2.3106,2.3076,2.2871,2.2754,2.274,2.255,2.2432,2.2432,2.2125,2.195,2.1935,2.1642,2.1467,2.1481,2.1481,2.1481,2.1423,2.106,2.0464,1.9703,1.8821,1.7862,1.703,1.5823,1.4992,1.464,1.4166,1.3863,1.3863,1.3863,1.3835,1.3693,1.3693,1.3712,1.3778,1.3685,1.3646,1.3516,1.3164,1.289,1.2698,1.2318,1.191,1.1872,1.1828,1.1744,1.1727,1.1874,1.2028,1.1955,1.2028,1.206,1.1939,1.1951,1.1946,1.1853,1.1837,1.1647,1.1526,1.1458,1.1277,1.0671,1.0604,1.0432,1.0096,0.9961,0.9842,0.9815,0.9769,0.9657,0.9578,0.9496,0.9374,0.93,0.9289,0.9191,3.3492,3.3492,3.3492,3.3492,3.3476,3.305,3.2658,3.2444,3.1999,3.1622,3.1304,3.0933,3.0794,3.0717,3.0176,2.9869,2.9671,2.9503,2.9018,2.8207,2.8043,2.7644,2.7071,2.739,2.7227,2.6673,2.6472,2.5998,2.5193,2.5134,2.4958,2.4621,2.4591,2.4203,2.3632,2.3545,2.3413,2.3135,2.3106,2.3106,2.3106,2.3091,2.3062,2.3062,2.3062,2.3018,2.3003,2.274,2.2564,2.2579,2.2257,2.2111,2.2111,2.2111,2.2096,2.2111,2.2051,2.1931,2.141,2.0542,1.9758,1.897,1.7349,1.6164,1.5813,1.4958,1.4471,1.426,1.4347,1.4152,1.3857,1.3769,1.3816,1.3977,1.4014,1.3933,1.3841,1.3734,1.3519,1.3155,1.2891,1.2664,1.2216,1.1949,1.1926,1.1939,1.202,1.2085,1.2207,1.2264,1.2272,1.2286,1.2358,1.2331,1.1938,1.1957,1.1897,1.1828,1.182,1.1647,1.1458,1.1193,1.0928,1.0688,1.0495,1.0354,1.0154,0.9968,0.9842,0.9683,0.9535,0.9367,0.932,0.9354,0.9306,3.4376,3.3886,3.364,3.364,3.3886,3.4049,3.3937,3.3546,3.3222,3.2708,3.2133,3.1506,3.1164,3.1164,3.0994,3.0546,3.0023,2.9732,2.9503,2.9078,2.8401,2.8072,2.8099,2.7815,2.765,2.747,2.6888,2.6082,2.5193,2.5066,2.4958,2.4627,2.4569,2.4247,2.3706,2.3603,2.3442,2.3149,2.3106,2.3106,2.3106,2.3106,2.3106,2.3106,2.3106,2.3106,2.3106,2.2798,2.2623,2.2562,2.2345,2.2184,2.2184,2.2184,2.2184,2.2184,2.2184,2.2049,2.1675,2.1194,2.0516,1.9668,1.8374,1.7414,1.6848,1.6105,1.5556,1.5379,1.5057,1.4772,1.4456,1.4213,1.4118,1.4194,1.4326,1.4358,1.4297,1.4134,1.3907,1.3708,1.3474,1.3066,1.2689,1.2468,1.2333,1.206,1.2223,1.2392,1.2328,1.2393,1.257,1.2463,1.2687,1.3066,1.3179,1.2673,1.2363,1.2303,1.2182,1.182,1.1511,1.139,1.1086,1.0898,1.0808,1.0681,1.0434,0.993,0.9804,0.9703,0.949,0.9395,0.9381,0.9381,0.9334,3.5173,3.4441,3.3804,3.3804,3.4376,3.4929,3.5117,3.4861,3.4434,3.3814,3.2933,3.1975,3.1506,3.1395,3.1395,3.1071,3.05,3.036,3.0129,2.9823,2.8986,2.8681,2.8618,2.8152,2.7985,2.7951,2.7231,2.6349,2.5665,2.5381,2.5151,2.4945,2.4863,2.4452,2.3998,2.391,2.372,2.3354,2.3267,2.3223,2.3135,2.3106,2.3106,2.3106,2.3106,2.3106,2.3106,2.2886,2.2784,2.2754,2.2579,2.2491,2.2491,2.2476,2.2476,2.2476,2.2491,2.2416,2.2158,2.1915,2.1488,2.074,1.9817,1.8951,1.8455,1.7707,1.7144,1.6705,1.6139,1.5698,1.5329,1.4823,1.4487,1.4449,1.4544,1.4666,1.4659,1.4465,1.4502,1.4527,1.4231,1.3814,1.3527,1.3412,1.3251,1.2878,1.3126,1.3212,1.3212,1.3264,1.3332,1.3259,1.3762,1.4355,1.4586,1.4379,1.3444,1.3208,1.2656,1.2155,1.1792,1.1603,1.1474,1.1224,1.1035,1.0853,1.0499,0.9986,0.9698,0.9612,0.9496,0.9388,0.9381,0.9381,0.9354,3.585,3.5318,3.4049,3.4213,3.5027,3.5787,3.6126,3.6184,3.578,3.4974,3.3919,3.2527,3.1774,3.1551,3.1488,3.1395,3.1302,3.127,3.0882,3.0371,2.9891,2.9325,2.8842,2.8676,2.8388,2.8125,2.7443,2.6954,2.652,2.599,2.5622,2.551,2.521,2.4885,2.4606,2.4452,2.4203,2.3691,2.3545,2.3413,2.3149,2.3106,2.3106,2.3106,2.3135,2.3149,2.3135,2.3106,2.3062,2.3076,2.3062,2.3091,2.3032,2.3032,2.3062,2.3032,2.3062,2.3076,2.3062,2.297,2.2754,2.2256,2.1546,2.0737,2.0269,1.9523,1.8772,1.8314,1.7622,1.6872,1.6421,1.5644,1.4938,1.4676,1.4602,1.4678,1.48,1.4922,1.5115,1.5499,1.5309,1.515,1.5192,1.4982,1.4663,1.4642,1.4674,1.474,1.4761,1.4827,1.4903,1.4976,1.5347,1.5823,1.6076,1.6107,1.5074,1.4137,1.3392,1.2777,1.2317,1.2073,1.204,1.1841,1.1292,1.1103,1.0657,1.0155,0.9746,0.9632,0.9503,0.9449,0.9483,0.951,0.9449,3.7392,3.6609,3.5659,3.574,3.6626,3.7392,3.778,3.7831,3.7499,3.6603,3.5287,3.3581,3.2618,3.2178,3.166,3.1395,3.1395,3.1379,3.1255,3.0912,3.0166,2.9853,2.9633,2.9044,2.851,2.8206,2.8005,2.7447,2.6779,2.6459,2.6103,2.5704,2.5539,2.5159,2.4665,2.4554,2.4247,2.3676,2.3603,2.3427,2.3135,2.3106,2.3106,2.3135,2.3325,2.3442,2.3427,2.3223,2.3106,2.312,2.3106,2.3106,2.3106,2.3106,2.3106,2.3106,2.3106,2.3106,2.3106,2.312,2.301,2.262,2.2118,2.1664,2.1285,2.0792,2.0221,1.9699,1.892,1.8215,1.7582,1.6807,1.6019,1.4911,1.4772,1.4911,1.5043,1.5388,1.5934,1.6518,1.6807,1.7083,1.7136,1.687,1.6573,1.6086,1.6126,1.6229,1.6082,1.6185,1.6185,1.6136,1.6743,1.7315,1.7496,1.7314,1.6523,1.5381,1.443,1.3496,1.3005,1.2742,1.2699,1.2317,1.1764,1.1224,1.0778,1.0386,0.9921,0.9734,0.9686,0.9673,0.968,0.9646,0.9591,3.9156,3.8426,3.7392,3.7472,3.8286,3.9138,3.9629,3.9748,3.9346,3.8517,3.7108,3.4984,3.3692,3.2916,3.2069,3.1506,3.1395,3.1395,3.1395,3.1315,3.0596,3.0249,3.0177,2.9382,2.8828,2.8609,2.8468,2.8115,2.7501,2.7223,2.6786,2.6306,2.6043,2.5757,2.5189,2.513,2.4862,2.4416,2.4213,2.4001,2.3672,2.3535,2.3471,2.3501,2.3676,2.3764,2.3764,2.3574,2.3471,2.3471,2.3471,2.3471,2.3471,2.3486,2.3471,2.3471,2.3471,2.3486,2.3471,2.3501,2.3408,2.3154,2.2964,2.2773,2.2518,2.2326,2.1943,2.1416,2.0644,1.9921,1.935,1.8569,1.7719,1.692,1.611,1.5724,1.5779,1.6289,1.699,1.7678,1.8256,1.8588,1.8716,1.8588,1.8285,1.7648,1.7663,1.7674,1.7442,1.7465,1.7409,1.7449,1.7851,1.8333,1.8763,1.8474,1.7851,1.6779,1.5607,1.4624,1.3821,1.3589,1.3544,1.2699,1.2056,1.1413,1.0959,1.0422,1.003,0.9937,0.991,0.9795,0.9761,0.9774,0.9734,4.0938,4.0374,3.9179,3.91,3.9924,4.0724,4.1268,4.1598,4.1326,4.0395,3.8928,3.6735,3.5035,3.3903,3.2822,3.2069,3.1597,3.1533,3.1533,3.1376,3.1014,3.0696,3.0187,2.9575,2.9273,2.9147,2.8964,2.8789,2.856,2.806,2.7539,2.7112,2.6777,2.6451,2.6011,2.6063,2.5783,2.5383,2.5171,2.4859,2.4496,2.4222,2.4027,2.4027,2.4071,2.4115,2.4101,2.4115,2.4101,2.4086,2.3998,2.3984,2.4057,2.4071,2.4013,2.3998,2.4057,2.4027,2.4057,2.3969,2.3984,2.3919,2.3919,2.4086,2.3854,2.3695,2.3566,2.3176,2.2408,2.1766,2.1306,2.0567,2.0038,1.9826,1.8322,1.7391,1.725,1.779,1.8547,1.9221,1.9557,1.9903,2.0221,2.0017,1.9674,1.9318,1.9203,1.9118,1.8833,1.8773,1.8736,1.885,1.9037,1.9274,1.9674,1.9323,1.8752,1.792,1.6888,1.6045,1.4925,1.4606,1.4064,1.3199,1.227,1.1667,1.1157,1.0721,1.0367,1.0327,1.0176,0.9917,0.9842,0.9869,0.9842,4.183,4.1366,4.0705,4.0705,4.1288,4.183,4.2139,4.2216,4.2139,4.1364,3.9949,3.8264,3.6713,3.5477,3.4316,3.3396,3.2823,3.2452,3.2069,3.1824,3.1453,3.0728,3.0092,2.979,2.9552,2.9401,2.9258,2.9012,2.8789,2.8608,2.8051,2.7196,2.7143,2.6753,2.6191,2.6145,2.588,2.5672,2.5576,2.5212,2.476,2.457,2.4346,2.4101,2.4386,2.4423,2.4466,2.4686,2.4606,2.4115,2.4086,2.4086,2.413,2.413,2.4145,2.4145,2.4115,2.4101,2.4101,2.4115,2.4101,2.4086,2.4159,2.4086,2.4086,2.4086,2.3956,2.363,2.3093,2.2728,2.232,2.1872,2.1608,2.1371,2.0253,1.9286,1.9274,1.9825,2.0495,2.1124,2.1537,2.1719,2.1746,2.1664,2.1344,2.0734,2.0585,2.0574,2.0065,1.9923,1.9786,1.9843,2.0015,2.027,2.0339,2.008,1.9585,1.8936,1.8239,1.7769,1.6615,1.5747,1.4891,1.3885,1.254,1.1697,1.1432,1.1117,1.0907,1.0779,1.0482,1.026,1.0074,0.9998,0.9924,4.2754,4.2544,4.2293,4.2293,4.2544,4.283,4.2907,4.2907,4.2907,4.2447,4.1384,4.0007,3.87,3.7393,3.6201,3.5088,3.4197,3.3483,3.2892,3.2512,3.213,3.148,3.0866,3.0526,3.0219,3.0026,2.972,2.9329,2.9099,2.8996,2.8592,2.7972,2.7736,2.7348,2.6848,2.6594,2.6455,2.6269,2.6172,2.5865,2.55,2.5287,2.5156,2.4988,2.5019,2.4974,2.487,2.5017,2.4929,2.4569,2.4496,2.4562,2.4562,2.4481,2.4496,2.4562,2.4496,2.4496,2.4496,2.4562,2.4496,2.4496,2.4496,2.4496,2.451,2.4496,2.443,2.4245,2.4018,2.3833,2.37,2.3434,2.3367,2.3328,2.2619,2.1764,2.1025,2.1292,2.1832,2.237,2.2632,2.278,2.282,2.2706,2.2306,2.1699,2.1398,2.1218,2.0909,2.0837,2.0743,2.0676,2.0588,2.0699,2.0734,2.0513,2.0208,1.9635,1.9367,1.9008,1.7901,1.6754,1.563,1.4449,1.2986,1.2004,1.1901,1.171,1.1389,1.1169,1.0904,1.0707,1.0622,1.0371,1.0287,4.3615,4.3615,4.3615,4.3615,4.3539,4.3615,4.3539,4.3615,4.3539,4.331,4.2677,4.1733,4.0356,3.9391,3.7969,3.6897,3.5736,3.4672,3.3785,3.3348,3.3028,3.281,3.2699,3.1833,3.1393,3.1048,3.0392,2.976,2.9393,2.9266,2.9091,2.8624,2.8322,2.8005,2.7573,2.7356,2.7264,2.7035,2.6804,2.6588,2.6408,2.6208,2.6008,2.5807,2.5554,2.5412,2.521,2.5119,2.5022,2.5052,2.5066,2.5061,2.5008,2.5105,2.509,2.5061,2.4949,2.4979,2.509,2.5031,2.5075,2.4979,2.4993,2.5066,2.4979,2.4949,2.4949,2.4935,2.5052,2.4897,2.4882,2.4926,2.4756,2.4616,2.4756,2.3961,2.2894,2.2638,2.3008,2.3243,2.3328,2.3221,2.3128,2.2935,2.2631,2.2482,2.2276,2.2079,2.1765,2.1565,2.133,2.1096,2.1034,2.0998,2.1019,2.0975,2.0654,2.0297,2.0208,1.9826,1.8768,1.7566,1.6371,1.5184,1.4016,1.3204,1.2778,1.249,1.2139,1.1908,1.1785,1.1596,1.1449,1.1136,1.0999,4.3615,4.3615,4.3615,4.3615,4.3615,4.3615,4.3615,4.3615,4.3615,4.3386,4.2927,4.237,4.139,4.0239,3.9559,3.8441,3.7052,3.6034,3.5007,3.3802,3.4331,3.4822,3.4851,3.4039,3.2891,3.2189,3.1481,3.0562,2.9665,2.9354,2.9123,2.8876,2.8803,2.8344,2.782,2.7761,2.7471,2.7264,2.7099,2.6981,2.6764,2.6697,2.6429,2.6145,2.5794,2.5592,2.5457,2.5255,2.5119,2.5066,2.5066,2.5066,2.5066,2.5066,2.5066,2.5066,2.5066,2.5066,2.5066,2.5066,2.5066,2.5066,2.5066,2.5066,2.5066,2.5066,2.5066,2.5066,2.5066,2.5066,2.5105,2.4818,2.473,2.4753,2.4496,2.4225,2.3876,2.4113,2.4352,2.4434,2.4283,2.4196,2.3883,2.3781,2.3544,2.3292,2.3069,2.2962,2.2627,2.2254,2.1883,2.1543,2.1425,2.1389,2.1323,2.1261,2.1001,2.0768,2.0666,2.0539,1.947,1.8617,1.749,1.6347,1.5235,1.4576,1.3951,1.3431,1.3099,1.293,1.28,1.2661,1.2459,1.2067,1.167,4.3615,4.3615,4.3615,4.3615,4.3615,4.3615,4.3615,4.3615,4.3615,4.3462,4.331,4.3081,4.2342,4.14,4.1022,4.019,3.8784,3.7511,3.6256,3.5345,3.5718,3.646,3.7125,3.6551,3.5577,3.4,3.2676,3.1431,3.0402,2.9864,2.9774,2.9563,2.9417,2.9174,2.8717,2.8402,2.802,2.7757,2.7677,2.7478,2.7201,2.717,2.6858,2.6429,2.5996,2.5809,2.5607,2.5269,2.5134,2.5066,2.5066,2.5066,2.5066,2.5066,2.5066,2.5066,2.5066,2.5066,2.5066,2.5066,2.5066,2.5066,2.5066,2.5066,2.5066,2.5066,2.5066,2.5066,2.5066,2.5052,2.5105,2.4826,2.4598,2.451,2.4291,2.4101,2.4145,2.4474,2.4671,2.4701,2.4481,2.4379,2.4276,2.4247,2.405,2.3722,2.3485,2.3312,2.3107,2.2716,2.2337,2.1979,2.182,2.1733,2.1679,2.155,2.1363,2.1102,2.0919,2.0729,2.0208,1.9431,1.864,1.7485,1.6387,1.5739,1.5151,1.4642,1.4128,1.4027,1.3926,1.3787,1.3596,1.341,1.2948,4.3615,4.3615,4.3615,4.3615,4.3615,4.3615,4.3615,4.3615,4.3615,4.3615,4.3615,4.3615,4.2967,4.2414,4.2175,4.1439,4.006,3.8773,3.7364,3.6756,3.7198,3.7859,3.8443,3.8457,3.7958,3.6197,3.4487,3.289,3.1464,3.0888,3.0776,3.0572,3.041,3.0193,2.9937,2.9408,2.8733,2.8207,2.8106,2.7979,2.7673,2.7609,2.7332,2.6796,2.6264,2.5944,2.5674,2.5322,2.5066,2.5066,2.5066,2.5066,2.5066,2.5066,2.5066,2.5066,2.5066,2.5066,2.5066,2.5066,2.5066,2.5066,2.5066,2.5066,2.5066,2.5066,2.5066,2.5066,2.5066,2.5066,2.5037,2.4759,2.4598,2.451,2.4276,2.4115,2.4086,2.4086,2.4291,2.451,2.451,2.4437,2.4496,2.4525,2.4326,2.4179,2.394,2.3708,2.3516,2.3314,2.293,2.2582,2.2448,2.2029,2.1881,2.1804,2.1603,2.1456,2.1269,2.1065,2.09,2.0541,1.9831,1.8688,1.7689,1.7044,1.6408,1.5824,1.5434,1.5248,1.5173,1.52,1.5012,1.4816,1.4309,4.3615,4.3615,4.3615,4.3615,4.3615,4.3615,4.3615,4.3615,4.3615,4.3615,4.3615,4.3594,4.3118,4.2509,4.2322,4.1346,4.002,3.9208,3.87,3.8243,3.8627,3.9136,3.9405,3.957,3.9293,3.8701,3.6971,3.4811,3.2765,3.2165,3.1958,3.1576,3.1597,3.1512,3.0993,3.0354,2.9666,2.8809,2.8606,2.8377,2.812,2.7908,2.7713,2.7194,2.6625,2.6191,2.5891,2.5404,2.5066,2.5066,2.5066,2.5066,2.5066,2.5066,2.5066,2.5066,2.5066,2.5066,2.5066,2.5066,2.5066,2.5066,2.5066,2.5066,2.5066,2.5066,2.5066,2.5066,2.5066,2.5052,2.5119,2.4759,2.4598,2.4496,2.4305,2.4086,2.4086,2.4101,2.4218,2.4496,2.451,2.4569,2.4686,2.4774,2.4721,2.4669,2.4529,2.4471,2.4381,2.4118,2.3808,2.3445,2.3046,2.2569,2.2082,2.203,2.1884,2.1777,2.1643,2.1617,2.154,2.1673,2.1084,1.9819,1.9056,1.8518,1.7863,1.713,1.6796,1.6678,1.6613,1.6613,1.6496,1.6368,1.5873,4.3615,4.3615,4.3615,4.3615,4.3615,4.3615,4.3615,4.3615,4.3615,4.3615,4.3615,4.3573,4.3118,4.253,4.2322,4.1512,4.0494,4.0166,3.995,3.9858,3.995,4.0074,4.0289,4.0289,4.0289,4.0013,3.9002,3.6956,3.427,3.3697,3.3446,3.3109,3.3001,3.2768,3.2418,3.1896,3.1026,3.016,2.9917,2.9752,2.9336,2.8914,2.8413,2.7892,2.7144,2.6593,2.6291,2.5719,2.5269,2.5119,2.5066,2.5066,2.5066,2.5066,2.5066,2.5066,2.5066,2.5066,2.5066,2.5066,2.5066,2.5066,2.5066,2.5066,2.5066,2.5066,2.5066,2.5066,2.5066,2.5066,2.5052,2.4826,2.4665,2.451,2.4305,2.4145,2.4101,2.4101,2.4305,2.454,2.4554,2.4686,2.4935,2.5008,2.5037,2.5066,2.5066,2.5066,2.5066,2.4692,2.4254,2.3596,2.3088,2.2586,2.2163,2.2177,2.2151,2.2071,2.1977,2.1937,2.1964,2.2058,2.17,2.0903,2.031,1.9871,1.9212,1.8472,1.8279,1.8033,1.7958,1.7958,1.7958,1.7829,1.7313,4.3615,4.3615,4.3615,4.3615,4.3615,4.3615,4.3615,4.3615,4.3615,4.3615,4.3615,4.3573,4.3097,4.2393,4.2053,4.1524,4.0882,4.0811,4.0811,4.0719,4.074,4.0882,4.0882,4.0882,4.0811,4.0647,4.0269,3.8826,3.6463,3.5635,3.5172,3.4855,3.4506,3.432,3.4107,3.355,3.2788,3.2246,3.2035,3.1826,3.1185,3.0223,2.9404,2.8891,2.7847,2.7013,2.6762,2.596,2.5487,2.5255,2.5119,2.5066,2.5066,2.5066,2.5066,2.5066,2.5066,2.5066,2.5066,2.5066,2.5066,2.5066,2.5066,2.5066,2.5066,2.5066,2.5066,2.5066,2.5066,2.5066,2.5022,2.4899,2.4782,2.4657,2.4496,2.4305,2.4349,2.4408,2.4576,2.4709,2.4642,2.4774,2.5008,2.5066,2.5066,2.5066,2.5066,2.5066,2.5008,2.4627,2.4167,2.3445,2.2901,2.2492,2.2283,2.2311,2.2325,2.2365,2.2258,2.2178,2.2205,2.2245,2.1925,2.1608,2.1594,2.1097,2.0451,1.9763,1.9316,1.906,1.9176,1.9176,1.906,1.8996,1.8664,4.3615,4.3615,4.3615,4.3615,4.3615,4.3615,4.3615,4.3615,4.3615,4.3615,4.3615,4.3573,4.3118,4.2269,4.14,4.1027,4.0903,4.0882,4.0882,4.0882,4.0882,4.0882,4.0882,4.0882,4.0882,4.0882,4.0525,3.9381,3.804,3.7825,3.7305,3.6569,3.6444,3.6436,3.5596,3.5089,3.4502,3.3656,3.3448,3.3128,3.2442,3.1199,3.0395,2.9508,2.8337,2.7342,2.719,2.6398,2.5779,2.5599,2.5299,2.5134,2.5066,2.5066,2.5066,2.5066,2.5066,2.5066,2.5066,2.5066,2.5066,2.5066,2.5066,2.5066,2.5066,2.5066,2.5066,2.5066,2.5066,2.5066,2.5066,2.5008,2.4993,2.4964,2.4862,2.4832,2.4862,2.4671,2.4855,2.4899,2.4862,2.492,2.5066,2.5066,2.5066,2.5066,2.5066,2.5066,2.4964,2.4546,2.416,2.352,2.3012,2.2629,2.243,2.2459,2.2512,2.2646,2.2472,2.2378,2.2472,2.2498,2.2472,2.2271,2.2271,2.1925,2.1032,2.0439,2.0081,2.0004,2.0055,2.0029,1.9966,1.9903,1.9814,4.3366,4.3615,4.3615,4.3615,4.3615,4.3615,4.3615,4.3615,4.3615,4.3615,4.3615,4.3615,4.3097,4.2207,4.1296,4.0882,4.0882,4.0882,4.0882,4.0882,4.0882,4.0882,4.0882,4.0882,4.0882,4.0882,4.0719,4.0535,3.9586,3.8989,3.8416,3.8027,3.7708,3.732,3.6884,3.6346,3.5704,3.5188,3.4983,3.4633,3.3829,3.2929,3.1927,3.1098,2.9567,2.8659,2.7994,2.7307,2.6573,2.6253,2.5873,2.5535,2.5339,2.5169,2.5066,2.5066,2.5066,2.5066,2.5066,2.5066,2.5066,2.5066,2.5066,2.5066,2.5066,2.5066,2.5066,2.5066,2.5066,2.5066,2.5066,2.5066,2.5066,2.5066,2.5066,2.5066,2.5066,2.5066,2.5008,2.5052,2.5066,2.5066,2.5066,2.5066,2.5066,2.5066,2.5066,2.5066,2.4882,2.4515,2.4144,2.3659,2.3252,2.29,2.2753,2.2606,2.266,2.2673,2.2566,2.2552,2.2712,2.2779,2.2767,2.2565,2.2392,2.1925,2.1397,2.1227,2.1006,2.0928,2.0978,2.0759,2.0604,2.0602,2.0526,4.3118,4.3449,4.3573,4.3615,4.3615,4.3615,4.3615,4.3615,4.3615,4.3615,4.3532,4.3366,4.2849,4.2186,4.1358,4.0882,4.0882,4.0882,4.0882,4.0882,4.0882,4.0882,4.0882,4.0882,4.0882,4.0882,4.0882,4.077,4.0544,4.0054,3.9567,3.9263,3.8766,3.8348,3.7907,3.7509,3.6969,3.6586,3.6519,3.6228,3.5578,3.4758,3.3776,3.2576,3.1217,2.988,2.9201,2.8129,2.7316,2.6961,2.6289,2.5918,2.5668,2.5295,2.5149,2.5066,2.5066,2.5066,2.5066,2.5066,2.5066,2.5066,2.5066,2.5066,2.5066,2.5066,2.5066,2.5066,2.5066,2.5066,2.5066,2.5066,2.5066,2.5066,2.5066,2.5066,2.5066,2.5066,2.5066,2.5066,2.5066,2.5066,2.5066,2.5066,2.5066,2.5066,2.5066,2.5066,2.4882,2.4602,2.4405,2.4092,2.3861,2.3482,2.3236,2.3077,2.2998,2.2808,2.2701,2.2781,2.3012,2.3065,2.2984,2.2768,2.2579,2.2432,2.2085,2.1991,2.1897,2.1579,2.1237,2.1272,2.1179,2.1176,2.1072,4.2932,4.3014,4.3408,4.3594,4.3615,4.3615,4.3615,4.3615,4.3615,4.3615,4.3511,4.2807,4.2488,4.2115,4.1379,4.0882,4.0882,4.0882,4.0882,4.0882,4.0882,4.0882,4.0882,4.0882,4.0882,4.0882,4.0882,4.0882,4.0862,4.0728,4.0389,4.0079,3.9733,3.933,3.8938,3.8425,3.8077,3.7785,3.7703,3.7569,3.6991,3.6248,3.5275,3.4221,3.2363,3.0752,3.0299,2.8798,2.7819,2.7609,2.69,2.6388,2.622,2.5731,2.5446,2.5364,2.5349,2.5364,2.5281,2.5125,2.5066,2.5066,2.5066,2.5066,2.5066,2.5066,2.5066,2.5066,2.5066,2.5066,2.5066,2.5066,2.5066,2.5066,2.5066,2.5066,2.5066,2.5066,2.5066,2.5066,2.5066,2.5066,2.5066,2.5066,2.5066,2.5066,2.5066,2.5066,2.5066,2.4897,2.4911,2.4756,2.4501,2.4189,2.3894,2.3694,2.3333,2.3199,2.313,2.3264,2.3414,2.339,2.3229,2.3147,2.2916,2.2875,2.2794,2.2512,2.2191,2.1802,2.1601,2.1577,2.1483,2.139,2.1309,4.2249,4.2538,4.2704,4.3097,4.3615,4.3615,4.3615,4.3615,4.3615,4.3615,4.3553,4.2704,4.2322,4.2073,4.1338,4.0882,4.0882,4.0882,4.0882,4.0882,4.0882,4.0882,4.0882,4.0882,4.0882,4.0882,4.0882,4.0882,4.0882,4.0882,4.082,4.0613,4.0386,4.0096,3.9612,3.9055,3.8647,3.8336,3.8191,3.7991,3.7549,3.6991,3.618,3.51,3.3255,3.1722,3.0969,2.9531,2.8759,2.8224,2.7663,2.7314,2.6998,2.6517,2.616,2.5992,2.5992,2.5855,2.5574,2.5315,2.5066,2.5066,2.5066,2.5081,2.5125,2.5149,2.5066,2.5066,2.5096,2.514,2.5149,2.5066,2.5066,2.5066,2.5096,2.5125,2.5154,2.5198,2.5198,2.5257,2.514,2.5066,2.5066,2.5066,2.5066,2.5066,2.5066,2.5066,2.5066,2.5066,2.5066,2.5052,2.4781,2.4588,2.429,2.3923,2.3585,2.3557,2.3543,2.368,2.3736,2.3446,2.3324,2.327,2.3201,2.3038,2.2834,2.2713,2.2459,2.2071,2.1977,2.1991,2.1844,2.1603,2.155,4.1825,4.2136,4.226,4.2621,4.318,4.3201,4.3284,4.3408,4.3387,4.3511,4.3532,4.2683,4.2322,4.2073,4.1317,4.0882,4.0882,4.0882,4.0882,4.0882,4.0882,4.0882,4.0882,4.0882,4.0882,4.0882,4.0882,4.0882,4.0882,4.0882,4.0841,4.0758,4.0593,4.0386,4.0013,3.9475,3.8833,3.8481,3.8311,3.8207,3.7811,3.7549,3.7011,3.5821,3.3983,3.2613,3.1561,3.0255,2.9147,2.875,2.8349,2.8051,2.7786,2.7437,2.7098,2.6843,2.6633,2.6508,2.6165,2.5736,2.5344,2.5432,2.5418,2.5388,2.533,2.533,2.5432,2.5403,2.5374,2.533,2.533,2.5418,2.5447,2.5505,2.5491,2.552,2.5505,2.552,2.5476,2.5476,2.5388,2.5374,2.5169,2.5169,2.5066,2.5066,2.5066,2.5066,2.5066,2.5066,2.5066,2.5052,2.4916,2.4709,2.4554,2.4262,2.4037,2.388,2.3908,2.4028,2.4008,2.3772,2.3679,2.3816,2.3611,2.3201,2.3024,2.2875,2.2673,2.2432,2.2311,2.2151,2.2017,2.1804,2.1857,4.1638,4.17,4.2115,4.2302,4.2364,4.2384,4.2559,4.2932,4.2994,4.3221,4.347,4.2663,4.2322,4.2115,4.1276,4.0903,4.0882,4.0882,4.0882,4.0882,4.0882,4.0882,4.0882,4.0882,4.0882,4.0882,4.0882,4.0882,4.0882,4.0882,4.0882,4.0882,4.0758,4.0593,4.022,3.9765,3.922,3.8827,3.8765,3.8559,3.8373,3.8244,3.7773,3.6638,3.489,3.3524,3.2456,3.0781,2.9855,2.9592,2.9067,2.8782,2.8593,2.799,2.7555,2.74,2.7004,2.6764,2.6578,2.6213,2.6029,2.5871,2.5769,2.5813,2.5915,2.593,2.5871,2.5754,2.5842,2.5886,2.5944,2.5944,2.5886,2.5857,2.5827,2.5813,2.5783,2.5769,2.5725,2.5696,2.5813,2.5857,2.552,2.5286,2.511,2.5066,2.5066,2.5066,2.5066,2.5066,2.5066,2.5052,2.4984,2.4926,2.4771,2.4663,2.4488,2.4313,2.4276,2.4405,2.4468,2.4313,2.4263,2.436,2.3884,2.327,2.3201,2.3119,2.2848,2.2579,2.2325,2.2151,2.2058,2.2071,2.2164,4.111,4.111,4.1348,4.1338,4.1493,4.2094,4.2352,4.2518,4.2787,4.318,4.3346,4.2642,4.2322,4.2032,4.1358,4.0882,4.0882,4.0882,4.0882,4.0882,4.0882,4.0882,4.0882,4.0882,4.0882,4.0882,4.0882,4.0882,4.0882,4.0882,4.0882,4.0882,4.0841,4.0634,4.0323,3.9943,3.9695,3.9323,3.922,3.9158,3.9081,3.8972,3.8555,3.7541,3.5816,3.4436,3.3487,3.1718,3.0922,3.0781,3.0406,3.0265,2.9982,2.9433,2.9026,2.8617,2.8191,2.785,2.7651,2.7263,2.6698,2.6364,2.6076,2.6091,2.6032,2.6018,2.6018,2.6047,2.6105,2.6091,2.6003,2.6003,2.5974,2.5974,2.5959,2.5959,2.5944,2.5944,2.593,2.5915,2.5988,2.59,2.5652,2.5476,2.5315,2.5183,2.5183,2.5096,2.5134,2.5066,2.5066,2.5066,2.5052,2.5008,2.4987,2.4899,2.4803,2.473,2.4744,2.4824,2.4858,2.4709,2.4588,2.4495,2.3952,2.3406,2.3338,2.327,2.2969,2.2686,2.2566,2.2499,2.2458,2.2512,2.2619,4.0882,4.0882,4.0882,4.0882,4.0965,4.1524,4.1855,4.2104,4.2642,4.3097,4.3139,4.258,4.2322,4.2053,4.1358,4.0882,4.0882,4.0882,4.0882,4.0882,4.0882,4.0882,4.0882,4.0882,4.0882,4.0882,4.0882,4.0882,4.0882,4.0882,4.0882,4.0882,4.0862,4.0737,4.053,4.0406,4.022,3.9889,3.9744,3.9592,3.9468,3.9296,3.9075,3.8053,3.6749,3.5477,3.4436,3.3384,3.2298,3.2298,3.2298,3.2175,3.1754,3.1118,3.0534,2.991,2.9066,2.8604,2.8084,2.7867,2.7338,2.6757,2.6425,2.6354,2.6354,2.6427,2.6413,2.6398,2.6325,2.6339,2.6339,2.631,2.6296,2.631,2.631,2.6325,2.6339,2.6354,2.6354,2.6325,2.6237,2.6076,2.5857,2.5681,2.5535,2.5418,2.5315,2.5213,2.5163,2.5134,2.5066,2.5066,2.5066,2.5105,2.509,2.5008,2.5008,2.5052,2.5052,2.5119,2.5052,2.4887,2.4766,2.4631,2.4224,2.3884,2.3679,2.3461,2.3311,2.3174,2.3052,2.2984,2.2928,2.2859,2.2859,4.0882,4.0882,4.0882,4.0882,4.0882,4.0965,4.1193,4.1721,4.2476,4.287,4.2911,4.2435,4.2281,4.2136,4.1296,4.0903,4.0882,4.0882,4.0882,4.0882,4.0882,4.0882,4.0882,4.0882,4.0882,4.0882,4.0882,4.0882,4.0882,4.0882,4.0882,4.0882,4.0882,4.082,4.0779,4.0717,4.053,4.0303,4.022,4.0096,3.993,3.9695,3.9445,3.8665,3.758,3.661,3.5666,3.4658,3.3988,3.3794,3.3794,3.3535,3.3049,3.2141,3.1595,3.0676,2.9481,2.8851,2.8346,2.8289,2.8057,2.7515,2.7156,2.7085,2.691,2.6808,2.6778,2.6793,2.6778,2.6852,2.6896,2.6881,2.6852,2.6852,2.6852,2.6866,2.6881,2.6881,2.6866,2.6837,2.6764,2.6588,2.631,2.6091,2.5798,2.5681,2.5549,2.5344,2.5227,2.5149,2.5134,2.5066,2.5066,2.5066,2.5066,2.5066,2.5066,2.5066,2.5066,2.5052,2.5052,2.5052,2.4984,2.4849,2.4631,2.436,2.3952,2.3747,2.3747,2.3543,2.3338,2.3133,2.2996,2.2928,2.2859,4.0882,4.0882,4.0882,4.0882,4.0882,4.0882,4.1131,4.1586,4.1876,4.2269,4.287,4.2104,4.2032,4.2145,4.1296,4.0965,4.0882,4.0882,4.0882,4.0882,4.0882,4.0882,4.0882,4.0882,4.0882,4.0882,4.0882,4.0882,4.0882,4.0882,4.0882,4.0882,4.0882,4.0882,4.0882,4.0882,4.0758,4.0675,4.0634,4.051,4.0448,4.0365,4.005,3.9321,3.8496,3.7639,3.6848,3.5956,3.5401,3.5344,3.5344,3.507,3.4383,3.3554,3.2718,3.0693,2.991,2.9425,2.901,2.8707,2.8491,2.8202,2.7768,2.7274,2.7129,2.6998,2.6998,2.6998,2.6998,2.6998,2.6998,2.6998,2.6998,2.6998,2.6998,2.6998,2.6998,2.6998,2.6998,2.6969,2.691,2.6778,2.653,2.6339,2.6061,2.5944,2.5798,2.5622,2.5374,2.5213,2.5134,2.5066,2.5066,2.5066,2.5066,2.5066,2.5066,2.5066,2.5066,2.5066,2.5052,2.5052,2.5066,2.4984,2.4781,2.4428,2.402,2.402,2.4102,2.3679,2.3406,2.3201,2.2996,2.2928,2.2928,4.0468,4.0613,4.0613,4.0696,4.0862,4.0882,4.1048,4.1296,4.1483,4.1917,4.2269,4.1814,4.1731,4.1814,4.1234,4.0882,4.0882,4.0882,4.0882,4.0882,4.0882,4.0882,4.0882,4.0882,4.0882,4.0882,4.0882,4.0882,4.0882,4.0882,4.0882,4.0882,4.0882,4.0882,4.0882,4.0882,4.0882,4.0862,4.0862,4.0882,4.0882,4.0882,4.0554,4.0165,3.9362,3.8726,3.8073,3.7357,3.7077,3.6917,3.6876,3.6586,3.5772,3.4865,3.3206,3.1384,3.0551,2.9926,2.9354,2.9066,2.8851,2.8635,2.8259,2.784,2.7347,2.7129,2.7071,2.6998,2.6998,2.6998,2.6998,2.6998,2.6998,2.6998,2.6998,2.6998,2.6998,2.6998,2.6983,2.6969,2.6896,2.6793,2.6632,2.6457,2.6398,2.6398,2.6296,2.6091,2.574,2.5359,2.5169,2.5066,2.5066,2.5066,2.5066,2.5066,2.5066,2.5066,2.5066,2.5066,2.5066,2.5066,2.5066,2.5052,2.4916,2.4645,2.4442,2.4442,2.4442,2.4034,2.3679,2.3543,2.3338,2.2996,2.2928,3.9736,4.0179,4.0179,4.0468,4.0841,4.0882,4.0882,4.0924,4.1368,4.1545,4.1607,4.1524,4.1576,4.1545,4.1089,4.0882,4.0882,4.0882,4.0882,4.0882,4.0882,4.0882,4.0882,4.0882,4.0882,4.0882,4.0882,4.0882,4.0882,4.0882,4.0882,4.0882,4.0882,4.0882,4.0882,4.0882,4.0882,4.0882,4.0882,4.0882,4.0882,4.0882,4.0862,4.0779,4.0336,3.9853,3.9419,3.9055,3.8667,3.8311,3.8058,3.7837,3.7044,3.5772,3.3831,3.2474,3.1506,3.0551,2.9855,2.9425,2.9138,2.8923,2.8691,2.8274,2.784,2.7347,2.7202,2.7071,2.6998,2.6998,2.6998,2.6998,2.6998,2.6998,2.6998,2.6998,2.6998,2.6998,2.6983,2.6969,2.6954,2.6866,2.6852,2.6705,2.6676,2.6778,2.6647,2.6413,2.612,2.5637,2.5388,2.5169,2.5066,2.5066,2.5066,2.5066,2.5066,2.5066,2.5066,2.5066,2.5066,2.5066,2.5066,2.5052,2.4984,2.5052,2.4916,2.4849,2.4713,2.4442,2.4156,2.402,2.3679,2.327,2.2996,3.9599,3.9744,4.0075,4.0468,4.0841,4.0882,4.0862,4.0882,4.0986,4.1255,4.1534,4.1255,4.1234,4.1421,4.1069,4.0882,4.0882,4.0882,4.0882,4.0882,4.0882,4.0882,4.0882,4.0882,4.0882,4.0882,4.0882,4.0882,4.0882,4.0882,4.0882,4.0882,4.0882,4.0882,4.0882,4.0882,4.0882,4.0882,4.0882,4.0882,4.0882,4.0882,4.0862,4.0758,4.0468,4.0241,3.9806,3.922,3.8889,3.86,3.8336,3.8063,3.7698,3.6152,3.4935,3.3812,3.2615,3.154,3.048,2.9926,2.9568,2.9154,2.8923,2.8707,2.8274,2.7768,2.742,2.7202,2.7071,2.7071,2.7071,2.7071,2.7071,2.7071,2.7071,2.7071,2.7071,2.6998,2.6998,2.6998,2.6998,2.6998,2.6998,2.6998,2.6998,2.6866,2.6647,2.6442,2.6296,2.5944,2.571,2.5476,2.5207,2.5149,2.5066,2.5066,2.5066,2.5066,2.5066,2.5066,2.5066,2.5066,2.5066,2.5066,2.5052,2.5066,2.5066,2.5066,2.4916,2.4713,2.4495,2.436,2.3952,2.3475,2.3201,3.9061,3.922,3.9723,4.0054,4.0303,4.0489,4.0593,4.0613,4.08,4.1007,4.1214,4.1027,4.1027,4.1255,4.0965,4.0882,4.0882,4.0882,4.0882,4.0882,4.0882,4.0882,4.0882,4.0882,4.0882,4.0882,4.0882,4.0882,4.0882,4.0882,4.0882,4.0882,4.0882,4.0882,4.0882,4.0882,4.0882,4.0882,4.0882,4.0882,4.0882,4.0882,4.0882,4.0758,4.0655,4.0427,4.0137,3.9592,3.9364,3.9137,3.8957,3.8801,3.8534,3.7706,3.6582,3.5464,3.4287,3.2826,3.1452,3.0567,3.0101,2.9633,2.917,2.8954,2.8635,2.813,2.7985,2.7783,2.7638,2.7638,2.7638,2.7638,2.7638,2.7638,2.742,2.7274,2.7129,2.6998,2.6998,2.6998,2.6998,2.6998,2.6998,2.6998,2.6998,2.6983,2.6749,2.6705,2.6515,2.6252,2.6018,2.5769,2.5447,2.5222,2.5066,2.5066,2.5066,2.5066,2.5081,2.5066,2.5066,2.5066,2.5066,2.5066,2.5066,2.5066,2.5066,2.5066,2.5052,2.4916,2.4781,2.4645,2.4156,2.3816,2.3611,3.846,3.8827,3.922,3.9426,3.962,4.0054,4.0241,4.0323,4.0675,4.0882,4.0903,4.0903,4.0882,4.0882,4.0882,4.0882,4.0882,4.0882,4.0882,4.0882,4.0882,4.0882,4.0882,4.0882,4.0882,4.0882,4.0882,4.0882,4.0882,4.0882,4.0882,4.0882,4.0882,4.0882,4.0882,4.0882,4.0882,4.0882,4.0882,4.0882,4.0882,4.0882,4.0882,4.0882,4.0841,4.0675,4.0427,4.0179,3.9972,3.9723,3.9495,3.9447,3.9288,3.8792,3.7946,3.6886,3.5769,3.4147,3.2562,3.1608,3.0788,3.0033,2.9625,2.9337,2.9064,2.8847,2.863,2.8469,2.8397,2.8088,2.8088,2.8072,2.8072,2.8,2.7768,2.7478,2.7274,2.7071,2.7071,2.7071,2.6998,2.6998,2.6998,2.6998,2.6998,2.6998,2.6998,2.6998,2.6896,2.6574,2.6281,2.6047,2.5769,2.5476,2.5271,2.5154,2.5183,2.5154,2.5183,2.511,2.5066,2.5066,2.5066,2.5066,2.5066,2.5066,2.5066,2.5066,2.5052,2.5052,2.4984,2.4781,2.4495,2.4156,2.417,3.844,3.8786,3.8869,3.9117,3.9558,4.0013,4.022,4.0303,4.0675,4.0882,4.0882,4.0882,4.0882,4.0882,4.0882,4.0882,4.0882,4.0882,4.0882,4.0882,4.0882,4.0882,4.0882,4.0882,4.0882,4.0882,4.0882,4.0882,4.0882,4.0882,4.0882,4.0882,4.0882,4.0882,4.0882,4.0882,4.0882,4.0882,4.0882,4.0882,4.0882,4.0882,4.0882,4.0882,4.0862,4.082,4.0675,4.0406,4.017,3.9964,3.9827,3.9868,3.9749,3.9569,3.8836,3.8147,3.7093,3.5654,3.4223,3.3127,3.2253,3.1135,3.077,3.0364,3.007,2.9776,2.9597,2.9461,2.9205,2.8427,2.8294,2.8232,2.8217,2.8072,2.7913,2.7695,2.755,2.7274,2.7129,2.7129,2.7056,2.7056,2.6998,2.6998,2.6998,2.6998,2.6998,2.6998,2.6969,2.6749,2.653,2.6339,2.6091,2.5974,2.5827,2.5461,2.5388,2.5344,2.5242,2.5125,2.5066,2.5066,2.5066,2.5066,2.5066,2.5066,2.5066,2.5066,2.5052,2.5052,2.5052,2.4984,2.4713,2.4563,2.451]}]]